<?xml version='1.0' encoding='UTF-8'?>
<gpx version="1.1" creator="https://www.komoot.de" xmlns="http://www.topografix.com/GPX/1/1" xmlns:xsi="http://www.w3.org/2001/XMLSchema-instance" xsi:schemaLocation="http://www.topografix.com/GPX/1/1 http://www.topografix.com/GPX/1/1/gpx.xsd">
  <metadata>
    <name>75_750SteinenEgringen</name>
    <author>
      <link href="https://www.komoot.de">
        <text>komoot</text>
        <type>text/html</type>
      </link>
    </author>
  </metadata>
  <trk>
    <name>75_750SteinenEgringen</name>
    <trkseg>
      <trkpt lat="47.541528" lon="7.870700">
        <ele>339.072408</ele>
        <time>2021-11-21T08:09:47.624Z</time>
      </trkpt>
      <trkpt lat="47.541576" lon="7.870664">
        <ele>339.072408</ele>
        <time>2021-11-21T08:09:48.280Z</time>
      </trkpt>
      <trkpt lat="47.541550" lon="7.870601">
        <ele>339.072408</ele>
        <time>2021-11-21T08:09:49.090Z</time>
      </trkpt>
      <trkpt lat="47.541521" lon="7.870517">
        <ele>339.072408</ele>
        <time>2021-11-21T08:09:50.147Z</time>
      </trkpt>
      <trkpt lat="47.541606" lon="7.870424">
        <ele>339.072408</ele>
        <time>2021-11-21T08:09:51.886Z</time>
      </trkpt>
      <trkpt lat="47.541910" lon="7.870106">
        <ele>339.072408</ele>
        <time>2021-11-21T08:09:57.736Z</time>
      </trkpt>
      <trkpt lat="47.542014" lon="7.870126">
        <ele>339.072408</ele>
        <time>2021-11-21T08:09:59.264Z</time>
      </trkpt>
      <trkpt lat="47.542118" lon="7.870135">
        <ele>339.072408</ele>
        <time>2021-11-21T08:10:00.984Z</time>
      </trkpt>
      <trkpt lat="47.542181" lon="7.870131">
        <ele>339.053008</ele>
        <time>2021-11-21T08:10:01.872Z</time>
      </trkpt>
      <trkpt lat="47.542317" lon="7.870012">
        <ele>338.882278</ele>
        <time>2021-11-21T08:10:04.123Z</time>
      </trkpt>
      <trkpt lat="47.542348" lon="7.869983">
        <ele>338.842648</ele>
        <time>2021-11-21T08:10:04.553Z</time>
      </trkpt>
      <trkpt lat="47.542329" lon="7.869820">
        <ele>338.721955</ele>
        <time>2021-11-21T08:10:06.317Z</time>
      </trkpt>
      <trkpt lat="47.542372" lon="7.869746">
        <ele>338.650711</ele>
        <time>2021-11-21T08:10:07.142Z</time>
      </trkpt>
      <trkpt lat="47.542657" lon="7.869354">
        <ele>338.230345</ele>
        <time>2021-11-21T08:10:12.001Z</time>
      </trkpt>
      <trkpt lat="47.542696" lon="7.869257">
        <ele>338.147966</ele>
        <time>2021-11-21T08:10:12.936Z</time>
      </trkpt>
      <trkpt lat="47.542722" lon="7.869201">
        <ele>338.098374</ele>
        <time>2021-11-21T08:10:13.528Z</time>
      </trkpt>
      <trkpt lat="47.543049" lon="7.868759">
        <ele>337.619900</ele>
        <time>2021-11-21T08:10:18.441Z</time>
      </trkpt>
      <trkpt lat="47.543105" lon="7.868711">
        <ele>337.549967</ele>
        <time>2021-11-21T08:10:19.179Z</time>
      </trkpt>
      <trkpt lat="47.543201" lon="7.868657">
        <ele>337.438973</ele>
        <time>2021-11-21T08:10:20.257Z</time>
      </trkpt>
      <trkpt lat="47.543657" lon="7.868359">
        <ele>336.881155</ele>
        <time>2021-11-21T08:10:26.053Z</time>
      </trkpt>
      <trkpt lat="47.543801" lon="7.868269">
        <ele>336.698068</ele>
        <time>2021-11-21T08:10:28.532Z</time>
      </trkpt>
      <trkpt lat="47.544214" lon="7.867988">
        <ele>336.165674</ele>
        <time>2021-11-21T08:10:36.149Z</time>
      </trkpt>
      <trkpt lat="47.544246" lon="7.867967">
        <ele>336.124675</ele>
        <time>2021-11-21T08:10:36.745Z</time>
      </trkpt>
      <trkpt lat="47.544410" lon="7.867825">
        <ele>335.902150</ele>
        <time>2021-11-21T08:10:39.998Z</time>
      </trkpt>
      <trkpt lat="47.544469" lon="7.867776">
        <ele>335.822915</ele>
        <time>2021-11-21T08:10:41.020Z</time>
      </trkpt>
      <trkpt lat="47.544568" lon="7.867693">
        <ele>335.689658</ele>
        <time>2021-11-21T08:10:42.947Z</time>
      </trkpt>
      <trkpt lat="47.545003" lon="7.867278">
        <ele>335.083557</ele>
        <time>2021-11-21T08:10:51.796Z</time>
      </trkpt>
      <trkpt lat="47.545160" lon="7.866985">
        <ele>335.170506</ele>
        <time>2021-11-21T08:10:56.446Z</time>
      </trkpt>
      <trkpt lat="47.545240" lon="7.866887">
        <ele>335.248239</ele>
        <time>2021-11-21T08:10:58.720Z</time>
      </trkpt>
      <trkpt lat="47.546096" lon="7.866147">
        <ele>335.990378</ele>
        <time>2021-11-21T08:11:23.790Z</time>
      </trkpt>
      <trkpt lat="47.546327" lon="7.865959">
        <ele>336.187738</ele>
        <time>2021-11-21T08:11:30.210Z</time>
      </trkpt>
      <trkpt lat="47.546510" lon="7.865766">
        <ele>336.355948</ele>
        <time>2021-11-21T08:11:36.596Z</time>
      </trkpt>
      <trkpt lat="47.546819" lon="7.865489">
        <ele>336.345588</ele>
        <time>2021-11-21T08:11:44.749Z</time>
      </trkpt>
      <trkpt lat="47.546889" lon="7.865225">
        <ele>336.333089</ele>
        <time>2021-11-21T08:11:48.536Z</time>
      </trkpt>
      <trkpt lat="47.546894" lon="7.864837">
        <ele>336.315989</ele>
        <time>2021-11-21T08:11:53.713Z</time>
      </trkpt>
      <trkpt lat="47.546885" lon="7.864500">
        <ele>336.301127</ele>
        <time>2021-11-21T08:11:59.352Z</time>
      </trkpt>
      <trkpt lat="47.546974" lon="7.864423">
        <ele>336.294399</ele>
        <time>2021-11-21T08:12:00.940Z</time>
      </trkpt>
      <trkpt lat="47.547320" lon="7.863864">
        <ele>336.260978</ele>
        <time>2021-11-21T08:12:10.865Z</time>
      </trkpt>
      <trkpt lat="47.547568" lon="7.863151">
        <ele>335.617436</ele>
        <time>2021-11-21T08:12:19.878Z</time>
      </trkpt>
      <trkpt lat="47.547930" lon="7.861711">
        <ele>333.905844</ele>
        <time>2021-11-21T08:12:36.252Z</time>
      </trkpt>
      <trkpt lat="47.548049" lon="7.860929">
        <ele>333.100349</ele>
        <time>2021-11-21T08:12:44.952Z</time>
      </trkpt>
      <trkpt lat="47.548334" lon="7.859801">
        <ele>332.193750</ele>
        <time>2021-11-21T08:12:58.433Z</time>
      </trkpt>
      <trkpt lat="47.548611" lon="7.858381">
        <ele>331.258628</ele>
        <time>2021-11-21T08:13:16.390Z</time>
      </trkpt>
      <trkpt lat="47.548686" lon="7.857973">
        <ele>331.229206</ele>
        <time>2021-11-21T08:13:21.779Z</time>
      </trkpt>
      <trkpt lat="47.548701" lon="7.857893">
        <ele>331.223428</ele>
        <time>2021-11-21T08:13:22.899Z</time>
      </trkpt>
      <trkpt lat="47.548743" lon="7.857692">
        <ele>331.208788</ele>
        <time>2021-11-21T08:13:25.673Z</time>
      </trkpt>
      <trkpt lat="47.548887" lon="7.857308">
        <ele>331.178223</ele>
        <time>2021-11-21T08:13:31.707Z</time>
      </trkpt>
      <trkpt lat="47.549362" lon="7.855774">
        <ele>330.915494</ele>
        <time>2021-11-21T08:13:55.752Z</time>
      </trkpt>
      <trkpt lat="47.549566" lon="7.855225">
        <ele>330.664133</ele>
        <time>2021-11-21T08:14:04.369Z</time>
      </trkpt>
      <trkpt lat="47.549883" lon="7.854434">
        <ele>330.295165</ele>
        <time>2021-11-21T08:14:15.823Z</time>
      </trkpt>
      <trkpt lat="47.550221" lon="7.853833">
        <ele>329.839506</ele>
        <time>2021-11-21T08:14:22.216Z</time>
      </trkpt>
      <trkpt lat="47.551516" lon="7.851950">
        <ele>324.984808</ele>
        <time>2021-11-21T08:14:41.013Z</time>
      </trkpt>
      <trkpt lat="47.551660" lon="7.851725">
        <ele>324.307486</ele>
        <time>2021-11-21T08:14:43.045Z</time>
      </trkpt>
      <trkpt lat="47.551830" lon="7.851603">
        <ele>323.696142</ele>
        <time>2021-11-21T08:14:44.965Z</time>
      </trkpt>
      <trkpt lat="47.551925" lon="7.851845">
        <ele>323.084609</ele>
        <time>2021-11-21T08:14:46.810Z</time>
      </trkpt>
      <trkpt lat="47.552042" lon="7.852007">
        <ele>322.566331</ele>
        <time>2021-11-21T08:14:48.455Z</time>
      </trkpt>
      <trkpt lat="47.552097" lon="7.852063">
        <ele>322.350346</ele>
        <time>2021-11-21T08:14:49.086Z</time>
      </trkpt>
      <trkpt lat="47.552272" lon="7.852167">
        <ele>321.740101</ele>
        <time>2021-11-21T08:14:50.992Z</time>
      </trkpt>
      <trkpt lat="47.552449" lon="7.852231">
        <ele>321.150432</ele>
        <time>2021-11-21T08:14:52.793Z</time>
      </trkpt>
      <trkpt lat="47.552678" lon="7.851709">
        <ele>319.790495</ele>
        <time>2021-11-21T08:14:57.067Z</time>
      </trkpt>
      <trkpt lat="47.552876" lon="7.851300">
        <ele>318.983698</ele>
        <time>2021-11-21T08:15:00.613Z</time>
      </trkpt>
      <trkpt lat="47.553283" lon="7.850634">
        <ele>317.789802</ele>
        <time>2021-11-21T08:15:07.283Z</time>
      </trkpt>
      <trkpt lat="47.553344" lon="7.850525">
        <ele>317.601643</ele>
        <time>2021-11-21T08:15:08.361Z</time>
      </trkpt>
      <trkpt lat="47.553380" lon="7.850453">
        <ele>317.482572</ele>
        <time>2021-11-21T08:15:09.048Z</time>
      </trkpt>
      <trkpt lat="47.553537" lon="7.849904">
        <ele>316.690258</ele>
        <time>2021-11-21T08:15:13.534Z</time>
      </trkpt>
      <trkpt lat="47.553605" lon="7.849629">
        <ele>316.301078</ele>
        <time>2021-11-21T08:15:15.824Z</time>
      </trkpt>
      <trkpt lat="47.553725" lon="7.849291">
        <ele>315.823665</ele>
        <time>2021-11-21T08:15:18.746Z</time>
      </trkpt>
      <trkpt lat="47.554055" lon="7.848586">
        <ele>315.015473</ele>
        <time>2021-11-21T08:15:25.644Z</time>
      </trkpt>
      <trkpt lat="47.554209" lon="7.848300">
        <ele>314.670827</ele>
        <time>2021-11-21T08:15:28.607Z</time>
      </trkpt>
      <trkpt lat="47.554269" lon="7.848188">
        <ele>314.536128</ele>
        <time>2021-11-21T08:15:29.686Z</time>
      </trkpt>
      <trkpt lat="47.554351" lon="7.848049">
        <ele>314.362223</ele>
        <time>2021-11-21T08:15:31.146Z</time>
      </trkpt>
      <trkpt lat="47.554465" lon="7.847858">
        <ele>314.122041</ele>
        <time>2021-11-21T08:15:33.227Z</time>
      </trkpt>
      <trkpt lat="47.554618" lon="7.847626">
        <ele>313.816489</ele>
        <time>2021-11-21T08:15:35.726Z</time>
      </trkpt>
      <trkpt lat="47.554759" lon="7.847388">
        <ele>313.518176</ele>
        <time>2021-11-21T08:15:38.143Z</time>
      </trkpt>
      <trkpt lat="47.554892" lon="7.847148">
        <ele>313.246869</ele>
        <time>2021-11-21T08:15:40.575Z</time>
      </trkpt>
      <trkpt lat="47.554995" lon="7.846915">
        <ele>313.019109</ele>
        <time>2021-11-21T08:15:42.732Z</time>
      </trkpt>
      <trkpt lat="47.555068" lon="7.846672">
        <ele>312.801610</ele>
        <time>2021-11-21T08:15:44.792Z</time>
      </trkpt>
      <trkpt lat="47.555199" lon="7.846687">
        <ele>312.642413</ele>
        <time>2021-11-21T08:15:46.273Z</time>
      </trkpt>
      <trkpt lat="47.555727" lon="7.846715">
        <ele>312.002264</ele>
        <time>2021-11-21T08:15:52.731Z</time>
      </trkpt>
      <trkpt lat="47.555855" lon="7.846815">
        <ele>311.826939</ele>
        <time>2021-11-21T08:15:54.393Z</time>
      </trkpt>
      <trkpt lat="47.555892" lon="7.846856">
        <ele>311.770960</ele>
        <time>2021-11-21T08:15:54.951Z</time>
      </trkpt>
      <trkpt lat="47.555966" lon="7.846932">
        <ele>311.661868</ele>
        <time>2021-11-21T08:15:56.100Z</time>
      </trkpt>
      <trkpt lat="47.555990" lon="7.846965">
        <ele>311.622198</ele>
        <time>2021-11-21T08:15:56.532Z</time>
      </trkpt>
      <trkpt lat="47.556060" lon="7.846859">
        <ele>311.500930</ele>
        <time>2021-11-21T08:15:57.726Z</time>
      </trkpt>
      <trkpt lat="47.556636" lon="7.845928">
        <ele>310.784688</ele>
        <time>2021-11-21T08:16:08.112Z</time>
      </trkpt>
      <trkpt lat="47.557134" lon="7.845095">
        <ele>310.264465</ele>
        <time>2021-11-21T08:16:17.931Z</time>
      </trkpt>
      <trkpt lat="47.557282" lon="7.844832">
        <ele>310.104386</ele>
        <time>2021-11-21T08:16:21.071Z</time>
      </trkpt>
      <trkpt lat="47.557560" lon="7.844433">
        <ele>309.954309</ele>
        <time>2021-11-21T08:16:26.251Z</time>
      </trkpt>
      <trkpt lat="47.557715" lon="7.843940">
        <ele>309.940140</ele>
        <time>2021-11-21T08:16:31.256Z</time>
      </trkpt>
      <trkpt lat="47.557759" lon="7.843839">
        <ele>309.937008</ele>
        <time>2021-11-21T08:16:32.434Z</time>
      </trkpt>
      <trkpt lat="47.557846" lon="7.843756">
        <ele>309.933013</ele>
        <time>2021-11-21T08:16:33.780Z</time>
      </trkpt>
      <trkpt lat="47.557967" lon="7.843683">
        <ele>309.927969</ele>
        <time>2021-11-21T08:16:35.820Z</time>
      </trkpt>
      <trkpt lat="47.558136" lon="7.843582">
        <ele>309.920934</ele>
        <time>2021-11-21T08:16:38.502Z</time>
      </trkpt>
      <trkpt lat="47.558405" lon="7.843371">
        <ele>309.909184</ele>
        <time>2021-11-21T08:16:43.369Z</time>
      </trkpt>
      <trkpt lat="47.558471" lon="7.843365">
        <ele>309.906631</ele>
        <time>2021-11-21T08:16:44.219Z</time>
      </trkpt>
      <trkpt lat="47.558555" lon="7.843392">
        <ele>309.903312</ele>
        <time>2021-11-21T08:16:45.499Z</time>
      </trkpt>
      <trkpt lat="47.558592" lon="7.843442">
        <ele>309.901379</ele>
        <time>2021-11-21T08:16:46.354Z</time>
      </trkpt>
      <trkpt lat="47.558884" lon="7.843836">
        <ele>309.893562</ele>
        <time>2021-11-21T08:16:52.784Z</time>
      </trkpt>
      <trkpt lat="47.559060" lon="7.844197">
        <ele>309.897076</ele>
        <time>2021-11-21T08:16:57.609Z</time>
      </trkpt>
      <trkpt lat="47.559109" lon="7.844229">
        <ele>309.897701</ele>
        <time>2021-11-21T08:16:58.658Z</time>
      </trkpt>
      <trkpt lat="47.559158" lon="7.844233">
        <ele>309.898275</ele>
        <time>2021-11-21T08:16:59.605Z</time>
      </trkpt>
      <trkpt lat="47.559583" lon="7.843813">
        <ele>309.904246</ele>
        <time>2021-11-21T08:17:07.581Z</time>
      </trkpt>
      <trkpt lat="47.559847" lon="7.843604">
        <ele>309.907745</ele>
        <time>2021-11-21T08:17:11.981Z</time>
      </trkpt>
      <trkpt lat="47.560139" lon="7.843433">
        <ele>309.911415</ele>
        <time>2021-11-21T08:17:16.208Z</time>
      </trkpt>
      <trkpt lat="47.560209" lon="7.843393">
        <ele>309.912292</ele>
        <time>2021-11-21T08:17:17.159Z</time>
      </trkpt>
      <trkpt lat="47.560338" lon="7.843341">
        <ele>309.822121</ele>
        <time>2021-11-21T08:17:18.825Z</time>
      </trkpt>
      <trkpt lat="47.560430" lon="7.843341">
        <ele>309.723989</ele>
        <time>2021-11-21T08:17:20.367Z</time>
      </trkpt>
      <trkpt lat="47.560515" lon="7.843379">
        <ele>309.629287</ele>
        <time>2021-11-21T08:17:21.401Z</time>
      </trkpt>
      <trkpt lat="47.560812" lon="7.843560">
        <ele>309.286749</ele>
        <time>2021-11-21T08:17:25.461Z</time>
      </trkpt>
      <trkpt lat="47.560934" lon="7.843550">
        <ele>309.156418</ele>
        <time>2021-11-21T08:17:26.983Z</time>
      </trkpt>
      <trkpt lat="47.561038" lon="7.843502">
        <ele>309.040231</ele>
        <time>2021-11-21T08:17:28.272Z</time>
      </trkpt>
      <trkpt lat="47.561434" lon="7.843181">
        <ele>308.558774</ele>
        <time>2021-11-21T08:17:33.712Z</time>
      </trkpt>
      <trkpt lat="47.561498" lon="7.843130">
        <ele>308.481264</ele>
        <time>2021-11-21T08:17:34.477Z</time>
      </trkpt>
      <trkpt lat="47.562179" lon="7.842500">
        <ele>307.581752</ele>
        <time>2021-11-21T08:17:43.735Z</time>
      </trkpt>
      <trkpt lat="47.562300" lon="7.842326">
        <ele>307.380876</ele>
        <time>2021-11-21T08:17:45.686Z</time>
      </trkpt>
      <trkpt lat="47.562385" lon="7.842183">
        <ele>307.227669</ele>
        <time>2021-11-21T08:17:47.098Z</time>
      </trkpt>
      <trkpt lat="47.562440" lon="7.842083">
        <ele>307.123952</ele>
        <time>2021-11-21T08:17:48.213Z</time>
      </trkpt>
      <trkpt lat="47.562574" lon="7.841873">
        <ele>306.891592</ele>
        <time>2021-11-21T08:17:50.611Z</time>
      </trkpt>
      <trkpt lat="47.562904" lon="7.841632">
        <ele>306.453278</ele>
        <time>2021-11-21T08:17:55.101Z</time>
      </trkpt>
      <trkpt lat="47.562965" lon="7.841597">
        <ele>306.375345</ele>
        <time>2021-11-21T08:17:55.888Z</time>
      </trkpt>
      <trkpt lat="47.563016" lon="7.841568">
        <ele>306.310264</ele>
        <time>2021-11-21T08:17:56.590Z</time>
      </trkpt>
      <trkpt lat="47.563300" lon="7.841391">
        <ele>305.943199</ele>
        <time>2021-11-21T08:18:00.327Z</time>
      </trkpt>
      <trkpt lat="47.563483" lon="7.841269">
        <ele>305.717968</ele>
        <time>2021-11-21T08:18:02.885Z</time>
      </trkpt>
      <trkpt lat="47.563659" lon="7.841150">
        <ele>305.509150</ele>
        <time>2021-11-21T08:18:05.213Z</time>
      </trkpt>
      <trkpt lat="47.563805" lon="7.841046">
        <ele>305.334293</ele>
        <time>2021-11-21T08:18:07.275Z</time>
      </trkpt>
      <trkpt lat="47.563941" lon="7.840948">
        <ele>305.171057</ele>
        <time>2021-11-21T08:18:09.127Z</time>
      </trkpt>
      <trkpt lat="47.563986" lon="7.840916">
        <ele>305.117180</ele>
        <time>2021-11-21T08:18:09.747Z</time>
      </trkpt>
      <trkpt lat="47.564094" lon="7.840838">
        <ele>304.987495</ele>
        <time>2021-11-21T08:18:11.216Z</time>
      </trkpt>
      <trkpt lat="47.564463" lon="7.840580">
        <ele>304.547082</ele>
        <time>2021-11-21T08:18:16.203Z</time>
      </trkpt>
      <trkpt lat="47.564534" lon="7.840532">
        <ele>304.462845</ele>
        <time>2021-11-21T08:18:17.110Z</time>
      </trkpt>
      <trkpt lat="47.564558" lon="7.840516">
        <ele>304.434438</ele>
        <time>2021-11-21T08:18:17.434Z</time>
      </trkpt>
      <trkpt lat="47.564936" lon="7.840261">
        <ele>303.986131</ele>
        <time>2021-11-21T08:18:22.336Z</time>
      </trkpt>
      <trkpt lat="47.565057" lon="7.840213">
        <ele>303.852370</ele>
        <time>2021-11-21T08:18:23.749Z</time>
      </trkpt>
      <trkpt lat="47.565168" lon="7.840179">
        <ele>303.733026</ele>
        <time>2021-11-21T08:18:25.090Z</time>
      </trkpt>
      <trkpt lat="47.565233" lon="7.840176">
        <ele>303.664554</ele>
        <time>2021-11-21T08:18:25.826Z</time>
      </trkpt>
      <trkpt lat="47.565343" lon="7.840185">
        <ele>303.548557</ele>
        <time>2021-11-21T08:18:27.086Z</time>
      </trkpt>
      <trkpt lat="47.565906" lon="7.840272">
        <ele>302.952552</ele>
        <time>2021-11-21T08:18:33.947Z</time>
      </trkpt>
      <trkpt lat="47.566081" lon="7.840309">
        <ele>302.766426</ele>
        <time>2021-11-21T08:18:36.089Z</time>
      </trkpt>
      <trkpt lat="47.566142" lon="7.840322">
        <ele>302.701537</ele>
        <time>2021-11-21T08:18:36.772Z</time>
      </trkpt>
      <trkpt lat="47.566221" lon="7.840340">
        <ele>302.617380</ele>
        <time>2021-11-21T08:18:37.969Z</time>
      </trkpt>
      <trkpt lat="47.566350" lon="7.840350">
        <ele>302.481368</ele>
        <time>2021-11-21T08:18:39.658Z</time>
      </trkpt>
      <trkpt lat="47.566450" lon="7.840326">
        <ele>302.374705</ele>
        <time>2021-11-21T08:18:40.882Z</time>
      </trkpt>
      <trkpt lat="47.566515" lon="7.840312">
        <ele>302.305546</ele>
        <time>2021-11-21T08:18:41.628Z</time>
      </trkpt>
      <trkpt lat="47.566592" lon="7.840279">
        <ele>302.221150</ele>
        <time>2021-11-21T08:18:42.818Z</time>
      </trkpt>
      <trkpt lat="47.566826" lon="7.840179">
        <ele>301.987696</ele>
        <time>2021-11-21T08:18:45.752Z</time>
      </trkpt>
      <trkpt lat="47.567111" lon="7.839998">
        <ele>301.807245</ele>
        <time>2021-11-21T08:18:49.778Z</time>
      </trkpt>
      <trkpt lat="47.567406" lon="7.839778">
        <ele>301.615052</ele>
        <time>2021-11-21T08:18:54.030Z</time>
      </trkpt>
      <trkpt lat="47.567481" lon="7.839664">
        <ele>301.552529</ele>
        <time>2021-11-21T08:18:55.268Z</time>
      </trkpt>
      <trkpt lat="47.567510" lon="7.839548">
        <ele>301.503953</ele>
        <time>2021-11-21T08:18:56.546Z</time>
      </trkpt>
      <trkpt lat="47.567530" lon="7.839459">
        <ele>301.467118</ele>
        <time>2021-11-21T08:18:57.401Z</time>
      </trkpt>
      <trkpt lat="47.567564" lon="7.839283">
        <ele>301.395230</ele>
        <time>2021-11-21T08:18:59.055Z</time>
      </trkpt>
      <trkpt lat="47.567626" lon="7.839064">
        <ele>301.301972</ele>
        <time>2021-11-21T08:19:01.201Z</time>
      </trkpt>
      <trkpt lat="47.567634" lon="7.839037">
        <ele>301.290392</ele>
        <time>2021-11-21T08:19:01.442Z</time>
      </trkpt>
      <trkpt lat="47.567823" lon="7.838648">
        <ele>301.102161</ele>
        <time>2021-11-21T08:19:06.015Z</time>
      </trkpt>
      <trkpt lat="47.567846" lon="7.838609">
        <ele>301.081821</ele>
        <time>2021-11-21T08:19:06.470Z</time>
      </trkpt>
      <trkpt lat="47.567936" lon="7.838380">
        <ele>300.977757</ele>
        <time>2021-11-21T08:19:09.050Z</time>
      </trkpt>
      <trkpt lat="47.567961" lon="7.838248">
        <ele>300.913828</ele>
        <time>2021-11-21T08:19:10.225Z</time>
      </trkpt>
      <trkpt lat="47.567944" lon="7.838073">
        <ele>300.828961</ele>
        <time>2021-11-21T08:19:11.787Z</time>
      </trkpt>
      <trkpt lat="47.567822" lon="7.837479">
        <ele>300.530922</ele>
        <time>2021-11-21T08:19:17.026Z</time>
      </trkpt>
      <trkpt lat="47.567670" lon="7.836721">
        <ele>300.151349</ele>
        <time>2021-11-21T08:19:23.650Z</time>
      </trkpt>
      <trkpt lat="47.567647" lon="7.836576">
        <ele>300.079851</ele>
        <time>2021-11-21T08:19:24.906Z</time>
      </trkpt>
      <trkpt lat="47.567583" lon="7.836155">
        <ele>299.872702</ele>
        <time>2021-11-21T08:19:28.609Z</time>
      </trkpt>
      <trkpt lat="47.567574" lon="7.835994">
        <ele>299.795157</ele>
        <time>2021-11-21T08:19:30.017Z</time>
      </trkpt>
      <trkpt lat="47.567562" lon="7.835760">
        <ele>299.684265</ele>
        <time>2021-11-21T08:19:32.061Z</time>
      </trkpt>
      <trkpt lat="47.567566" lon="7.835567">
        <ele>299.614118</ele>
        <time>2021-11-21T08:19:33.721Z</time>
      </trkpt>
      <trkpt lat="47.567674" lon="7.835182">
        <ele>299.462648</ele>
        <time>2021-11-21T08:19:37.373Z</time>
      </trkpt>
      <trkpt lat="47.567558" lon="7.835042">
        <ele>299.382103</ele>
        <time>2021-11-21T08:19:39.348Z</time>
      </trkpt>
      <trkpt lat="47.567179" lon="7.834275">
        <ele>299.036732</ele>
        <time>2021-11-21T08:19:47.700Z</time>
      </trkpt>
      <trkpt lat="47.566744" lon="7.833235">
        <ele>298.709328</ele>
        <time>2021-11-21T08:19:58.903Z</time>
      </trkpt>
      <trkpt lat="47.566366" lon="7.832333">
        <ele>298.673562</ele>
        <time>2021-11-21T08:20:09.171Z</time>
      </trkpt>
      <trkpt lat="47.566013" lon="7.831442">
        <ele>298.638758</ele>
        <time>2021-11-21T08:20:19.844Z</time>
      </trkpt>
      <trkpt lat="47.565741" lon="7.830588">
        <ele>298.766632</ele>
        <time>2021-11-21T08:20:29.625Z</time>
      </trkpt>
      <trkpt lat="47.565639" lon="7.830099">
        <ele>298.861498</ele>
        <time>2021-11-21T08:20:35.183Z</time>
      </trkpt>
      <trkpt lat="47.565511" lon="7.829497">
        <ele>298.978486</ele>
        <time>2021-11-21T08:20:42.084Z</time>
      </trkpt>
      <trkpt lat="47.565384" lon="7.828869">
        <ele>299.099999</ele>
        <time>2021-11-21T08:20:49.100Z</time>
      </trkpt>
      <trkpt lat="47.565225" lon="7.828079">
        <ele>299.797568</ele>
        <time>2021-11-21T08:20:57.813Z</time>
      </trkpt>
      <trkpt lat="47.565215" lon="7.828033">
        <ele>299.844882</ele>
        <time>2021-11-21T08:20:58.325Z</time>
      </trkpt>
      <trkpt lat="47.565115" lon="7.827488">
        <ele>300.397821</ele>
        <time>2021-11-21T08:21:05.123Z</time>
      </trkpt>
      <trkpt lat="47.565054" lon="7.827194">
        <ele>300.698951</ele>
        <time>2021-11-21T08:21:09.096Z</time>
      </trkpt>
      <trkpt lat="47.564863" lon="7.826667">
        <ele>301.284610</ele>
        <time>2021-11-21T08:21:18.451Z</time>
      </trkpt>
      <trkpt lat="47.564836" lon="7.826621">
        <ele>301.344299</ele>
        <time>2021-11-21T08:21:19.429Z</time>
      </trkpt>
      <trkpt lat="47.564805" lon="7.826569">
        <ele>301.412231</ele>
        <time>2021-11-21T08:21:20.638Z</time>
      </trkpt>
      <trkpt lat="47.564837" lon="7.826491">
        <ele>301.501602</ele>
        <time>2021-11-21T08:21:22.627Z</time>
      </trkpt>
      <trkpt lat="47.564804" lon="7.826144">
        <ele>302.003469</ele>
        <time>2021-11-21T08:21:30.505Z</time>
      </trkpt>
      <trkpt lat="47.564761" lon="7.826044">
        <ele>302.288054</ele>
        <time>2021-11-21T08:21:33.132Z</time>
      </trkpt>
      <trkpt lat="47.564726" lon="7.825870">
        <ele>302.723805</ele>
        <time>2021-11-21T08:21:37.615Z</time>
      </trkpt>
      <trkpt lat="47.564632" lon="7.824882">
        <ele>305.118415</ele>
        <time>2021-11-21T08:22:01.791Z</time>
      </trkpt>
      <trkpt lat="47.564621" lon="7.824630">
        <ele>305.724469</ele>
        <time>2021-11-21T08:22:08.421Z</time>
      </trkpt>
      <trkpt lat="47.564603" lon="7.824196">
        <ele>306.768016</ele>
        <time>2021-11-21T08:22:19.007Z</time>
      </trkpt>
      <trkpt lat="47.564596" lon="7.823971">
        <ele>307.308580</ele>
        <time>2021-11-21T08:22:24.234Z</time>
      </trkpt>
      <trkpt lat="47.564551" lon="7.823574">
        <ele>308.181594</ele>
        <time>2021-11-21T08:22:34.473Z</time>
      </trkpt>
      <trkpt lat="47.564531" lon="7.823338">
        <ele>308.378320</ele>
        <time>2021-11-21T08:22:39.843Z</time>
      </trkpt>
      <trkpt lat="47.564338" lon="7.820810">
        <ele>310.182181</ele>
        <time>2021-11-21T08:23:20.632Z</time>
      </trkpt>
      <trkpt lat="47.564264" lon="7.820324">
        <ele>309.741968</ele>
        <time>2021-11-21T08:23:26.163Z</time>
      </trkpt>
      <trkpt lat="47.564207" lon="7.820139">
        <ele>309.562272</ele>
        <time>2021-11-21T08:23:28.366Z</time>
      </trkpt>
      <trkpt lat="47.564083" lon="7.819689">
        <ele>309.132787</ele>
        <time>2021-11-21T08:23:33.647Z</time>
      </trkpt>
      <trkpt lat="47.563846" lon="7.818890">
        <ele>308.361607</ele>
        <time>2021-11-21T08:23:43.091Z</time>
      </trkpt>
      <trkpt lat="47.563292" lon="7.817642">
        <ele>307.177740</ele>
        <time>2021-11-21T08:23:59.248Z</time>
      </trkpt>
      <trkpt lat="47.562585" lon="7.816208">
        <ele>306.019584</ele>
        <time>2021-11-21T08:24:20.441Z</time>
      </trkpt>
      <trkpt lat="47.562165" lon="7.815429">
        <ele>306.316058</ele>
        <time>2021-11-21T08:24:34.733Z</time>
      </trkpt>
      <trkpt lat="47.561915" lon="7.815075">
        <ele>306.468418</ele>
        <time>2021-11-21T08:24:42.720Z</time>
      </trkpt>
      <trkpt lat="47.561796" lon="7.814938">
        <ele>306.534816</ele>
        <time>2021-11-21T08:24:46.336Z</time>
      </trkpt>
      <trkpt lat="47.561285" lon="7.814314">
        <ele>306.797497</ele>
        <time>2021-11-21T08:25:02.406Z</time>
      </trkpt>
      <trkpt lat="47.561222" lon="7.814241">
        <ele>306.817308</ele>
        <time>2021-11-21T08:25:04.533Z</time>
      </trkpt>
      <trkpt lat="47.560566" lon="7.813439">
        <ele>307.027984</ele>
        <time>2021-11-21T08:25:25.117Z</time>
      </trkpt>
      <trkpt lat="47.560089" lon="7.812856">
        <ele>307.181156</ele>
        <time>2021-11-21T08:25:36.542Z</time>
      </trkpt>
      <trkpt lat="47.559685" lon="7.812338">
        <ele>305.974093</ele>
        <time>2021-11-21T08:25:45.455Z</time>
      </trkpt>
      <trkpt lat="47.559556" lon="7.812039">
        <ele>305.296069</ele>
        <time>2021-11-21T08:25:49.253Z</time>
      </trkpt>
      <trkpt lat="47.559352" lon="7.811707">
        <ele>304.438213</ele>
        <time>2021-11-21T08:25:53.901Z</time>
      </trkpt>
      <trkpt lat="47.559226" lon="7.811439">
        <ele>303.814171</ele>
        <time>2021-11-21T08:26:16.400Z</time>
      </trkpt>
      <trkpt lat="47.559209" lon="7.811347">
        <ele>303.631929</ele>
        <time>2021-11-21T08:26:22.717Z</time>
      </trkpt>
      <trkpt lat="47.559195" lon="7.811248">
        <ele>303.438675</ele>
        <time>2021-11-21T08:26:29.036Z</time>
      </trkpt>
      <trkpt lat="47.559245" lon="7.811179">
        <ele>303.245238</ele>
        <time>2021-11-21T08:26:29.739Z</time>
      </trkpt>
      <trkpt lat="47.559268" lon="7.811124">
        <ele>303.121617</ele>
        <time>2021-11-21T08:26:30.173Z</time>
      </trkpt>
      <trkpt lat="47.559276" lon="7.811047">
        <ele>302.972771</ele>
        <time>2021-11-21T08:26:30.699Z</time>
      </trkpt>
      <trkpt lat="47.559247" lon="7.810496">
        <ele>301.806742</ele>
        <time>2021-11-21T08:26:34.269Z</time>
      </trkpt>
      <trkpt lat="47.559164" lon="7.809586">
        <ele>299.069653</ele>
        <time>2021-11-21T08:26:40.007Z</time>
      </trkpt>
      <trkpt lat="47.559156" lon="7.809491">
        <ele>298.784291</ele>
        <time>2021-11-21T08:26:40.640Z</time>
      </trkpt>
      <trkpt lat="47.559157" lon="7.809330">
        <ele>298.304380</ele>
        <time>2021-11-21T08:26:41.703Z</time>
      </trkpt>
      <trkpt lat="47.559196" lon="7.809136">
        <ele>297.701013</ele>
        <time>2021-11-21T08:26:42.961Z</time>
      </trkpt>
      <trkpt lat="47.559398" lon="7.808498">
        <ele>295.600432</ele>
        <time>2021-11-21T08:26:47.729Z</time>
      </trkpt>
      <trkpt lat="47.559543" lon="7.807995">
        <ele>293.986605</ele>
        <time>2021-11-21T08:26:51.379Z</time>
      </trkpt>
      <trkpt lat="47.559784" lon="7.806908">
        <ele>290.859555</ele>
        <time>2021-11-21T08:26:58.883Z</time>
      </trkpt>
      <trkpt lat="47.559871" lon="7.806594">
        <ele>289.931863</ele>
        <time>2021-11-21T08:27:01.246Z</time>
      </trkpt>
      <trkpt lat="47.559953" lon="7.806216">
        <ele>288.846710</ele>
        <time>2021-11-21T08:27:03.798Z</time>
      </trkpt>
      <trkpt lat="47.559988" lon="7.806036">
        <ele>288.334750</ele>
        <time>2021-11-21T08:27:05.036Z</time>
      </trkpt>
      <trkpt lat="47.560019" lon="7.805927">
        <ele>288.011474</ele>
        <time>2021-11-21T08:27:05.760Z</time>
      </trkpt>
      <trkpt lat="47.560083" lon="7.805827">
        <ele>287.634805</ele>
        <time>2021-11-21T08:27:06.659Z</time>
      </trkpt>
      <trkpt lat="47.560094" lon="7.805813">
        <ele>287.576079</ele>
        <time>2021-11-21T08:27:06.814Z</time>
      </trkpt>
      <trkpt lat="47.560351" lon="7.805494">
        <ele>286.166481</ele>
        <time>2021-11-21T08:27:10.077Z</time>
      </trkpt>
      <trkpt lat="47.560401" lon="7.805409">
        <ele>285.834312</ele>
        <time>2021-11-21T08:27:10.868Z</time>
      </trkpt>
      <trkpt lat="47.560439" lon="7.805345">
        <ele>285.583193</ele>
        <time>2021-11-21T08:27:11.451Z</time>
      </trkpt>
      <trkpt lat="47.560542" lon="7.805124">
        <ele>284.791998</ele>
        <time>2021-11-21T08:27:13.124Z</time>
      </trkpt>
      <trkpt lat="47.560682" lon="7.804798">
        <ele>283.653703</ele>
        <time>2021-11-21T08:27:15.689Z</time>
      </trkpt>
      <trkpt lat="47.560742" lon="7.804662">
        <ele>283.175058</ele>
        <time>2021-11-21T08:27:16.675Z</time>
      </trkpt>
      <trkpt lat="47.560877" lon="7.804360">
        <ele>282.107950</ele>
        <time>2021-11-21T08:27:19.063Z</time>
      </trkpt>
      <trkpt lat="47.560963" lon="7.804183">
        <ele>281.465458</ele>
        <time>2021-11-21T08:27:20.422Z</time>
      </trkpt>
      <trkpt lat="47.561088" lon="7.803899">
        <ele>280.466640</ele>
        <time>2021-11-21T08:27:22.664Z</time>
      </trkpt>
      <trkpt lat="47.561332" lon="7.803393">
        <ele>278.856964</ele>
        <time>2021-11-21T08:27:26.669Z</time>
      </trkpt>
      <trkpt lat="47.561376" lon="7.803302">
        <ele>278.711378</ele>
        <time>2021-11-21T08:27:27.400Z</time>
      </trkpt>
      <trkpt lat="47.561404" lon="7.803234">
        <ele>278.607783</ele>
        <time>2021-11-21T08:27:27.939Z</time>
      </trkpt>
      <trkpt lat="47.561371" lon="7.803208">
        <ele>278.535757</ele>
        <time>2021-11-21T08:27:28.367Z</time>
      </trkpt>
      <trkpt lat="47.561177" lon="7.803075">
        <ele>278.123814</ele>
        <time>2021-11-21T08:27:30.550Z</time>
      </trkpt>
      <trkpt lat="47.560680" lon="7.802756">
        <ele>277.080023</ele>
        <time>2021-11-21T08:27:36.572Z</time>
      </trkpt>
      <trkpt lat="47.560399" lon="7.802597">
        <ele>276.500351</ele>
        <time>2021-11-21T08:27:40.253Z</time>
      </trkpt>
      <trkpt lat="47.559650" lon="7.802247">
        <ele>275.423844</ele>
        <time>2021-11-21T08:27:50.548Z</time>
      </trkpt>
      <trkpt lat="47.559570" lon="7.802197">
        <ele>275.382690</ele>
        <time>2021-11-21T08:27:51.657Z</time>
      </trkpt>
      <trkpt lat="47.559348" lon="7.802101">
        <ele>275.273075</ele>
        <time>2021-11-21T08:27:54.663Z</time>
      </trkpt>
      <trkpt lat="47.559183" lon="7.802020">
        <ele>275.190686</ele>
        <time>2021-11-21T08:27:56.983Z</time>
      </trkpt>
      <trkpt lat="47.559117" lon="7.801986">
        <ele>275.157566</ele>
        <time>2021-11-21T08:27:57.938Z</time>
      </trkpt>
      <trkpt lat="47.558842" lon="7.801839">
        <ele>275.018997</ele>
        <time>2021-11-21T08:28:01.801Z</time>
      </trkpt>
      <trkpt lat="47.558522" lon="7.801649">
        <ele>274.855596</ele>
        <time>2021-11-21T08:28:06.485Z</time>
      </trkpt>
      <trkpt lat="47.558430" lon="7.801574">
        <ele>274.805825</ele>
        <time>2021-11-21T08:28:07.995Z</time>
      </trkpt>
      <trkpt lat="47.558362" lon="7.801501">
        <ele>274.766024</ele>
        <time>2021-11-21T08:28:09.023Z</time>
      </trkpt>
      <trkpt lat="47.557814" lon="7.800795">
        <ele>274.781463</ele>
        <time>2021-11-21T08:28:19.242Z</time>
      </trkpt>
      <trkpt lat="47.557657" lon="7.800590">
        <ele>274.804430</ele>
        <time>2021-11-21T08:28:22.463Z</time>
      </trkpt>
      <trkpt lat="47.557599" lon="7.800515">
        <ele>274.812880</ele>
        <time>2021-11-21T08:28:23.532Z</time>
      </trkpt>
      <trkpt lat="47.556439" lon="7.798992">
        <ele>275.114013</ele>
        <time>2021-11-21T08:28:49.240Z</time>
      </trkpt>
      <trkpt lat="47.556381" lon="7.798915">
        <ele>275.138174</ele>
        <time>2021-11-21T08:28:50.652Z</time>
      </trkpt>
      <trkpt lat="47.556336" lon="7.798855">
        <ele>275.156956</ele>
        <time>2021-11-21T08:28:51.748Z</time>
      </trkpt>
      <trkpt lat="47.556240" lon="7.798728">
        <ele>275.196884</ele>
        <time>2021-11-21T08:28:54.059Z</time>
      </trkpt>
      <trkpt lat="47.556112" lon="7.798538">
        <ele>275.253096</ele>
        <time>2021-11-21T08:28:57.379Z</time>
      </trkpt>
      <trkpt lat="47.555842" lon="7.798140">
        <ele>275.371257</ele>
        <time>2021-11-21T08:29:03.540Z</time>
      </trkpt>
      <trkpt lat="47.555489" lon="7.797497">
        <ele>275.311332</ele>
        <time>2021-11-21T08:29:11.134Z</time>
      </trkpt>
      <trkpt lat="47.555293" lon="7.797049">
        <ele>275.077440</ele>
        <time>2021-11-21T08:29:15.690Z</time>
      </trkpt>
      <trkpt lat="47.555263" lon="7.796971">
        <ele>275.038110</ele>
        <time>2021-11-21T08:29:16.519Z</time>
      </trkpt>
      <trkpt lat="47.555486" lon="7.796849">
        <ele>274.883803</ele>
        <time>2021-11-21T08:29:20.736Z</time>
      </trkpt>
      <trkpt lat="47.555544" lon="7.796747">
        <ele>274.825372</ele>
        <time>2021-11-21T08:29:22.353Z</time>
      </trkpt>
      <trkpt lat="47.555529" lon="7.796462">
        <ele>274.700141</ele>
        <time>2021-11-21T08:29:24.799Z</time>
      </trkpt>
      <trkpt lat="47.555492" lon="7.796158">
        <ele>274.564816</ele>
        <time>2021-11-21T08:29:27.507Z</time>
      </trkpt>
      <trkpt lat="47.555467" lon="7.795984">
        <ele>274.486881</ele>
        <time>2021-11-21T08:29:28.950Z</time>
      </trkpt>
      <trkpt lat="47.555454" lon="7.795902">
        <ele>274.449981</ele>
        <time>2021-11-21T08:29:29.989Z</time>
      </trkpt>
      <trkpt lat="47.555444" lon="7.795749">
        <ele>274.382641</ele>
        <time>2021-11-21T08:29:31.850Z</time>
      </trkpt>
      <trkpt lat="47.555456" lon="7.795684">
        <ele>274.353120</ele>
        <time>2021-11-21T08:29:32.674Z</time>
      </trkpt>
      <trkpt lat="47.555451" lon="7.795635">
        <ele>274.331410</ele>
        <time>2021-11-21T08:29:33.319Z</time>
      </trkpt>
      <trkpt lat="47.555438" lon="7.795535">
        <ele>274.282851</ele>
        <time>2021-11-21T08:29:34.470Z</time>
      </trkpt>
      <trkpt lat="47.555436" lon="7.795522">
        <ele>274.275469</ele>
        <time>2021-11-21T08:29:34.637Z</time>
      </trkpt>
      <trkpt lat="47.555432" lon="7.795493">
        <ele>274.259083</ele>
        <time>2021-11-21T08:29:34.966Z</time>
      </trkpt>
      <trkpt lat="47.555308" lon="7.794498">
        <ele>273.698937</ele>
        <time>2021-11-21T08:29:46.897Z</time>
      </trkpt>
      <trkpt lat="47.555288" lon="7.794496">
        <ele>273.682494</ele>
        <time>2021-11-21T08:29:47.279Z</time>
      </trkpt>
      <trkpt lat="47.555288" lon="7.794318">
        <ele>273.583953</ele>
        <time>2021-11-21T08:29:51.479Z</time>
      </trkpt>
      <trkpt lat="47.555282" lon="7.794033">
        <ele>273.426100</ele>
        <time>2021-11-21T08:29:58.046Z</time>
      </trkpt>
      <trkpt lat="47.555281" lon="7.793955">
        <ele>273.382911</ele>
        <time>2021-11-21T08:29:59.887Z</time>
      </trkpt>
      <trkpt lat="47.555274" lon="7.793423">
        <ele>273.088339</ele>
        <time>2021-11-21T08:30:12.526Z</time>
      </trkpt>
      <trkpt lat="47.555277" lon="7.793131">
        <ele>272.926668</ele>
        <time>2021-11-21T08:30:19.574Z</time>
      </trkpt>
      <trkpt lat="47.555237" lon="7.792734">
        <ele>272.499760</ele>
        <time>2021-11-21T08:30:28.825Z</time>
      </trkpt>
      <trkpt lat="47.555127" lon="7.792307">
        <ele>271.821795</ele>
        <time>2021-11-21T08:30:38.804Z</time>
      </trkpt>
      <trkpt lat="47.555085" lon="7.792163">
        <ele>271.589098</ele>
        <time>2021-11-21T08:30:42.357Z</time>
      </trkpt>
      <trkpt lat="47.555027" lon="7.791948">
        <ele>271.245642</ele>
        <time>2021-11-21T08:30:47.157Z</time>
      </trkpt>
      <trkpt lat="47.554911" lon="7.791459">
        <ele>270.476777</ele>
        <time>2021-11-21T08:30:57.951Z</time>
      </trkpt>
      <trkpt lat="47.554756" lon="7.790897">
        <ele>269.576205</ele>
        <time>2021-11-21T08:31:10.250Z</time>
      </trkpt>
      <trkpt lat="47.554788" lon="7.790844">
        <ele>269.470717</ele>
        <time>2021-11-21T08:31:11.618Z</time>
      </trkpt>
      <trkpt lat="47.554858" lon="7.790696">
        <ele>269.202634</ele>
        <time>2021-11-21T08:31:15.413Z</time>
      </trkpt>
      <trkpt lat="47.554865" lon="7.790678">
        <ele>269.171818</ele>
        <time>2021-11-21T08:31:15.772Z</time>
      </trkpt>
      <trkpt lat="47.554999" lon="7.790090">
        <ele>268.572538</ele>
        <time>2021-11-21T08:31:28.033Z</time>
      </trkpt>
      <trkpt lat="47.555031" lon="7.789894">
        <ele>268.427988</ele>
        <time>2021-11-21T08:31:31.938Z</time>
      </trkpt>
      <trkpt lat="47.555052" lon="7.789771">
        <ele>268.337042</ele>
        <time>2021-11-21T08:31:34.483Z</time>
      </trkpt>
      <trkpt lat="47.555062" lon="7.789726">
        <ele>268.303081</ele>
        <time>2021-11-21T08:31:35.478Z</time>
      </trkpt>
      <trkpt lat="47.555085" lon="7.789685">
        <ele>268.264864</ele>
        <time>2021-11-21T08:31:36.582Z</time>
      </trkpt>
      <trkpt lat="47.555936" lon="7.788828">
        <ele>267.171989</ele>
        <time>2021-11-21T08:32:11.298Z</time>
      </trkpt>
      <trkpt lat="47.556069" lon="7.788614">
        <ele>266.963455</ele>
        <time>2021-11-21T08:32:15.659Z</time>
      </trkpt>
      <trkpt lat="47.556111" lon="7.788537">
        <ele>267.201006</ele>
        <time>2021-11-21T08:32:17.197Z</time>
      </trkpt>
      <trkpt lat="47.556137" lon="7.788488">
        <ele>267.352922</ele>
        <time>2021-11-21T08:32:18.364Z</time>
      </trkpt>
      <trkpt lat="47.556249" lon="7.788270">
        <ele>268.020673</ele>
        <time>2021-11-21T08:32:23.353Z</time>
      </trkpt>
      <trkpt lat="47.556357" lon="7.788058">
        <ele>268.668044</ele>
        <time>2021-11-21T08:32:28.393Z</time>
      </trkpt>
      <trkpt lat="47.556539" lon="7.787710">
        <ele>269.741056</ele>
        <time>2021-11-21T08:32:37.058Z</time>
      </trkpt>
      <trkpt lat="47.556658" lon="7.787468">
        <ele>270.470818</ele>
        <time>2021-11-21T08:32:43.487Z</time>
      </trkpt>
      <trkpt lat="47.556783" lon="7.787207">
        <ele>271.250826</ele>
        <time>2021-11-21T08:32:50.382Z</time>
      </trkpt>
      <trkpt lat="47.556917" lon="7.786943">
        <ele>272.055914</ele>
        <time>2021-11-21T08:32:57.834Z</time>
      </trkpt>
      <trkpt lat="47.557019" lon="7.786803">
        <ele>272.558020</ele>
        <time>2021-11-21T08:33:02.641Z</time>
      </trkpt>
      <trkpt lat="47.557118" lon="7.786638">
        <ele>273.096106</ele>
        <time>2021-11-21T08:33:07.887Z</time>
      </trkpt>
      <trkpt lat="47.557180" lon="7.786638">
        <ele>273.320012</ele>
        <time>2021-11-21T08:33:09.928Z</time>
      </trkpt>
      <trkpt lat="47.557276" lon="7.786622">
        <ele>273.618453</ele>
        <time>2021-11-21T08:33:13.429Z</time>
      </trkpt>
      <trkpt lat="47.557490" lon="7.786586">
        <ele>274.210050</ele>
        <time>2021-11-21T08:33:20.878Z</time>
      </trkpt>
      <trkpt lat="47.557562" lon="7.786575">
        <ele>274.408870</ele>
        <time>2021-11-21T08:33:23.163Z</time>
      </trkpt>
      <trkpt lat="47.557711" lon="7.786536">
        <ele>274.824483</ele>
        <time>2021-11-21T08:33:27.986Z</time>
      </trkpt>
      <trkpt lat="47.557823" lon="7.786486">
        <ele>275.145786</ele>
        <time>2021-11-21T08:33:31.591Z</time>
      </trkpt>
      <trkpt lat="47.557901" lon="7.786427">
        <ele>275.386339</ele>
        <time>2021-11-21T08:33:33.992Z</time>
      </trkpt>
      <trkpt lat="47.557921" lon="7.786413">
        <ele>275.447096</ele>
        <time>2021-11-21T08:33:34.631Z</time>
      </trkpt>
      <trkpt lat="47.558006" lon="7.786349">
        <ele>275.708988</ele>
        <time>2021-11-21T08:33:37.232Z</time>
      </trkpt>
      <trkpt lat="47.558071" lon="7.786282">
        <ele>275.926480</ele>
        <time>2021-11-21T08:33:39.290Z</time>
      </trkpt>
      <trkpt lat="47.558166" lon="7.786166">
        <ele>276.264608</ele>
        <time>2021-11-21T08:33:42.319Z</time>
      </trkpt>
      <trkpt lat="47.558367" lon="7.785913">
        <ele>276.989017</ele>
        <time>2021-11-21T08:33:48.322Z</time>
      </trkpt>
      <trkpt lat="47.558577" lon="7.785598">
        <ele>277.809797</ele>
        <time>2021-11-21T08:33:54.096Z</time>
      </trkpt>
      <trkpt lat="47.558660" lon="7.785434">
        <ele>278.189789</ele>
        <time>2021-11-21T08:33:56.551Z</time>
      </trkpt>
      <trkpt lat="47.558747" lon="7.785215">
        <ele>278.449513</ele>
        <time>2021-11-21T08:33:59.552Z</time>
      </trkpt>
      <trkpt lat="47.558782" lon="7.785128">
        <ele>278.485866</ele>
        <time>2021-11-21T08:34:00.759Z</time>
      </trkpt>
      <trkpt lat="47.558822" lon="7.785030">
        <ele>278.526972</ele>
        <time>2021-11-21T08:34:02.100Z</time>
      </trkpt>
      <trkpt lat="47.558920" lon="7.784817">
        <ele>278.619497</ele>
        <time>2021-11-21T08:34:05.077Z</time>
      </trkpt>
      <trkpt lat="47.558986" lon="7.784674">
        <ele>278.681677</ele>
        <time>2021-11-21T08:34:07.051Z</time>
      </trkpt>
      <trkpt lat="47.559008" lon="7.784639">
        <ele>278.698844</ele>
        <time>2021-11-21T08:34:07.591Z</time>
      </trkpt>
      <trkpt lat="47.559117" lon="7.784473">
        <ele>278.781972</ele>
        <time>2021-11-21T08:34:10.220Z</time>
      </trkpt>
      <trkpt lat="47.559229" lon="7.784376">
        <ele>278.850967</ele>
        <time>2021-11-21T08:34:12.421Z</time>
      </trkpt>
      <trkpt lat="47.559319" lon="7.784326">
        <ele>278.902086</ele>
        <time>2021-11-21T08:34:14.039Z</time>
      </trkpt>
      <trkpt lat="47.559415" lon="7.784281">
        <ele>278.955637</ele>
        <time>2021-11-21T08:34:15.755Z</time>
      </trkpt>
      <trkpt lat="47.559876" lon="7.784127">
        <ele>279.206972</ele>
        <time>2021-11-21T08:34:23.674Z</time>
      </trkpt>
      <trkpt lat="47.560427" lon="7.783951">
        <ele>279.461226</ele>
        <time>2021-11-21T08:34:32.643Z</time>
      </trkpt>
      <trkpt lat="47.560877" lon="7.783815">
        <ele>279.632027</ele>
        <time>2021-11-21T08:34:39.750Z</time>
      </trkpt>
      <trkpt lat="47.561041" lon="7.783716">
        <ele>279.697885</ele>
        <time>2021-11-21T08:34:42.430Z</time>
      </trkpt>
      <trkpt lat="47.561312" lon="7.783440">
        <ele>279.820176</ele>
        <time>2021-11-21T08:34:47.732Z</time>
      </trkpt>
      <trkpt lat="47.561406" lon="7.783302">
        <ele>279.869385</ele>
        <time>2021-11-21T08:34:49.926Z</time>
      </trkpt>
      <trkpt lat="47.561610" lon="7.782977">
        <ele>279.980777</ele>
        <time>2021-11-21T08:34:54.971Z</time>
      </trkpt>
      <trkpt lat="47.561822" lon="7.782640">
        <ele>280.189886</ele>
        <time>2021-11-21T08:35:00.477Z</time>
      </trkpt>
      <trkpt lat="47.561943" lon="7.782422">
        <ele>280.352562</ele>
        <time>2021-11-21T08:35:03.943Z</time>
      </trkpt>
      <trkpt lat="47.562099" lon="7.782166">
        <ele>280.551350</ele>
        <time>2021-11-21T08:35:08.146Z</time>
      </trkpt>
      <trkpt lat="47.562657" lon="7.781311">
        <ele>281.236841</ele>
        <time>2021-11-21T08:35:22.473Z</time>
      </trkpt>
      <trkpt lat="47.562775" lon="7.781130">
        <ele>281.381882</ele>
        <time>2021-11-21T08:35:25.619Z</time>
      </trkpt>
      <trkpt lat="47.563211" lon="7.780461">
        <ele>282.131427</ele>
        <time>2021-11-21T08:35:38.240Z</time>
      </trkpt>
      <trkpt lat="47.563299" lon="7.780330">
        <ele>282.301591</ele>
        <time>2021-11-21T08:35:40.765Z</time>
      </trkpt>
      <trkpt lat="47.563386" lon="7.780199">
        <ele>282.470794</ele>
        <time>2021-11-21T08:35:43.441Z</time>
      </trkpt>
      <trkpt lat="47.563492" lon="7.780014">
        <ele>282.694211</ele>
        <time>2021-11-21T08:35:46.935Z</time>
      </trkpt>
      <trkpt lat="47.563533" lon="7.779944">
        <ele>282.779540</ele>
        <time>2021-11-21T08:35:48.198Z</time>
      </trkpt>
      <trkpt lat="47.563652" lon="7.779747">
        <ele>283.022940</ele>
        <time>2021-11-21T08:35:52.101Z</time>
      </trkpt>
      <trkpt lat="47.563793" lon="7.779659">
        <ele>283.231660</ele>
        <time>2021-11-21T08:35:56.168Z</time>
      </trkpt>
      <trkpt lat="47.563852" lon="7.779621">
        <ele>283.319424</ele>
        <time>2021-11-21T08:35:57.825Z</time>
      </trkpt>
      <trkpt lat="47.564045" lon="7.779513">
        <ele>283.600868</ele>
        <time>2021-11-21T08:36:03.416Z</time>
      </trkpt>
      <trkpt lat="47.564224" lon="7.779415">
        <ele>283.861198</ele>
        <time>2021-11-21T08:36:08.198Z</time>
      </trkpt>
      <trkpt lat="47.564392" lon="7.779326">
        <ele>284.062228</ele>
        <time>2021-11-21T08:36:12.645Z</time>
      </trkpt>
      <trkpt lat="47.564511" lon="7.779262">
        <ele>284.153980</ele>
        <time>2021-11-21T08:36:15.587Z</time>
      </trkpt>
      <trkpt lat="47.564641" lon="7.779193">
        <ele>284.254061</ele>
        <time>2021-11-21T08:36:18.754Z</time>
      </trkpt>
      <trkpt lat="47.564843" lon="7.779087">
        <ele>284.409373</ele>
        <time>2021-11-21T08:36:23.799Z</time>
      </trkpt>
      <trkpt lat="47.565063" lon="7.778945">
        <ele>284.583290</ele>
        <time>2021-11-21T08:36:29.465Z</time>
      </trkpt>
      <trkpt lat="47.565130" lon="7.778874">
        <ele>284.642987</ele>
        <time>2021-11-21T08:36:31.475Z</time>
      </trkpt>
      <trkpt lat="47.565373" lon="7.778616">
        <ele>284.859640</ele>
        <time>2021-11-21T08:36:38.556Z</time>
      </trkpt>
      <trkpt lat="47.565449" lon="7.778535">
        <ele>284.927487</ele>
        <time>2021-11-21T08:36:40.756Z</time>
      </trkpt>
      <trkpt lat="47.565525" lon="7.778440">
        <ele>284.999547</ele>
        <time>2021-11-21T08:36:42.973Z</time>
      </trkpt>
      <trkpt lat="47.565867" lon="7.778022">
        <ele>285.316788</ele>
        <time>2021-11-21T08:36:52.565Z</time>
      </trkpt>
      <trkpt lat="47.566303" lon="7.777491">
        <ele>285.175963</ele>
        <time>2021-11-21T08:37:04.143Z</time>
      </trkpt>
      <trkpt lat="47.566322" lon="7.777461">
        <ele>285.169036</ele>
        <time>2021-11-21T08:37:04.654Z</time>
      </trkpt>
      <trkpt lat="47.566608" lon="7.777148">
        <ele>285.080317</ele>
        <time>2021-11-21T08:37:11.421Z</time>
      </trkpt>
      <trkpt lat="47.566856" lon="7.776877">
        <ele>285.003427</ele>
        <time>2021-11-21T08:37:17.061Z</time>
      </trkpt>
      <trkpt lat="47.566976" lon="7.776804">
        <ele>284.971057</ele>
        <time>2021-11-21T08:37:19.450Z</time>
      </trkpt>
      <trkpt lat="47.567059" lon="7.776784">
        <ele>284.950073</ele>
        <time>2021-11-21T08:37:20.961Z</time>
      </trkpt>
      <trkpt lat="47.567068" lon="7.776814">
        <ele>284.944545</ele>
        <time>2021-11-21T08:37:21.386Z</time>
      </trkpt>
      <trkpt lat="47.567139" lon="7.776888">
        <ele>284.922885</ele>
        <time>2021-11-21T08:37:22.977Z</time>
      </trkpt>
      <trkpt lat="47.567219" lon="7.776864">
        <ele>284.902517</ele>
        <time>2021-11-21T08:37:24.475Z</time>
      </trkpt>
      <trkpt lat="47.567251" lon="7.776815">
        <ele>284.891035</ele>
        <time>2021-11-21T08:37:25.322Z</time>
      </trkpt>
      <trkpt lat="47.567375" lon="7.776915">
        <ele>284.864558</ele>
        <time>2021-11-21T08:37:27.910Z</time>
      </trkpt>
      <trkpt lat="47.567527" lon="7.777009">
        <ele>284.850748</ele>
        <time>2021-11-21T08:37:30.984Z</time>
      </trkpt>
      <trkpt lat="47.567775" lon="7.777141">
        <ele>284.828655</ele>
        <time>2021-11-21T08:37:35.943Z</time>
      </trkpt>
      <trkpt lat="47.568007" lon="7.777265">
        <ele>284.807977</ele>
        <time>2021-11-21T08:37:40.734Z</time>
      </trkpt>
      <trkpt lat="47.568609" lon="7.777805">
        <ele>284.748979</ele>
        <time>2021-11-21T08:37:55.172Z</time>
      </trkpt>
      <trkpt lat="47.568698" lon="7.777923">
        <ele>284.738967</ele>
        <time>2021-11-21T08:37:57.708Z</time>
      </trkpt>
      <trkpt lat="47.568776" lon="7.778000">
        <ele>284.731109</ele>
        <time>2021-11-21T08:37:59.646Z</time>
      </trkpt>
      <trkpt lat="47.568912" lon="7.778080">
        <ele>284.718841</ele>
        <time>2021-11-21T08:38:02.714Z</time>
      </trkpt>
      <trkpt lat="47.569010" lon="7.778085">
        <ele>284.755183</ele>
        <time>2021-11-21T08:38:04.806Z</time>
      </trkpt>
      <trkpt lat="47.569097" lon="7.778076">
        <ele>284.790968</ele>
        <time>2021-11-21T08:38:06.590Z</time>
      </trkpt>
      <trkpt lat="47.569206" lon="7.778065">
        <ele>284.835798</ele>
        <time>2021-11-21T08:38:08.895Z</time>
      </trkpt>
      <trkpt lat="47.569336" lon="7.778029">
        <ele>284.890064</ele>
        <time>2021-11-21T08:38:11.757Z</time>
      </trkpt>
      <trkpt lat="47.569597" lon="7.777946">
        <ele>284.999597</ele>
        <time>2021-11-21T08:38:17.495Z</time>
      </trkpt>
      <trkpt lat="47.569718" lon="7.777905">
        <ele>285.050528</ele>
        <time>2021-11-21T08:38:20.271Z</time>
      </trkpt>
      <trkpt lat="47.569718" lon="7.777905">
        <ele>285.050528</ele>
        <time>2021-11-21T08:38:20.305Z</time>
      </trkpt>
      <trkpt lat="47.569718" lon="7.777905">
        <ele>285.050528</ele>
        <time>2021-11-21T08:38:20.309Z</time>
      </trkpt>
      <trkpt lat="47.570668" lon="7.777751">
        <ele>285.442665</ele>
        <time>2021-11-21T08:38:41.786Z</time>
      </trkpt>
      <trkpt lat="47.571486" lon="7.777685">
        <ele>285.793581</ele>
        <time>2021-11-21T08:38:59.469Z</time>
      </trkpt>
      <trkpt lat="47.571758" lon="7.777656">
        <ele>285.910603</ele>
        <time>2021-11-21T08:39:05.232Z</time>
      </trkpt>
      <trkpt lat="47.571872" lon="7.777645">
        <ele>285.959625</ele>
        <time>2021-11-21T08:39:07.638Z</time>
      </trkpt>
      <trkpt lat="47.572400" lon="7.777595">
        <ele>286.186661</ele>
        <time>2021-11-21T08:39:19.061Z</time>
      </trkpt>
      <trkpt lat="47.572764" lon="7.777559">
        <ele>286.519638</ele>
        <time>2021-11-21T08:39:27.652Z</time>
      </trkpt>
      <trkpt lat="47.573335" lon="7.777667">
        <ele>287.145076</ele>
        <time>2021-11-21T08:39:41.934Z</time>
      </trkpt>
      <trkpt lat="47.573959" lon="7.777773">
        <ele>287.827508</ele>
        <time>2021-11-21T08:39:57.053Z</time>
      </trkpt>
      <trkpt lat="47.574028" lon="7.777785">
        <ele>287.902992</ele>
        <time>2021-11-21T08:39:59.322Z</time>
      </trkpt>
      <trkpt lat="47.574584" lon="7.777808">
        <ele>288.733730</ele>
        <time>2021-11-21T08:40:13.523Z</time>
      </trkpt>
      <trkpt lat="47.574435" lon="7.776611">
        <ele>290.247427</ele>
        <time>2021-11-21T08:40:35.224Z</time>
      </trkpt>
      <trkpt lat="47.574482" lon="7.776565">
        <ele>290.351247</ele>
        <time>2021-11-21T08:40:37.252Z</time>
      </trkpt>
      <trkpt lat="47.574818" lon="7.774795">
        <ele>294.677168</ele>
        <time>2021-11-21T08:41:13.126Z</time>
      </trkpt>
      <trkpt lat="47.575052" lon="7.775405">
        <ele>297.110832</ele>
        <time>2021-11-21T08:41:29.650Z</time>
      </trkpt>
      <trkpt lat="47.575085" lon="7.775492">
        <ele>297.456982</ele>
        <time>2021-11-21T08:41:33.076Z</time>
      </trkpt>
      <trkpt lat="47.575384" lon="7.776579">
        <ele>302.363487</ele>
        <time>2021-11-21T08:42:07.544Z</time>
      </trkpt>
      <trkpt lat="47.575677" lon="7.776966">
        <ele>306.531181</ele>
        <time>2021-11-21T08:42:28.324Z</time>
      </trkpt>
      <trkpt lat="47.575870" lon="7.777242">
        <ele>309.379162</ele>
        <time>2021-11-21T08:42:44.795Z</time>
      </trkpt>
      <trkpt lat="47.576055" lon="7.777591">
        <ele>312.559057</ele>
        <time>2021-11-21T08:43:03.034Z</time>
      </trkpt>
      <trkpt lat="47.576240" lon="7.777816">
        <ele>315.100400</ele>
        <time>2021-11-21T08:43:18.445Z</time>
      </trkpt>
      <trkpt lat="47.576421" lon="7.777969">
        <ele>317.313177</ele>
        <time>2021-11-21T08:43:30.504Z</time>
      </trkpt>
      <trkpt lat="47.576734" lon="7.778022">
        <ele>320.691028</ele>
        <time>2021-11-21T08:43:50.204Z</time>
      </trkpt>
      <trkpt lat="47.576906" lon="7.777966">
        <ele>322.635266</ele>
        <time>2021-11-21T08:44:02.091Z</time>
      </trkpt>
      <trkpt lat="47.577242" lon="7.777768">
        <ele>326.627259</ele>
        <time>2021-11-21T08:44:24.162Z</time>
      </trkpt>
      <trkpt lat="47.577552" lon="7.777454">
        <ele>330.772520</ele>
        <time>2021-11-21T08:44:46.468Z</time>
      </trkpt>
      <trkpt lat="47.577731" lon="7.777170">
        <ele>333.667277</ele>
        <time>2021-11-21T08:45:01.367Z</time>
      </trkpt>
      <trkpt lat="47.577863" lon="7.776850">
        <ele>336.460843</ele>
        <time>2021-11-21T08:45:14.643Z</time>
      </trkpt>
      <trkpt lat="47.577870" lon="7.776819">
        <ele>336.704316</ele>
        <time>2021-11-21T08:45:16.305Z</time>
      </trkpt>
      <trkpt lat="47.577968" lon="7.776427">
        <ele>339.812143</ele>
        <time>2021-11-21T08:45:33.502Z</time>
      </trkpt>
      <trkpt lat="47.578025" lon="7.775902">
        <ele>343.572773</ele>
        <time>2021-11-21T08:45:52.785Z</time>
      </trkpt>
      <trkpt lat="47.578071" lon="7.775576">
        <ele>345.928170</ele>
        <time>2021-11-21T08:46:05.484Z</time>
      </trkpt>
      <trkpt lat="47.578174" lon="7.775292">
        <ele>348.208509</ele>
        <time>2021-11-21T08:46:17.425Z</time>
      </trkpt>
      <trkpt lat="47.578507" lon="7.774879">
        <ele>352.760233</ele>
        <time>2021-11-21T08:46:42.317Z</time>
      </trkpt>
      <trkpt lat="47.578756" lon="7.774665">
        <ele>355.777632</ele>
        <time>2021-11-21T08:46:59.426Z</time>
      </trkpt>
      <trkpt lat="47.579806" lon="7.773857">
        <ele>368.133981</ele>
        <time>2021-11-21T08:48:06.877Z</time>
      </trkpt>
      <trkpt lat="47.580296" lon="7.773511">
        <ele>373.796621</ele>
        <time>2021-11-21T08:48:37.935Z</time>
      </trkpt>
      <trkpt lat="47.580807" lon="7.772819">
        <ele>381.013778</ele>
        <time>2021-11-21T08:49:15.732Z</time>
      </trkpt>
      <trkpt lat="47.580945" lon="7.772416">
        <ele>384.191237</ele>
        <time>2021-11-21T08:49:32.115Z</time>
      </trkpt>
      <trkpt lat="47.581317" lon="7.771666">
        <ele>390.736107</ele>
        <time>2021-11-21T08:50:07.798Z</time>
      </trkpt>
      <trkpt lat="47.581731" lon="7.770314">
        <ele>400.612815</ele>
        <time>2021-11-21T08:51:06.957Z</time>
      </trkpt>
      <trkpt lat="47.581897" lon="7.769954">
        <ele>403.340951</ele>
        <time>2021-11-21T08:51:21.903Z</time>
      </trkpt>
      <trkpt lat="47.581964" lon="7.769843">
        <ele>404.272814</ele>
        <time>2021-11-21T08:51:29.324Z</time>
      </trkpt>
      <trkpt lat="47.582176" lon="7.769652">
        <ele>406.573652</ele>
        <time>2021-11-21T08:51:41.987Z</time>
      </trkpt>
      <trkpt lat="47.582217" lon="7.769641">
        <ele>406.960090</ele>
        <time>2021-11-21T08:51:44.962Z</time>
      </trkpt>
      <trkpt lat="47.582269" lon="7.769630">
        <ele>407.447257</ele>
        <time>2021-11-21T08:51:49.246Z</time>
      </trkpt>
      <trkpt lat="47.583519" lon="7.769412">
        <ele>416.298694</ele>
        <time>2021-11-21T08:52:51.310Z</time>
      </trkpt>
      <trkpt lat="47.583812" lon="7.769288">
        <ele>417.872133</ele>
        <time>2021-11-21T08:53:03.756Z</time>
      </trkpt>
      <trkpt lat="47.585063" lon="7.768604">
        <ele>422.882554</ele>
        <time>2021-11-21T08:53:48.024Z</time>
      </trkpt>
      <trkpt lat="47.585613" lon="7.768145">
        <ele>423.891484</ele>
        <time>2021-11-21T08:54:05.310Z</time>
      </trkpt>
      <trkpt lat="47.586458" lon="7.767254">
        <ele>424.033229</ele>
        <time>2021-11-21T08:54:26.869Z</time>
      </trkpt>
      <trkpt lat="47.586575" lon="7.767173">
        <ele>423.744463</ele>
        <time>2021-11-21T08:54:29.564Z</time>
      </trkpt>
      <trkpt lat="47.586859" lon="7.766977">
        <ele>423.043918</ele>
        <time>2021-11-21T08:54:34.744Z</time>
      </trkpt>
      <trkpt lat="47.587726" lon="7.766058">
        <ele>420.279153</ele>
        <time>2021-11-21T08:54:50.041Z</time>
      </trkpt>
      <trkpt lat="47.588102" lon="7.765534">
        <ele>417.247315</ele>
        <time>2021-11-21T08:54:56.908Z</time>
      </trkpt>
      <trkpt lat="47.588240" lon="7.765423">
        <ele>416.324883</ele>
        <time>2021-11-21T08:54:58.994Z</time>
      </trkpt>
      <trkpt lat="47.588379" lon="7.765329">
        <ele>415.427265</ele>
        <time>2021-11-21T08:55:01.018Z</time>
      </trkpt>
      <trkpt lat="47.588523" lon="7.765242">
        <ele>414.513663</ele>
        <time>2021-11-21T08:55:03.032Z</time>
      </trkpt>
      <trkpt lat="47.589202" lon="7.765102">
        <ele>410.485877</ele>
        <time>2021-11-21T08:55:11.890Z</time>
      </trkpt>
      <trkpt lat="47.589614" lon="7.764808">
        <ele>407.085975</ele>
        <time>2021-11-21T08:55:17.698Z</time>
      </trkpt>
      <trkpt lat="47.591305" lon="7.762579">
        <ele>390.635432</ele>
        <time>2021-11-21T08:55:46.303Z</time>
      </trkpt>
      <trkpt lat="47.591687" lon="7.761670">
        <ele>385.674703</ele>
        <time>2021-11-21T08:55:55.586Z</time>
      </trkpt>
      <trkpt lat="47.591758" lon="7.761482">
        <ele>384.676710</ele>
        <time>2021-11-21T08:55:57.477Z</time>
      </trkpt>
      <trkpt lat="47.591982" lon="7.760877">
        <ele>383.678407</ele>
        <time>2021-11-21T08:56:03.896Z</time>
      </trkpt>
      <trkpt lat="47.592118" lon="7.760501">
        <ele>383.178068</ele>
        <time>2021-11-21T08:56:08.141Z</time>
      </trkpt>
      <trkpt lat="47.592317" lon="7.760056">
        <ele>382.551929</ele>
        <time>2021-11-21T08:56:13.914Z</time>
      </trkpt>
      <trkpt lat="47.592736" lon="7.760559">
        <ele>381.614519</ele>
        <time>2021-11-21T08:56:21.470Z</time>
      </trkpt>
      <trkpt lat="47.593211" lon="7.761047">
        <ele>383.332520</ele>
        <time>2021-11-21T08:56:35.428Z</time>
      </trkpt>
      <trkpt lat="47.593513" lon="7.761296">
        <ele>385.114869</ele>
        <time>2021-11-21T08:56:46.630Z</time>
      </trkpt>
      <trkpt lat="47.593803" lon="7.761400">
        <ele>386.653832</ele>
        <time>2021-11-21T08:56:57.528Z</time>
      </trkpt>
      <trkpt lat="47.594411" lon="7.761312">
        <ele>389.804839</ele>
        <time>2021-11-21T08:57:23.285Z</time>
      </trkpt>
      <trkpt lat="47.595086" lon="7.761325">
        <ele>395.467500</ele>
        <time>2021-11-21T08:57:56.302Z</time>
      </trkpt>
      <trkpt lat="47.595423" lon="7.761141">
        <ele>398.808675</ele>
        <time>2021-11-21T08:58:15.961Z</time>
      </trkpt>
      <trkpt lat="47.595483" lon="7.761108">
        <ele>399.404066</ele>
        <time>2021-11-21T08:58:20.505Z</time>
      </trkpt>
      <trkpt lat="47.595685" lon="7.760825">
        <ele>401.989551</ele>
        <time>2021-11-21T08:58:34.023Z</time>
      </trkpt>
      <trkpt lat="47.595755" lon="7.760659">
        <ele>403.217916</ele>
        <time>2021-11-21T08:58:42.958Z</time>
      </trkpt>
      <trkpt lat="47.595854" lon="7.760335">
        <ele>405.449666</ele>
        <time>2021-11-21T08:58:54.348Z</time>
      </trkpt>
      <trkpt lat="47.596041" lon="7.759870">
        <ele>408.741482</ele>
        <time>2021-11-21T08:59:14.291Z</time>
      </trkpt>
      <trkpt lat="47.596134" lon="7.759703">
        <ele>410.007583</ele>
        <time>2021-11-21T08:59:23.600Z</time>
      </trkpt>
      <trkpt lat="47.596241" lon="7.759593">
        <ele>411.136237</ele>
        <time>2021-11-21T08:59:29.736Z</time>
      </trkpt>
      <trkpt lat="47.596644" lon="7.759494">
        <ele>414.677360</ele>
        <time>2021-11-21T08:59:50.401Z</time>
      </trkpt>
      <trkpt lat="47.596893" lon="7.759520">
        <ele>416.841226</ele>
        <time>2021-11-21T09:00:03.861Z</time>
      </trkpt>
      <trkpt lat="47.597328" lon="7.759556">
        <ele>420.618005</ele>
        <time>2021-11-21T09:00:24.045Z</time>
      </trkpt>
      <trkpt lat="47.598314" lon="7.759510">
        <ele>428.015607</ele>
        <time>2021-11-21T09:01:05.922Z</time>
      </trkpt>
      <trkpt lat="47.598492" lon="7.759485">
        <ele>429.280260</ele>
        <time>2021-11-21T09:01:14.282Z</time>
      </trkpt>
      <trkpt lat="47.598636" lon="7.759436">
        <ele>430.325261</ele>
        <time>2021-11-21T09:01:20.567Z</time>
      </trkpt>
      <trkpt lat="47.599038" lon="7.759240">
        <ele>433.318394</ele>
        <time>2021-11-21T09:01:38.025Z</time>
      </trkpt>
      <trkpt lat="47.599369" lon="7.759291">
        <ele>435.673195</ele>
        <time>2021-11-21T09:01:51.482Z</time>
      </trkpt>
      <trkpt lat="47.599495" lon="7.759407">
        <ele>436.742868</ele>
        <time>2021-11-21T09:01:58.407Z</time>
      </trkpt>
      <trkpt lat="47.599727" lon="7.759652">
        <ele>438.797105</ele>
        <time>2021-11-21T09:02:11.111Z</time>
      </trkpt>
      <trkpt lat="47.599868" lon="7.759729">
        <ele>439.880849</ele>
        <time>2021-11-21T09:02:17.968Z</time>
      </trkpt>
      <trkpt lat="47.599976" lon="7.759788">
        <ele>440.710986</ele>
        <time>2021-11-21T09:02:23.345Z</time>
      </trkpt>
      <trkpt lat="47.600757" lon="7.759977">
        <ele>446.418573</ele>
        <time>2021-11-21T09:02:57.817Z</time>
      </trkpt>
      <trkpt lat="47.601032" lon="7.760002">
        <ele>448.405777</ele>
        <time>2021-11-21T09:03:10.506Z</time>
      </trkpt>
      <trkpt lat="47.601336" lon="7.760030">
        <ele>450.104816</ele>
        <time>2021-11-21T09:03:23.404Z</time>
      </trkpt>
      <trkpt lat="47.601600" lon="7.760073">
        <ele>451.545392</ele>
        <time>2021-11-21T09:03:34.596Z</time>
      </trkpt>
      <trkpt lat="47.602078" lon="7.760047">
        <ele>454.139861</ele>
        <time>2021-11-21T09:03:52.984Z</time>
      </trkpt>
      <trkpt lat="47.602902" lon="7.759841">
        <ele>458.401253</ele>
        <time>2021-11-21T09:04:20.805Z</time>
      </trkpt>
      <trkpt lat="47.603173" lon="7.759766">
        <ele>458.634731</ele>
        <time>2021-11-21T09:04:27.342Z</time>
      </trkpt>
      <trkpt lat="47.603613" lon="7.759659">
        <ele>459.012353</ele>
        <time>2021-11-21T09:04:36.297Z</time>
      </trkpt>
      <trkpt lat="47.604088" lon="7.759601">
        <ele>459.416003</ele>
        <time>2021-11-21T09:04:43.587Z</time>
      </trkpt>
      <trkpt lat="47.604421" lon="7.759606">
        <ele>459.698042</ele>
        <time>2021-11-21T09:04:47.813Z</time>
      </trkpt>
      <trkpt lat="47.604633" lon="7.759635">
        <ele>459.872218</ele>
        <time>2021-11-21T09:04:50.331Z</time>
      </trkpt>
      <trkpt lat="47.605325" lon="7.759787">
        <ele>459.545836</ele>
        <time>2021-11-21T09:04:58.872Z</time>
      </trkpt>
      <trkpt lat="47.605536" lon="7.759853">
        <ele>459.445227</ele>
        <time>2021-11-21T09:05:01.629Z</time>
      </trkpt>
      <trkpt lat="47.606171" lon="7.760045">
        <ele>459.142866</ele>
        <time>2021-11-21T09:05:10.813Z</time>
      </trkpt>
      <trkpt lat="47.607246" lon="7.760369">
        <ele>458.588597</ele>
        <time>2021-11-21T09:05:28.086Z</time>
      </trkpt>
      <trkpt lat="47.607825" lon="7.760537">
        <ele>458.284416</ele>
        <time>2021-11-21T09:05:35.865Z</time>
      </trkpt>
      <trkpt lat="47.608938" lon="7.760829">
        <ele>456.475312</ele>
        <time>2021-11-21T09:05:48.356Z</time>
      </trkpt>
      <trkpt lat="47.610076" lon="7.761100">
        <ele>454.223646</ele>
        <time>2021-11-21T09:06:00.591Z</time>
      </trkpt>
      <trkpt lat="47.610488" lon="7.761190">
        <ele>453.762053</ele>
        <time>2021-11-21T09:06:05.323Z</time>
      </trkpt>
      <trkpt lat="47.610565" lon="7.761273">
        <ele>453.656549</ele>
        <time>2021-11-21T09:06:06.481Z</time>
      </trkpt>
      <trkpt lat="47.610601" lon="7.761374">
        <ele>453.571177</ele>
        <time>2021-11-21T09:06:07.378Z</time>
      </trkpt>
      <trkpt lat="47.610760" lon="7.761304">
        <ele>453.387341</ele>
        <time>2021-11-21T09:06:09.358Z</time>
      </trkpt>
      <trkpt lat="47.610854" lon="7.761285">
        <ele>453.282187</ele>
        <time>2021-11-21T09:06:10.568Z</time>
      </trkpt>
      <trkpt lat="47.611933" lon="7.761457">
        <ele>452.227469</ele>
        <time>2021-11-21T09:06:25.179Z</time>
      </trkpt>
      <trkpt lat="47.612022" lon="7.761449">
        <ele>452.176201</ele>
        <time>2021-11-21T09:06:26.455Z</time>
      </trkpt>
      <trkpt lat="47.612075" lon="7.761435">
        <ele>452.145248</ele>
        <time>2021-11-21T09:06:27.190Z</time>
      </trkpt>
      <trkpt lat="47.612127" lon="7.761383">
        <ele>452.109189</ele>
        <time>2021-11-21T09:06:28.072Z</time>
      </trkpt>
      <trkpt lat="47.612441" lon="7.760890">
        <ele>451.846291</ele>
        <time>2021-11-21T09:06:33.957Z</time>
      </trkpt>
      <trkpt lat="47.612523" lon="7.760811">
        <ele>451.790070</ele>
        <time>2021-11-21T09:06:35.342Z</time>
      </trkpt>
      <trkpt lat="47.612630" lon="7.760759">
        <ele>451.725329</ele>
        <time>2021-11-21T09:06:36.892Z</time>
      </trkpt>
      <trkpt lat="47.612812" lon="7.760726">
        <ele>451.619903</ele>
        <time>2021-11-21T09:06:39.197Z</time>
      </trkpt>
      <trkpt lat="47.612960" lon="7.760706">
        <ele>451.534452</ele>
        <time>2021-11-21T09:06:41.341Z</time>
      </trkpt>
      <trkpt lat="47.613059" lon="7.760674">
        <ele>451.476193</ele>
        <time>2021-11-21T09:06:42.709Z</time>
      </trkpt>
      <trkpt lat="47.613078" lon="7.760746">
        <ele>451.446222</ele>
        <time>2021-11-21T09:06:43.281Z</time>
      </trkpt>
      <trkpt lat="47.613167" lon="7.760835">
        <ele>451.384506</ele>
        <time>2021-11-21T09:06:44.858Z</time>
      </trkpt>
      <trkpt lat="47.613657" lon="7.760988">
        <ele>450.760009</ele>
        <time>2021-11-21T09:06:50.880Z</time>
      </trkpt>
      <trkpt lat="47.613842" lon="7.761046">
        <ele>450.508551</ele>
        <time>2021-11-21T09:06:52.992Z</time>
      </trkpt>
      <trkpt lat="47.614092" lon="7.761125">
        <ele>450.168627</ele>
        <time>2021-11-21T09:06:55.924Z</time>
      </trkpt>
      <trkpt lat="47.614228" lon="7.761168">
        <ele>449.983705</ele>
        <time>2021-11-21T09:06:57.395Z</time>
      </trkpt>
      <trkpt lat="47.614392" lon="7.761173">
        <ele>449.765562</ele>
        <time>2021-11-21T09:06:59.183Z</time>
      </trkpt>
      <trkpt lat="47.614706" lon="7.761147">
        <ele>449.347338</ele>
        <time>2021-11-21T09:07:02.693Z</time>
      </trkpt>
      <trkpt lat="47.614766" lon="7.761162">
        <ele>449.266421</ele>
        <time>2021-11-21T09:07:03.451Z</time>
      </trkpt>
      <trkpt lat="47.614820" lon="7.761190">
        <ele>449.190349</ele>
        <time>2021-11-21T09:07:04.250Z</time>
      </trkpt>
      <trkpt lat="47.615007" lon="7.761358">
        <ele>448.975051</ele>
        <time>2021-11-21T09:07:06.775Z</time>
      </trkpt>
      <trkpt lat="47.615529" lon="7.761749">
        <ele>449.152607</ele>
        <time>2021-11-21T09:07:15.161Z</time>
      </trkpt>
      <trkpt lat="47.615620" lon="7.761773">
        <ele>449.180671</ele>
        <time>2021-11-21T09:07:16.179Z</time>
      </trkpt>
      <trkpt lat="47.615769" lon="7.761789">
        <ele>449.226031</ele>
        <time>2021-11-21T09:07:18.677Z</time>
      </trkpt>
      <trkpt lat="47.615919" lon="7.761819">
        <ele>449.271988</ele>
        <time>2021-11-21T09:07:21.199Z</time>
      </trkpt>
      <trkpt lat="47.616849" lon="7.762442">
        <ele>449.791310</ele>
        <time>2021-11-21T09:07:40.754Z</time>
      </trkpt>
      <trkpt lat="47.617386" lon="7.762826">
        <ele>450.480160</ele>
        <time>2021-11-21T09:07:55.446Z</time>
      </trkpt>
      <trkpt lat="47.617553" lon="7.762928">
        <ele>450.688849</ele>
        <time>2021-11-21T09:07:59.636Z</time>
      </trkpt>
      <trkpt lat="47.617894" lon="7.763136">
        <ele>451.114894</ele>
        <time>2021-11-21T09:08:06.354Z</time>
      </trkpt>
      <trkpt lat="47.618125" lon="7.762615">
        <ele>451.559904</ele>
        <time>2021-11-21T09:08:12.912Z</time>
      </trkpt>
      <trkpt lat="47.618586" lon="7.762088">
        <ele>450.415383</ele>
        <time>2021-11-21T09:08:20.187Z</time>
      </trkpt>
      <trkpt lat="47.618742" lon="7.761992">
        <ele>450.083252</ele>
        <time>2021-11-21T09:08:22.085Z</time>
      </trkpt>
      <trkpt lat="47.618940" lon="7.761783">
        <ele>449.605369</ele>
        <time>2021-11-21T09:08:24.709Z</time>
      </trkpt>
      <trkpt lat="47.619245" lon="7.761370">
        <ele>448.793284</ele>
        <time>2021-11-21T09:08:29.009Z</time>
      </trkpt>
      <trkpt lat="47.620058" lon="7.759513">
        <ele>445.491254</ele>
        <time>2021-11-21T09:08:43.974Z</time>
      </trkpt>
      <trkpt lat="47.620566" lon="7.758657">
        <ele>443.971903</ele>
        <time>2021-11-21T09:08:53.472Z</time>
      </trkpt>
      <trkpt lat="47.620828" lon="7.758215">
        <ele>444.222571</ele>
        <time>2021-11-21T09:08:59.554Z</time>
      </trkpt>
      <trkpt lat="47.621012" lon="7.757974">
        <ele>444.377648</ele>
        <time>2021-11-21T09:09:03.577Z</time>
      </trkpt>
      <trkpt lat="47.621392" lon="7.757689">
        <ele>444.646673</ele>
        <time>2021-11-21T09:09:11.327Z</time>
      </trkpt>
      <trkpt lat="47.621775" lon="7.757496">
        <ele>444.902237</ele>
        <time>2021-11-21T09:09:19.648Z</time>
      </trkpt>
      <trkpt lat="47.622401" lon="7.757191">
        <ele>445.383046</ele>
        <time>2021-11-21T09:09:33.318Z</time>
      </trkpt>
      <trkpt lat="47.622511" lon="7.757074">
        <ele>445.489518</ele>
        <time>2021-11-21T09:09:36.241Z</time>
      </trkpt>
      <trkpt lat="47.622712" lon="7.756863">
        <ele>445.683213</ele>
        <time>2021-11-21T09:09:40.694Z</time>
      </trkpt>
      <trkpt lat="47.624277" lon="7.754101">
        <ele>447.050069</ele>
        <time>2021-11-21T09:10:20.411Z</time>
      </trkpt>
      <trkpt lat="47.624838" lon="7.753339">
        <ele>447.020312</ele>
        <time>2021-11-21T09:10:33.521Z</time>
      </trkpt>
      <trkpt lat="47.625761" lon="7.752304">
        <ele>446.495670</ele>
        <time>2021-11-21T09:10:49.831Z</time>
      </trkpt>
      <trkpt lat="47.627609" lon="7.750299">
        <ele>441.416868</ele>
        <time>2021-11-21T09:11:14.335Z</time>
      </trkpt>
      <trkpt lat="47.628584" lon="7.749233">
        <ele>437.088500</ele>
        <time>2021-11-21T09:11:26.270Z</time>
      </trkpt>
      <trkpt lat="47.628604" lon="7.749202">
        <ele>436.985136</ele>
        <time>2021-11-21T09:11:26.515Z</time>
      </trkpt>
      <trkpt lat="47.628729" lon="7.749001">
        <ele>436.326383</ele>
        <time>2021-11-21T09:11:28.362Z</time>
      </trkpt>
      <trkpt lat="47.629212" lon="7.748211">
        <ele>433.547884</ele>
        <time>2021-11-21T09:11:35.391Z</time>
      </trkpt>
      <trkpt lat="47.629452" lon="7.747871">
        <ele>432.243641</ele>
        <time>2021-11-21T09:11:38.654Z</time>
      </trkpt>
      <trkpt lat="47.629711" lon="7.747557">
        <ele>430.929028</ele>
        <time>2021-11-21T09:11:41.923Z</time>
      </trkpt>
      <trkpt lat="47.630697" lon="7.746375">
        <ele>425.514323</ele>
        <time>2021-11-21T09:11:54.352Z</time>
      </trkpt>
      <trkpt lat="47.630948" lon="7.746031">
        <ele>423.966756</ele>
        <time>2021-11-21T09:11:57.626Z</time>
      </trkpt>
      <trkpt lat="47.631034" lon="7.745824">
        <ele>423.224503</ele>
        <time>2021-11-21T09:11:59.156Z</time>
      </trkpt>
      <trkpt lat="47.631075" lon="7.745596">
        <ele>422.504222</ele>
        <time>2021-11-21T09:12:00.691Z</time>
      </trkpt>
      <trkpt lat="47.631185" lon="7.744218">
        <ele>418.243582</ele>
        <time>2021-11-21T09:12:09.412Z</time>
      </trkpt>
      <trkpt lat="47.631202" lon="7.744011">
        <ele>417.600327</ele>
        <time>2021-11-21T09:12:10.747Z</time>
      </trkpt>
      <trkpt lat="47.631260" lon="7.742819">
        <ele>413.913810</ele>
        <time>2021-11-21T09:12:18.441Z</time>
      </trkpt>
      <trkpt lat="47.631282" lon="7.742608">
        <ele>413.255198</ele>
        <time>2021-11-21T09:12:19.841Z</time>
      </trkpt>
      <trkpt lat="47.631477" lon="7.741795">
        <ele>410.910383</ele>
        <time>2021-11-21T09:12:25.716Z</time>
      </trkpt>
      <trkpt lat="47.631536" lon="7.741522">
        <ele>410.180752</ele>
        <time>2021-11-21T09:12:28.410Z</time>
      </trkpt>
      <trkpt lat="47.631637" lon="7.741086">
        <ele>409.007419</ele>
        <time>2021-11-21T09:12:32.791Z</time>
      </trkpt>
      <trkpt lat="47.631724" lon="7.740473">
        <ele>407.413134</ele>
        <time>2021-11-21T09:12:38.822Z</time>
      </trkpt>
      <trkpt lat="47.632215" lon="7.740628">
        <ele>405.491009</ele>
        <time>2021-11-21T09:12:45.951Z</time>
      </trkpt>
      <trkpt lat="47.632629" lon="7.740770">
        <ele>403.445050</ele>
        <time>2021-11-21T09:12:51.914Z</time>
      </trkpt>
      <trkpt lat="47.633010" lon="7.740829">
        <ele>401.600580</ele>
        <time>2021-11-21T09:12:57.184Z</time>
      </trkpt>
      <trkpt lat="47.633652" lon="7.740737">
        <ele>398.494981</ele>
        <time>2021-11-21T09:13:05.827Z</time>
      </trkpt>
      <trkpt lat="47.633981" lon="7.740603">
        <ele>396.837619</ele>
        <time>2021-11-21T09:13:10.318Z</time>
      </trkpt>
      <trkpt lat="47.634039" lon="7.740574">
        <ele>396.499994</ele>
        <time>2021-11-21T09:13:11.120Z</time>
      </trkpt>
      <trkpt lat="47.634082" lon="7.740553">
        <ele>396.250273</ele>
        <time>2021-11-21T09:13:11.725Z</time>
      </trkpt>
      <trkpt lat="47.634149" lon="7.740513">
        <ele>395.851885</ele>
        <time>2021-11-21T09:13:12.705Z</time>
      </trkpt>
      <trkpt lat="47.634183" lon="7.740491">
        <ele>395.647273</ele>
        <time>2021-11-21T09:13:13.213Z</time>
      </trkpt>
      <trkpt lat="47.634454" lon="7.740276">
        <ele>393.952098</ele>
        <time>2021-11-21T09:13:17.325Z</time>
      </trkpt>
      <trkpt lat="47.634675" lon="7.740206">
        <ele>392.705511</ele>
        <time>2021-11-21T09:13:20.327Z</time>
      </trkpt>
      <trkpt lat="47.635167" lon="7.740263">
        <ele>389.983178</ele>
        <time>2021-11-21T09:13:26.927Z</time>
      </trkpt>
      <trkpt lat="47.635977" lon="7.740654">
        <ele>384.913280</ele>
        <time>2021-11-21T09:13:38.230Z</time>
      </trkpt>
      <trkpt lat="47.636417" lon="7.740311">
        <ele>381.588845</ele>
        <time>2021-11-21T09:13:44.738Z</time>
      </trkpt>
      <trkpt lat="47.636642" lon="7.740236">
        <ele>380.046353</ele>
        <time>2021-11-21T09:13:47.705Z</time>
      </trkpt>
      <trkpt lat="47.636927" lon="7.740332">
        <ele>378.091538</ele>
        <time>2021-11-21T09:13:51.489Z</time>
      </trkpt>
      <trkpt lat="47.637075" lon="7.740488">
        <ele>376.877301</ele>
        <time>2021-11-21T09:13:53.846Z</time>
      </trkpt>
      <trkpt lat="47.637234" lon="7.740799">
        <ele>375.117785</ele>
        <time>2021-11-21T09:13:57.292Z</time>
      </trkpt>
      <trkpt lat="47.637528" lon="7.741566">
        <ele>368.157540</ele>
        <time>2021-11-21T09:14:04.576Z</time>
      </trkpt>
      <trkpt lat="47.637556" lon="7.741902">
        <ele>365.452128</ele>
        <time>2021-11-21T09:14:06.484Z</time>
      </trkpt>
      <trkpt lat="47.637523" lon="7.742385">
        <ele>361.572712</ele>
        <time>2021-11-21T09:14:09.219Z</time>
      </trkpt>
      <trkpt lat="47.637552" lon="7.742900">
        <ele>357.443030</ele>
        <time>2021-11-21T09:14:12.129Z</time>
      </trkpt>
      <trkpt lat="47.637644" lon="7.743238">
        <ele>354.530053</ele>
        <time>2021-11-21T09:14:14.193Z</time>
      </trkpt>
      <trkpt lat="47.637785" lon="7.743491">
        <ele>352.088122</ele>
        <time>2021-11-21T09:14:16.035Z</time>
      </trkpt>
      <trkpt lat="47.638011" lon="7.743662">
        <ele>349.389742</ele>
        <time>2021-11-21T09:14:18.161Z</time>
      </trkpt>
      <trkpt lat="47.638337" lon="7.743810">
        <ele>345.763444</ele>
        <time>2021-11-21T09:14:21.047Z</time>
      </trkpt>
      <trkpt lat="47.638586" lon="7.743801">
        <ele>343.114031</ele>
        <time>2021-11-21T09:14:23.184Z</time>
      </trkpt>
      <trkpt lat="47.638834" lon="7.743716">
        <ele>340.406608</ele>
        <time>2021-11-21T09:14:25.326Z</time>
      </trkpt>
      <trkpt lat="47.639034" lon="7.743640">
        <ele>338.210568</ele>
        <time>2021-11-21T09:14:27.092Z</time>
      </trkpt>
      <trkpt lat="47.639124" lon="7.743936">
        <ele>335.883067</ele>
        <time>2021-11-21T09:14:29.010Z</time>
      </trkpt>
      <trkpt lat="47.639286" lon="7.744230">
        <ele>334.245321</ele>
        <time>2021-11-21T09:14:31.334Z</time>
      </trkpt>
      <trkpt lat="47.639661" lon="7.744599">
        <ele>333.230370</ele>
        <time>2021-11-21T09:14:36.054Z</time>
      </trkpt>
      <trkpt lat="47.640175" lon="7.745392">
        <ele>331.557922</ele>
        <time>2021-11-21T09:14:45.184Z</time>
      </trkpt>
      <trkpt lat="47.640698" lon="7.744798">
        <ele>330.398877</ele>
        <time>2021-11-21T09:14:54.460Z</time>
      </trkpt>
      <trkpt lat="47.640802" lon="7.744697">
        <ele>330.343181</ele>
        <time>2021-11-21T09:14:56.130Z</time>
      </trkpt>
      <trkpt lat="47.640859" lon="7.744671">
        <ele>330.316458</ele>
        <time>2021-11-21T09:14:56.950Z</time>
      </trkpt>
      <trkpt lat="47.640958" lon="7.744746">
        <ele>330.266647</ele>
        <time>2021-11-21T09:14:58.483Z</time>
      </trkpt>
      <trkpt lat="47.640998" lon="7.744824">
        <ele>330.237050</ele>
        <time>2021-11-21T09:14:59.433Z</time>
      </trkpt>
      <trkpt lat="47.641056" lon="7.744855">
        <ele>330.209425</ele>
        <time>2021-11-21T09:15:00.300Z</time>
      </trkpt>
      <trkpt lat="47.641149" lon="7.744754">
        <ele>330.157782</ele>
        <time>2021-11-21T09:15:01.792Z</time>
      </trkpt>
      <trkpt lat="47.641098" lon="7.744530">
        <ele>330.086391</ele>
        <time>2021-11-21T09:15:03.923Z</time>
      </trkpt>
      <trkpt lat="47.641089" lon="7.744504">
        <ele>330.077565</ele>
        <time>2021-11-21T09:15:04.239Z</time>
      </trkpt>
      <trkpt lat="47.641021" lon="7.744322">
        <ele>330.014728</ele>
        <time>2021-11-21T09:15:06.016Z</time>
      </trkpt>
      <trkpt lat="47.641118" lon="7.744203">
        <ele>329.958331</ele>
        <time>2021-11-21T09:15:07.654Z</time>
      </trkpt>
      <trkpt lat="47.641133" lon="7.744182">
        <ele>329.949091</ele>
        <time>2021-11-21T09:15:07.925Z</time>
      </trkpt>
      <trkpt lat="47.641440" lon="7.743669">
        <ele>329.741920</ele>
        <time>2021-11-21T09:15:13.983Z</time>
      </trkpt>
      <trkpt lat="47.641543" lon="7.743498">
        <ele>329.673502</ele>
        <time>2021-11-21T09:15:16.026Z</time>
      </trkpt>
      <trkpt lat="47.641651" lon="7.743319">
        <ele>329.654655</ele>
        <time>2021-11-21T09:15:18.391Z</time>
      </trkpt>
      <trkpt lat="47.641773" lon="7.743087">
        <ele>329.631571</ele>
        <time>2021-11-21T09:15:21.003Z</time>
      </trkpt>
      <trkpt lat="47.641802" lon="7.742982">
        <ele>329.622670</ele>
        <time>2021-11-21T09:15:22.136Z</time>
      </trkpt>
      <trkpt lat="47.641858" lon="7.742708">
        <ele>329.600212</ele>
        <time>2021-11-21T09:15:24.827Z</time>
      </trkpt>
      <trkpt lat="47.641875" lon="7.742622">
        <ele>329.593182</ele>
        <time>2021-11-21T09:15:25.617Z</time>
      </trkpt>
      <trkpt lat="47.641887" lon="7.742564">
        <ele>329.588423</ele>
        <time>2021-11-21T09:15:26.175Z</time>
      </trkpt>
      <trkpt lat="47.641903" lon="7.742471">
        <ele>329.580894</ele>
        <time>2021-11-21T09:15:27.193Z</time>
      </trkpt>
      <trkpt lat="47.641935" lon="7.742324">
        <ele>329.568777</ele>
        <time>2021-11-21T09:15:28.766Z</time>
      </trkpt>
      <trkpt lat="47.641952" lon="7.742244">
        <ele>329.562197</ele>
        <time>2021-11-21T09:15:29.574Z</time>
      </trkpt>
      <trkpt lat="47.641960" lon="7.742153">
        <ele>329.554999</ele>
        <time>2021-11-21T09:15:30.431Z</time>
      </trkpt>
      <trkpt lat="47.641958" lon="7.742061">
        <ele>329.547779</ele>
        <time>2021-11-21T09:15:31.304Z</time>
      </trkpt>
      <trkpt lat="47.641954" lon="7.741976">
        <ele>329.541096</ele>
        <time>2021-11-21T09:15:32.128Z</time>
      </trkpt>
      <trkpt lat="47.641997" lon="7.741966">
        <ele>329.536029</ele>
        <time>2021-11-21T09:15:32.861Z</time>
      </trkpt>
      <trkpt lat="47.642066" lon="7.741908">
        <ele>329.526797</ele>
        <time>2021-11-21T09:15:34.066Z</time>
      </trkpt>
      <trkpt lat="47.642209" lon="7.741595">
        <ele>329.497135</ele>
        <time>2021-11-21T09:15:37.835Z</time>
      </trkpt>
      <trkpt lat="47.642274" lon="7.741453">
        <ele>329.483669</ele>
        <time>2021-11-21T09:15:39.673Z</time>
      </trkpt>
      <trkpt lat="47.642325" lon="7.741346">
        <ele>329.473389</ele>
        <time>2021-11-21T09:15:40.997Z</time>
      </trkpt>
      <trkpt lat="47.642347" lon="7.741300">
        <ele>329.468964</ele>
        <time>2021-11-21T09:15:41.562Z</time>
      </trkpt>
      <trkpt lat="47.642394" lon="7.741202">
        <ele>329.473865</ele>
        <time>2021-11-21T09:15:42.752Z</time>
      </trkpt>
      <trkpt lat="47.642519" lon="7.740966">
        <ele>329.519549</ele>
        <time>2021-11-21T09:15:45.972Z</time>
      </trkpt>
      <trkpt lat="47.642647" lon="7.740709">
        <ele>329.568184</ele>
        <time>2021-11-21T09:15:49.329Z</time>
      </trkpt>
      <trkpt lat="47.642798" lon="7.740374">
        <ele>329.629521</ele>
        <time>2021-11-21T09:15:53.715Z</time>
      </trkpt>
      <trkpt lat="47.642822" lon="7.740329">
        <ele>329.638255</ele>
        <time>2021-11-21T09:15:54.311Z</time>
      </trkpt>
      <trkpt lat="47.642862" lon="7.740256">
        <ele>329.652574</ele>
        <time>2021-11-21T09:15:55.420Z</time>
      </trkpt>
      <trkpt lat="47.642911" lon="7.740194">
        <ele>329.667117</ele>
        <time>2021-11-21T09:15:56.520Z</time>
      </trkpt>
      <trkpt lat="47.642922" lon="7.740181">
        <ele>329.670293</ele>
        <time>2021-11-21T09:15:56.748Z</time>
      </trkpt>
      <trkpt lat="47.642972" lon="7.740117">
        <ele>329.685206</ele>
        <time>2021-11-21T09:15:57.796Z</time>
      </trkpt>
      <trkpt lat="47.643121" lon="7.740032">
        <ele>329.721261</ele>
        <time>2021-11-21T09:16:00.387Z</time>
      </trkpt>
      <trkpt lat="47.643168" lon="7.740007">
        <ele>329.732538</ele>
        <time>2021-11-21T09:16:01.226Z</time>
      </trkpt>
      <trkpt lat="47.643301" lon="7.739935">
        <ele>329.764514</ele>
        <time>2021-11-21T09:16:03.534Z</time>
      </trkpt>
      <trkpt lat="47.643475" lon="7.739785">
        <ele>329.809963</ele>
        <time>2021-11-21T09:16:06.781Z</time>
      </trkpt>
      <trkpt lat="47.643539" lon="7.739705">
        <ele>329.828862</ele>
        <time>2021-11-21T09:16:08.117Z</time>
      </trkpt>
      <trkpt lat="47.643618" lon="7.739581">
        <ele>329.854832</ele>
        <time>2021-11-21T09:16:09.880Z</time>
      </trkpt>
      <trkpt lat="47.643638" lon="7.739481">
        <ele>329.870576</ele>
        <time>2021-11-21T09:16:11.009Z</time>
      </trkpt>
      <trkpt lat="47.643623" lon="7.739386">
        <ele>329.843508</ele>
        <time>2021-11-21T09:16:12.039Z</time>
      </trkpt>
      <trkpt lat="47.643599" lon="7.739305">
        <ele>329.818960</ele>
        <time>2021-11-21T09:16:12.879Z</time>
      </trkpt>
      <trkpt lat="47.643579" lon="7.739273">
        <ele>329.806851</ele>
        <time>2021-11-21T09:16:13.300Z</time>
      </trkpt>
      <trkpt lat="47.643448" lon="7.739145">
        <ele>329.742271</ele>
        <time>2021-11-21T09:16:15.472Z</time>
      </trkpt>
      <trkpt lat="47.643361" lon="7.739082">
        <ele>329.702412</ele>
        <time>2021-11-21T09:16:16.922Z</time>
      </trkpt>
      <trkpt lat="47.643127" lon="7.738912">
        <ele>329.595136</ele>
        <time>2021-11-21T09:16:20.322Z</time>
      </trkpt>
      <trkpt lat="47.642672" lon="7.738698">
        <ele>329.398604</ele>
        <time>2021-11-21T09:16:26.729Z</time>
      </trkpt>
      <trkpt lat="47.642315" lon="7.738532">
        <ele>329.244560</ele>
        <time>2021-11-21T09:16:31.602Z</time>
      </trkpt>
      <trkpt lat="47.642140" lon="7.738440">
        <ele>329.168115</ele>
        <time>2021-11-21T09:16:33.959Z</time>
      </trkpt>
      <trkpt lat="47.641927" lon="7.738094">
        <ele>328.971788</ele>
        <time>2021-11-21T09:16:37.963Z</time>
      </trkpt>
      <trkpt lat="47.641898" lon="7.737895">
        <ele>328.874577</ele>
        <time>2021-11-21T09:16:39.631Z</time>
      </trkpt>
      <trkpt lat="47.641923" lon="7.737088">
        <ele>328.488862</ele>
        <time>2021-11-21T09:16:46.603Z</time>
      </trkpt>
      <trkpt lat="47.641903" lon="7.736757">
        <ele>328.330189</ele>
        <time>2021-11-21T09:16:49.405Z</time>
      </trkpt>
      <trkpt lat="47.641790" lon="7.736333">
        <ele>328.112485</ele>
        <time>2021-11-21T09:16:53.294Z</time>
      </trkpt>
      <trkpt lat="47.641704" lon="7.736074">
        <ele>327.974622</ele>
        <time>2021-11-21T09:16:55.877Z</time>
      </trkpt>
      <trkpt lat="47.641622" lon="7.735797">
        <ele>327.834971</ele>
        <time>2021-11-21T09:16:58.459Z</time>
      </trkpt>
      <trkpt lat="47.641567" lon="7.735539">
        <ele>327.730334</ele>
        <time>2021-11-21T09:17:00.881Z</time>
      </trkpt>
      <trkpt lat="47.641599" lon="7.734994">
        <ele>327.518795</ele>
        <time>2021-11-21T09:17:05.736Z</time>
      </trkpt>
      <trkpt lat="47.641789" lon="7.734288">
        <ele>327.224828</ele>
        <time>2021-11-21T09:17:12.446Z</time>
      </trkpt>
      <trkpt lat="47.641896" lon="7.733974">
        <ele>327.088766</ele>
        <time>2021-11-21T09:17:15.528Z</time>
      </trkpt>
      <trkpt lat="47.642073" lon="7.733685">
        <ele>326.937747</ele>
        <time>2021-11-21T09:17:19.029Z</time>
      </trkpt>
      <trkpt lat="47.642195" lon="7.733475">
        <ele>326.830528</ele>
        <time>2021-11-21T09:17:21.510Z</time>
      </trkpt>
      <trkpt lat="47.642261" lon="7.733306">
        <ele>326.729242</ele>
        <time>2021-11-21T09:17:23.230Z</time>
      </trkpt>
      <trkpt lat="47.642344" lon="7.733092">
        <ele>326.597710</ele>
        <time>2021-11-21T09:17:25.361Z</time>
      </trkpt>
      <trkpt lat="47.642408" lon="7.732927">
        <ele>326.496294</ele>
        <time>2021-11-21T09:17:27.021Z</time>
      </trkpt>
      <trkpt lat="47.642435" lon="7.732816">
        <ele>326.433431</ele>
        <time>2021-11-21T09:17:28.031Z</time>
      </trkpt>
      <trkpt lat="47.642652" lon="7.731911">
        <ele>325.921738</ele>
        <time>2021-11-21T09:17:36.172Z</time>
      </trkpt>
      <trkpt lat="47.642752" lon="7.731418">
        <ele>325.647485</ele>
        <time>2021-11-21T09:17:40.492Z</time>
      </trkpt>
      <trkpt lat="47.642777" lon="7.731298">
        <ele>325.580578</ele>
        <time>2021-11-21T09:17:41.549Z</time>
      </trkpt>
      <trkpt lat="47.642812" lon="7.731060">
        <ele>325.450816</ele>
        <time>2021-11-21T09:17:43.592Z</time>
      </trkpt>
      <trkpt lat="47.642863" lon="7.730665">
        <ele>325.233123</ele>
        <time>2021-11-21T09:17:46.853Z</time>
      </trkpt>
      <trkpt lat="47.642944" lon="7.730005">
        <ele>324.868265</ele>
        <time>2021-11-21T09:17:52.505Z</time>
      </trkpt>
      <trkpt lat="47.643034" lon="7.729585">
        <ele>324.628567</ele>
        <time>2021-11-21T09:17:56.162Z</time>
      </trkpt>
      <trkpt lat="47.643209" lon="7.728752">
        <ele>324.154017</ele>
        <time>2021-11-21T09:18:03.715Z</time>
      </trkpt>
      <trkpt lat="47.643226" lon="7.728673">
        <ele>324.108913</ele>
        <time>2021-11-21T09:18:04.344Z</time>
      </trkpt>
      <trkpt lat="47.643271" lon="7.728166">
        <ele>323.871208</ele>
        <time>2021-11-21T09:18:08.916Z</time>
      </trkpt>
      <trkpt lat="47.643223" lon="7.727611">
        <ele>323.670704</ele>
        <time>2021-11-21T09:18:13.804Z</time>
      </trkpt>
      <trkpt lat="47.643078" lon="7.727124">
        <ele>323.479917</ele>
        <time>2021-11-21T09:18:18.570Z</time>
      </trkpt>
      <trkpt lat="47.642780" lon="7.726673">
        <ele>323.253563</ele>
        <time>2021-11-21T09:18:24.160Z</time>
      </trkpt>
      <trkpt lat="47.642747" lon="7.726635">
        <ele>323.231349</ele>
        <time>2021-11-21T09:18:24.849Z</time>
      </trkpt>
      <trkpt lat="47.642298" lon="7.726232">
        <ele>322.936497</ele>
        <time>2021-11-21T09:18:31.784Z</time>
      </trkpt>
      <trkpt lat="47.642075" lon="7.725935">
        <ele>322.714858</ele>
        <time>2021-11-21T09:18:35.791Z</time>
      </trkpt>
      <trkpt lat="47.641806" lon="7.725383">
        <ele>322.375316</ele>
        <time>2021-11-21T09:18:41.764Z</time>
      </trkpt>
      <trkpt lat="47.641621" lon="7.724812">
        <ele>322.059529</ele>
        <time>2021-11-21T09:18:47.325Z</time>
      </trkpt>
      <trkpt lat="47.641338" lon="7.723656">
        <ele>321.268836</ele>
        <time>2021-11-21T09:18:57.281Z</time>
      </trkpt>
      <trkpt lat="47.641072" lon="7.722626">
        <ele>320.266024</ele>
        <time>2021-11-21T09:19:05.903Z</time>
      </trkpt>
      <trkpt lat="47.640984" lon="7.722331">
        <ele>319.972726</ele>
        <time>2021-11-21T09:19:08.391Z</time>
      </trkpt>
      <trkpt lat="47.640966" lon="7.722267">
        <ele>319.909677</ele>
        <time>2021-11-21T09:19:08.922Z</time>
      </trkpt>
      <trkpt lat="47.640786" lon="7.721766">
        <ele>319.393501</ele>
        <time>2021-11-21T09:19:13.364Z</time>
      </trkpt>
      <trkpt lat="47.640553" lon="7.721064">
        <ele>318.856779</ele>
        <time>2021-11-21T09:19:19.623Z</time>
      </trkpt>
      <trkpt lat="47.640301" lon="7.720147">
        <ele>318.240796</ele>
        <time>2021-11-21T09:19:27.583Z</time>
      </trkpt>
      <trkpt lat="47.640077" lon="7.719090">
        <ele>317.562774</ele>
        <time>2021-11-21T09:19:37.329Z</time>
      </trkpt>
      <trkpt lat="47.640089" lon="7.717983">
        <ele>317.205121</ele>
        <time>2021-11-21T09:19:47.683Z</time>
      </trkpt>
      <trkpt lat="47.640337" lon="7.716172">
        <ele>316.561030</ele>
        <time>2021-11-21T09:20:04.173Z</time>
      </trkpt>
      <trkpt lat="47.640377" lon="7.714779">
        <ele>315.907357</ele>
        <time>2021-11-21T09:20:16.144Z</time>
      </trkpt>
      <trkpt lat="47.640426" lon="7.714418">
        <ele>315.734709</ele>
        <time>2021-11-21T09:20:33.401Z</time>
      </trkpt>
      <trkpt lat="47.640600" lon="7.713570">
        <ele>315.288092</ele>
        <time>2021-11-21T09:21:14.919Z</time>
      </trkpt>
      <trkpt lat="47.640623" lon="7.713457">
        <ele>315.220648</ele>
        <time>2021-11-21T09:21:20.447Z</time>
      </trkpt>
      <trkpt lat="47.640852" lon="7.712341">
        <ele>314.554104</ele>
        <time>2021-11-21T09:22:15.067Z</time>
      </trkpt>
      <trkpt lat="47.640881" lon="7.712240">
        <ele>314.491376</ele>
        <time>2021-11-21T09:22:20.206Z</time>
      </trkpt>
      <trkpt lat="47.641144" lon="7.712131">
        <ele>314.259824</ele>
        <time>2021-11-21T09:22:39.185Z</time>
      </trkpt>
      <trkpt lat="47.641635" lon="7.711815">
        <ele>313.812505</ele>
        <time>2021-11-21T09:23:16.423Z</time>
      </trkpt>
      <trkpt lat="47.641900" lon="7.711551">
        <ele>313.555422</ele>
        <time>2021-11-21T09:23:38.596Z</time>
      </trkpt>
      <trkpt lat="47.642146" lon="7.711201">
        <ele>313.280932</ele>
        <time>2021-11-21T09:24:02.244Z</time>
      </trkpt>
      <trkpt lat="47.642355" lon="7.710752">
        <ele>312.984757</ele>
        <time>2021-11-21T09:24:27.831Z</time>
      </trkpt>
      <trkpt lat="47.642530" lon="7.710206">
        <ele>312.656618</ele>
        <time>2021-11-21T09:24:56.126Z</time>
      </trkpt>
      <trkpt lat="47.642648" lon="7.709631">
        <ele>312.396288</ele>
        <time>2021-11-21T09:25:24.252Z</time>
      </trkpt>
      <trkpt lat="47.642720" lon="7.708963">
        <ele>312.183653</ele>
        <time>2021-11-21T09:25:55.935Z</time>
      </trkpt>
      <trkpt lat="47.642707" lon="7.708279">
        <ele>311.968573</ele>
        <time>2021-11-21T09:26:27.975Z</time>
      </trkpt>
      <trkpt lat="47.642704" lon="7.708162">
        <ele>311.931771</ele>
        <time>2021-11-21T09:26:33.463Z</time>
      </trkpt>
      <trkpt lat="47.642495" lon="7.706705">
        <ele>311.466234</ele>
        <time>2021-11-21T09:27:43.199Z</time>
      </trkpt>
      <trkpt lat="47.642217" lon="7.705535">
        <ele>311.081973</ele>
        <time>2021-11-21T09:28:41.289Z</time>
      </trkpt>
      <trkpt lat="47.642140" lon="7.704896">
        <ele>310.880913</ele>
        <time>2021-11-21T09:29:11.702Z</time>
      </trkpt>
      <trkpt lat="47.642168" lon="7.704257">
        <ele>310.709155</ele>
        <time>2021-11-21T09:29:17.421Z</time>
      </trkpt>
      <trkpt lat="47.642231" lon="7.703875">
        <ele>310.610733</ele>
        <time>2021-11-21T09:29:20.937Z</time>
      </trkpt>
      <trkpt lat="47.642493" lon="7.702850">
        <ele>310.336379</ele>
        <time>2021-11-21T09:29:30.876Z</time>
      </trkpt>
      <trkpt lat="47.642695" lon="7.702295">
        <ele>310.178516</ele>
        <time>2021-11-21T09:29:36.677Z</time>
      </trkpt>
      <trkpt lat="47.642742" lon="7.702215">
        <ele>310.153295</ele>
        <time>2021-11-21T09:29:37.727Z</time>
      </trkpt>
      <trkpt lat="47.642870" lon="7.701997">
        <ele>310.181843</ele>
        <time>2021-11-21T09:29:40.506Z</time>
      </trkpt>
      <trkpt lat="47.642878" lon="7.701983">
        <ele>310.183656</ele>
        <time>2021-11-21T09:29:40.683Z</time>
      </trkpt>
      <trkpt lat="47.642924" lon="7.701899">
        <ele>310.194343</ele>
        <time>2021-11-21T09:29:41.759Z</time>
      </trkpt>
      <trkpt lat="47.643468" lon="7.701190">
        <ele>310.300427</ele>
        <time>2021-11-21T09:29:52.817Z</time>
      </trkpt>
      <trkpt lat="47.643665" lon="7.700847">
        <ele>310.344924</ele>
        <time>2021-11-21T09:29:57.709Z</time>
      </trkpt>
      <trkpt lat="47.643895" lon="7.700099">
        <ele>310.441361</ele>
        <time>2021-11-21T09:30:06.796Z</time>
      </trkpt>
      <trkpt lat="47.643937" lon="7.699377">
        <ele>310.626402</ele>
        <time>2021-11-21T09:30:14.694Z</time>
      </trkpt>
      <trkpt lat="47.643926" lon="7.698996">
        <ele>310.723776</ele>
        <time>2021-11-21T09:30:18.764Z</time>
      </trkpt>
      <trkpt lat="47.643899" lon="7.698592">
        <ele>310.827439</ele>
        <time>2021-11-21T09:30:23.147Z</time>
      </trkpt>
      <trkpt lat="47.643975" lon="7.697534">
        <ele>311.098479</ele>
        <time>2021-11-21T09:30:35.137Z</time>
      </trkpt>
      <trkpt lat="47.643987" lon="7.697129">
        <ele>311.134075</ele>
        <time>2021-11-21T09:30:39.589Z</time>
      </trkpt>
      <trkpt lat="47.643978" lon="7.696873">
        <ele>311.156584</ele>
        <time>2021-11-21T09:30:42.695Z</time>
      </trkpt>
      <trkpt lat="47.643930" lon="7.696619">
        <ele>311.179747</ele>
        <time>2021-11-21T09:30:45.423Z</time>
      </trkpt>
      <trkpt lat="47.643898" lon="7.696505">
        <ele>311.190591</ele>
        <time>2021-11-21T09:30:46.910Z</time>
      </trkpt>
      <trkpt lat="47.643608" lon="7.695441">
        <ele>311.291372</ele>
        <time>2021-11-21T09:30:58.281Z</time>
      </trkpt>
      <trkpt lat="47.643574" lon="7.695337">
        <ele>311.301522</ele>
        <time>2021-11-21T09:30:59.308Z</time>
      </trkpt>
      <trkpt lat="47.643504" lon="7.695125">
        <ele>311.322253</ele>
        <time>2021-11-21T09:31:01.589Z</time>
      </trkpt>
      <trkpt lat="47.643275" lon="7.694648">
        <ele>311.204017</ele>
        <time>2021-11-21T09:31:07.292Z</time>
      </trkpt>
      <trkpt lat="47.643174" lon="7.694479">
        <ele>311.142020</ele>
        <time>2021-11-21T09:31:09.454Z</time>
      </trkpt>
      <trkpt lat="47.643091" lon="7.694325">
        <ele>311.087898</ele>
        <time>2021-11-21T09:31:11.390Z</time>
      </trkpt>
      <trkpt lat="47.642923" lon="7.693980">
        <ele>310.971076</ele>
        <time>2021-11-21T09:31:15.368Z</time>
      </trkpt>
      <trkpt lat="47.642878" lon="7.693814">
        <ele>310.921969</ele>
        <time>2021-11-21T09:31:17.090Z</time>
      </trkpt>
      <trkpt lat="47.642838" lon="7.693571">
        <ele>310.853319</ele>
        <time>2021-11-21T09:31:19.340Z</time>
      </trkpt>
      <trkpt lat="47.642813" lon="7.693423">
        <ele>310.811445</ele>
        <time>2021-11-21T09:31:20.734Z</time>
      </trkpt>
      <trkpt lat="47.642769" lon="7.692680">
        <ele>310.606750</ele>
        <time>2021-11-21T09:31:27.239Z</time>
      </trkpt>
      <trkpt lat="47.642688" lon="7.692211">
        <ele>310.185363</ele>
        <time>2021-11-21T09:31:31.175Z</time>
      </trkpt>
      <trkpt lat="47.642598" lon="7.691781">
        <ele>309.778916</ele>
        <time>2021-11-21T09:31:34.808Z</time>
      </trkpt>
      <trkpt lat="47.642473" lon="7.691337">
        <ele>309.344545</ele>
        <time>2021-11-21T09:31:38.664Z</time>
      </trkpt>
      <trkpt lat="47.642386" lon="7.691121">
        <ele>309.117383</ele>
        <time>2021-11-21T09:31:40.700Z</time>
      </trkpt>
      <trkpt lat="47.641908" lon="7.690348">
        <ele>308.162852</ele>
        <time>2021-11-21T09:31:48.794Z</time>
      </trkpt>
      <trkpt lat="47.641094" lon="7.688925">
        <ele>305.848207</ele>
        <time>2021-11-21T09:32:02.399Z</time>
      </trkpt>
      <trkpt lat="47.640572" lon="7.688417">
        <ele>304.821679</ele>
        <time>2021-11-21T09:32:09.597Z</time>
      </trkpt>
      <trkpt lat="47.640498" lon="7.688336">
        <ele>304.767032</ele>
        <time>2021-11-21T09:32:10.566Z</time>
      </trkpt>
      <trkpt lat="47.640307" lon="7.687981">
        <ele>304.585111</ele>
        <time>2021-11-21T09:32:14.299Z</time>
      </trkpt>
      <trkpt lat="47.640138" lon="7.687577">
        <ele>304.394686</ele>
        <time>2021-11-21T09:32:18.308Z</time>
      </trkpt>
      <trkpt lat="47.639603" lon="7.685917">
        <ele>303.883079</ele>
        <time>2021-11-21T09:32:36.099Z</time>
      </trkpt>
      <trkpt lat="47.639535" lon="7.685723">
        <ele>303.924279</ele>
        <time>2021-11-21T09:32:38.521Z</time>
      </trkpt>
      <trkpt lat="47.639365" lon="7.685244">
        <ele>304.026277</ele>
        <time>2021-11-21T09:32:44.547Z</time>
      </trkpt>
      <trkpt lat="47.639233" lon="7.684970">
        <ele>304.089736</ele>
        <time>2021-11-21T09:32:48.214Z</time>
      </trkpt>
      <trkpt lat="47.639195" lon="7.684892">
        <ele>304.107870</ele>
        <time>2021-11-21T09:32:49.284Z</time>
      </trkpt>
      <trkpt lat="47.638975" lon="7.684532">
        <ele>304.199436</ele>
        <time>2021-11-21T09:32:54.616Z</time>
      </trkpt>
      <trkpt lat="47.639001" lon="7.684470">
        <ele>304.213195</ele>
        <time>2021-11-21T09:32:55.532Z</time>
      </trkpt>
      <trkpt lat="47.639006" lon="7.684397">
        <ele>304.227019</ele>
        <time>2021-11-21T09:32:56.359Z</time>
      </trkpt>
      <trkpt lat="47.638989" lon="7.684329">
        <ele>304.240684</ele>
        <time>2021-11-21T09:32:57.332Z</time>
      </trkpt>
      <trkpt lat="47.638955" lon="7.684280">
        <ele>304.253936</ele>
        <time>2021-11-21T09:32:57.999Z</time>
      </trkpt>
      <trkpt lat="47.638863" lon="7.684265">
        <ele>304.279815</ele>
        <time>2021-11-21T09:32:59.564Z</time>
      </trkpt>
      <trkpt lat="47.638822" lon="7.684303">
        <ele>304.293331</ele>
        <time>2021-11-21T09:33:00.182Z</time>
      </trkpt>
      <trkpt lat="47.638653" lon="7.684040">
        <ele>304.566261</ele>
        <time>2021-11-21T09:33:04.333Z</time>
      </trkpt>
      <trkpt lat="47.638372" lon="7.683486">
        <ele>305.254867</ele>
        <time>2021-11-21T09:33:11.660Z</time>
      </trkpt>
      <trkpt lat="47.637949" lon="7.682314">
        <ele>306.575184</ele>
        <time>2021-11-21T09:33:29.012Z</time>
      </trkpt>
      <trkpt lat="47.637862" lon="7.681907">
        <ele>307.125146</ele>
        <time>2021-11-21T09:33:36.973Z</time>
      </trkpt>
      <trkpt lat="47.637803" lon="7.681627">
        <ele>308.481623</ele>
        <time>2021-11-21T09:33:42.882Z</time>
      </trkpt>
      <trkpt lat="47.638116" lon="7.681592">
        <ele>310.635533</ele>
        <time>2021-11-21T09:33:54.504Z</time>
      </trkpt>
      <trkpt lat="47.638636" lon="7.681567">
        <ele>314.205670</ele>
        <time>2021-11-21T09:34:15.691Z</time>
      </trkpt>
      <trkpt lat="47.638636" lon="7.681567">
        <ele>314.205670</ele>
        <time>2021-11-21T09:34:15.790Z</time>
      </trkpt>
      <trkpt lat="47.638900" lon="7.681595">
        <ele>316.021872</ele>
        <time>2021-11-21T09:34:27.560Z</time>
      </trkpt>
      <trkpt lat="47.639175" lon="7.681624">
        <ele>317.913693</ele>
        <time>2021-11-21T09:34:42.126Z</time>
      </trkpt>
      <trkpt lat="47.640693" lon="7.681760">
        <ele>332.001949</ele>
        <time>2021-11-21T09:36:07.788Z</time>
      </trkpt>
      <trkpt lat="47.641068" lon="7.681758">
        <ele>335.614755</ele>
        <time>2021-11-21T09:36:26.741Z</time>
      </trkpt>
      <trkpt lat="47.641616" lon="7.681644">
        <ele>339.542046</ele>
        <time>2021-11-21T09:36:52.686Z</time>
      </trkpt>
      <trkpt lat="47.642006" lon="7.681456">
        <ele>342.205965</ele>
        <time>2021-11-21T09:37:10.241Z</time>
      </trkpt>
      <trkpt lat="47.643017" lon="7.680763">
        <ele>348.974023</ele>
        <time>2021-11-21T09:37:51.331Z</time>
      </trkpt>
      <trkpt lat="47.644142" lon="7.680540">
        <ele>353.276827</ele>
        <time>2021-11-21T09:38:25.916Z</time>
      </trkpt>
      <trkpt lat="47.644455" lon="7.680425">
        <ele>354.499242</ele>
        <time>2021-11-21T09:38:35.038Z</time>
      </trkpt>
      <trkpt lat="47.645821" lon="7.679140">
        <ele>357.245247</ele>
        <time>2021-11-21T09:39:12.586Z</time>
      </trkpt>
      <trkpt lat="47.646053" lon="7.678878">
        <ele>357.669132</ele>
        <time>2021-11-21T09:39:16.318Z</time>
      </trkpt>
      <trkpt lat="47.646778" lon="7.677951">
        <ele>357.371578</ele>
        <time>2021-11-21T09:39:27.428Z</time>
      </trkpt>
      <trkpt lat="47.646862" lon="7.677751">
        <ele>357.303900</ele>
        <time>2021-11-21T09:39:29.065Z</time>
      </trkpt>
      <trkpt lat="47.646928" lon="7.677359">
        <ele>357.187872</ele>
        <time>2021-11-21T09:39:33.370Z</time>
      </trkpt>
      <trkpt lat="47.646930" lon="7.677283">
        <ele>357.166031</ele>
        <time>2021-11-21T09:39:33.891Z</time>
      </trkpt>
      <trkpt lat="47.646957" lon="7.676149">
        <ele>359.257354</ele>
        <time>2021-11-21T09:39:47.423Z</time>
      </trkpt>
      <trkpt lat="47.647051" lon="7.675743">
        <ele>361.153034</ele>
        <time>2021-11-21T09:39:55.629Z</time>
      </trkpt>
      <trkpt lat="47.647154" lon="7.675375">
        <ele>362.912658</ele>
        <time>2021-11-21T09:40:05.943Z</time>
      </trkpt>
      <trkpt lat="47.647318" lon="7.674878">
        <ele>365.356353</ele>
        <time>2021-11-21T09:40:22.669Z</time>
      </trkpt>
      <trkpt lat="47.647541" lon="7.674506">
        <ele>367.555117</ele>
        <time>2021-11-21T09:40:41.333Z</time>
      </trkpt>
      <trkpt lat="47.647684" lon="7.674376">
        <ele>368.654209</ele>
        <time>2021-11-21T09:40:51.521Z</time>
      </trkpt>
      <trkpt lat="47.648515" lon="7.674168">
        <ele>379.944405</ele>
        <time>2021-11-21T09:41:52.994Z</time>
      </trkpt>
      <trkpt lat="47.649516" lon="7.673905">
        <ele>393.613292</ele>
        <time>2021-11-21T09:43:05.076Z</time>
      </trkpt>
      <trkpt lat="47.649665" lon="7.673798">
        <ele>395.430264</ele>
        <time>2021-11-21T09:43:16.971Z</time>
      </trkpt>
      <trkpt lat="47.650075" lon="7.673427">
        <ele>400.701273</ele>
        <time>2021-11-21T09:43:47.523Z</time>
      </trkpt>
      <trkpt lat="47.651238" lon="7.671710">
        <ele>417.257182</ele>
        <time>2021-11-21T09:45:15.491Z</time>
      </trkpt>
      <trkpt lat="47.651614" lon="7.671110">
        <ele>421.804892</ele>
        <time>2021-11-21T09:45:41.056Z</time>
      </trkpt>
      <trkpt lat="47.651649" lon="7.671026">
        <ele>422.353016</ele>
        <time>2021-11-21T09:45:43.771Z</time>
      </trkpt>
      <trkpt lat="47.651804" lon="7.670710">
        <ele>424.522287</ele>
        <time>2021-11-21T09:45:57.438Z</time>
      </trkpt>
      <trkpt lat="47.652245" lon="7.669610">
        <ele>429.632640</ele>
        <time>2021-11-21T09:46:33.805Z</time>
      </trkpt>
      <trkpt lat="47.652350" lon="7.669122">
        <ele>431.026702</ele>
        <time>2021-11-21T09:46:45.710Z</time>
      </trkpt>
      <trkpt lat="47.652366" lon="7.668781">
        <ele>431.956892</ele>
        <time>2021-11-21T09:46:53.535Z</time>
      </trkpt>
      <trkpt lat="47.652415" lon="7.668465">
        <ele>432.839291</ele>
        <time>2021-11-21T09:46:58.440Z</time>
      </trkpt>
      <trkpt lat="47.652450" lon="7.668312">
        <ele>433.278992</ele>
        <time>2021-11-21T09:47:01.317Z</time>
      </trkpt>
      <trkpt lat="47.652507" lon="7.668197">
        <ele>433.667519</ele>
        <time>2021-11-21T09:47:03.298Z</time>
      </trkpt>
      <trkpt lat="47.652647" lon="7.667962">
        <ele>434.521215</ele>
        <time>2021-11-21T09:47:07.845Z</time>
      </trkpt>
      <trkpt lat="47.652917" lon="7.667601">
        <ele>434.717723</ele>
        <time>2021-11-21T09:47:14.893Z</time>
      </trkpt>
      <trkpt lat="47.652935" lon="7.667579">
        <ele>434.693170</ele>
        <time>2021-11-21T09:47:15.408Z</time>
      </trkpt>
      <trkpt lat="47.653055" lon="7.667399">
        <ele>434.513524</ele>
        <time>2021-11-21T09:47:17.930Z</time>
      </trkpt>
      <trkpt lat="47.654439" lon="7.665456">
        <ele>431.064469</ele>
        <time>2021-11-21T09:47:39.079Z</time>
      </trkpt>
      <trkpt lat="47.654628" lon="7.665319">
        <ele>430.290884</ele>
        <time>2021-11-21T09:47:41.199Z</time>
      </trkpt>
      <trkpt lat="47.655125" lon="7.665244">
        <ele>428.453486</ele>
        <time>2021-11-21T09:47:46.095Z</time>
      </trkpt>
      <trkpt lat="47.655640" lon="7.665482">
        <ele>426.468328</ele>
        <time>2021-11-21T09:47:51.204Z</time>
      </trkpt>
      <trkpt lat="47.656135" lon="7.665584">
        <ele>422.910650</ele>
        <time>2021-11-21T09:47:55.794Z</time>
      </trkpt>
      <trkpt lat="47.656238" lon="7.665541">
        <ele>422.148955</ele>
        <time>2021-11-21T09:47:56.761Z</time>
      </trkpt>
      <trkpt lat="47.656545" lon="7.665072">
        <ele>419.012996</ele>
        <time>2021-11-21T09:48:00.709Z</time>
      </trkpt>
      <trkpt lat="47.656672" lon="7.664611">
        <ele>416.624688</ele>
        <time>2021-11-21T09:48:03.681Z</time>
      </trkpt>
      <trkpt lat="47.656657" lon="7.664415">
        <ele>415.678793</ele>
        <time>2021-11-21T09:48:04.849Z</time>
      </trkpt>
      <trkpt lat="47.656453" lon="7.663849">
        <ele>412.255055</ele>
        <time>2021-11-21T09:48:08.641Z</time>
      </trkpt>
      <trkpt lat="47.655750" lon="7.662400">
        <ele>400.916154</ele>
        <time>2021-11-21T09:48:19.080Z</time>
      </trkpt>
      <trkpt lat="47.655331" lon="7.659110">
        <ele>377.473728</ele>
        <time>2021-11-21T09:48:38.429Z</time>
      </trkpt>
      <trkpt lat="47.655300" lon="7.658434">
        <ele>371.119745</ele>
        <time>2021-11-21T09:48:42.289Z</time>
      </trkpt>
      <trkpt lat="47.655326" lon="7.657650">
        <ele>363.758742</ele>
        <time>2021-11-21T09:48:46.694Z</time>
      </trkpt>
      <trkpt lat="47.655564" lon="7.656480">
        <ele>352.307833</ele>
        <time>2021-11-21T09:48:53.523Z</time>
      </trkpt>
      <trkpt lat="47.655713" lon="7.655938">
        <ele>347.018285</ele>
        <time>2021-11-21T09:48:56.792Z</time>
      </trkpt>
      <trkpt lat="47.656085" lon="7.654488">
        <ele>332.998357</ele>
        <time>2021-11-21T09:49:05.530Z</time>
      </trkpt>
      <trkpt lat="47.656116" lon="7.654357">
        <ele>331.743761</ele>
        <time>2021-11-21T09:49:06.318Z</time>
      </trkpt>
      <trkpt lat="47.656144" lon="7.654217">
        <ele>330.424183</ele>
        <time>2021-11-21T09:49:07.154Z</time>
      </trkpt>
      <trkpt lat="47.656164" lon="7.654122">
        <ele>329.524845</ele>
        <time>2021-11-21T09:49:07.725Z</time>
      </trkpt>
      <trkpt lat="47.656174" lon="7.654068">
        <ele>329.018815</ele>
        <time>2021-11-21T09:49:08.035Z</time>
      </trkpt>
      <trkpt lat="47.656195" lon="7.653874">
        <ele>327.750078</ele>
        <time>2021-11-21T09:49:09.166Z</time>
      </trkpt>
      <trkpt lat="47.656207" lon="7.653596">
        <ele>326.286896</ele>
        <time>2021-11-21T09:49:10.804Z</time>
      </trkpt>
      <trkpt lat="47.656210" lon="7.653412">
        <ele>325.320159</ele>
        <time>2021-11-21T09:49:11.879Z</time>
      </trkpt>
      <trkpt lat="47.656212" lon="7.653185">
        <ele>324.127746</ele>
        <time>2021-11-21T09:49:13.237Z</time>
      </trkpt>
      <trkpt lat="47.656186" lon="7.652807">
        <ele>322.131988</ele>
        <time>2021-11-21T09:49:15.513Z</time>
      </trkpt>
      <trkpt lat="47.656143" lon="7.652498">
        <ele>320.474699</ele>
        <time>2021-11-21T09:49:17.426Z</time>
      </trkpt>
      <trkpt lat="47.656109" lon="7.652341">
        <ele>319.608487</ele>
        <time>2021-11-21T09:49:18.417Z</time>
      </trkpt>
      <trkpt lat="47.656076" lon="7.652187">
        <ele>318.759660</ele>
        <time>2021-11-21T09:49:19.427Z</time>
      </trkpt>
      <trkpt lat="47.656059" lon="7.652111">
        <ele>318.339035</ele>
        <time>2021-11-21T09:49:19.920Z</time>
      </trkpt>
      <trkpt lat="47.655909" lon="7.651674">
        <ele>315.762850</ele>
        <time>2021-11-21T09:49:22.947Z</time>
      </trkpt>
      <trkpt lat="47.655781" lon="7.651370">
        <ele>313.997262</ele>
        <time>2021-11-21T09:49:25.153Z</time>
      </trkpt>
      <trkpt lat="47.655475" lon="7.650868">
        <ele>311.203190</ele>
        <time>2021-11-21T09:49:29.354Z</time>
      </trkpt>
      <trkpt lat="47.655167" lon="7.650459">
        <ele>308.671388</ele>
        <time>2021-11-21T09:49:33.099Z</time>
      </trkpt>
      <trkpt lat="47.655143" lon="7.650423">
        <ele>308.462356</ele>
        <time>2021-11-21T09:49:33.421Z</time>
      </trkpt>
      <trkpt lat="47.654845" lon="7.649980">
        <ele>305.878569</ele>
        <time>2021-11-21T09:49:37.245Z</time>
      </trkpt>
      <trkpt lat="47.654680" lon="7.649691">
        <ele>304.315085</ele>
        <time>2021-11-21T09:49:39.535Z</time>
      </trkpt>
      <trkpt lat="47.654475" lon="7.649060">
        <ele>302.316801</ele>
        <time>2021-11-21T09:49:43.952Z</time>
      </trkpt>
      <trkpt lat="47.654417" lon="7.648789">
        <ele>301.671392</ele>
        <time>2021-11-21T09:49:45.744Z</time>
      </trkpt>
      <trkpt lat="47.654389" lon="7.648478">
        <ele>300.959217</ele>
        <time>2021-11-21T09:49:47.890Z</time>
      </trkpt>
      <trkpt lat="47.654380" lon="7.648290">
        <ele>300.531424</ele>
        <time>2021-11-21T09:49:49.148Z</time>
      </trkpt>
      <trkpt lat="47.654380" lon="7.648132">
        <ele>300.172800</ele>
        <time>2021-11-21T09:49:50.213Z</time>
      </trkpt>
      <trkpt lat="47.654380" lon="7.648132">
        <ele>300.172800</ele>
        <time>2021-11-21T09:49:50.216Z</time>
      </trkpt>
      <trkpt lat="47.654381" lon="7.647997">
        <ele>299.866363</ele>
        <time>2021-11-21T09:49:51.354Z</time>
      </trkpt>
      <trkpt lat="47.654384" lon="7.647951">
        <ele>299.761465</ele>
        <time>2021-11-21T09:49:51.669Z</time>
      </trkpt>
      <trkpt lat="47.654392" lon="7.647811">
        <ele>299.442556</ele>
        <time>2021-11-21T09:49:52.634Z</time>
      </trkpt>
      <trkpt lat="47.654398" lon="7.647707">
        <ele>299.205636</ele>
        <time>2021-11-21T09:49:53.333Z</time>
      </trkpt>
      <trkpt lat="47.654669" lon="7.647768">
        <ele>298.282036</ele>
        <time>2021-11-21T09:49:56.522Z</time>
      </trkpt>
      <trkpt lat="47.654884" lon="7.647829">
        <ele>297.544460</ele>
        <time>2021-11-21T09:49:59.013Z</time>
      </trkpt>
      <trkpt lat="47.655058" lon="7.647893">
        <ele>297.131660</ele>
        <time>2021-11-21T09:50:01.041Z</time>
      </trkpt>
      <trkpt lat="47.655308" lon="7.647995">
        <ele>296.668614</ele>
        <time>2021-11-21T09:50:04.062Z</time>
      </trkpt>
      <trkpt lat="47.655695" lon="7.648164">
        <ele>295.948163</ele>
        <time>2021-11-21T09:50:08.809Z</time>
      </trkpt>
      <trkpt lat="47.655784" lon="7.648221">
        <ele>295.775052</ele>
        <time>2021-11-21T09:50:09.834Z</time>
      </trkpt>
      <trkpt lat="47.656037" lon="7.648382">
        <ele>295.283442</ele>
        <time>2021-11-21T09:50:14.037Z</time>
      </trkpt>
      <trkpt lat="47.656217" lon="7.648446">
        <ele>294.952877</ele>
        <time>2021-11-21T09:50:16.196Z</time>
      </trkpt>
      <trkpt lat="47.656305" lon="7.648458">
        <ele>294.795050</ele>
        <time>2021-11-21T09:50:17.106Z</time>
      </trkpt>
      <trkpt lat="47.656655" lon="7.648456">
        <ele>294.169957</ele>
        <time>2021-11-21T09:50:20.779Z</time>
      </trkpt>
      <trkpt lat="47.656764" lon="7.648472">
        <ele>293.832607</ele>
        <time>2021-11-21T09:50:21.897Z</time>
      </trkpt>
      <trkpt lat="47.656764" lon="7.648350">
        <ele>293.556387</ele>
        <time>2021-11-21T09:50:23.036Z</time>
      </trkpt>
      <trkpt lat="47.656611" lon="7.647264">
        <ele>291.044361</ele>
        <time>2021-11-21T09:50:33.514Z</time>
      </trkpt>
      <trkpt lat="47.656592" lon="7.647080">
        <ele>290.622898</ele>
        <time>2021-11-21T09:50:35.230Z</time>
      </trkpt>
      <trkpt lat="47.656592" lon="7.646985">
        <ele>290.407808</ele>
        <time>2021-11-21T09:50:36.109Z</time>
      </trkpt>
      <trkpt lat="47.656590" lon="7.646845">
        <ele>290.090761</ele>
        <time>2021-11-21T09:50:37.417Z</time>
      </trkpt>
      <trkpt lat="47.656693" lon="7.645708">
        <ele>288.341779</ele>
        <time>2021-11-21T09:50:48.700Z</time>
      </trkpt>
      <trkpt lat="47.656690" lon="7.645084">
        <ele>288.940761</ele>
        <time>2021-11-21T09:50:56.064Z</time>
      </trkpt>
      <trkpt lat="47.656687" lon="7.644979">
        <ele>289.041639</ele>
        <time>2021-11-21T09:50:57.386Z</time>
      </trkpt>
      <trkpt lat="47.656680" lon="7.644786">
        <ele>289.227165</ele>
        <time>2021-11-21T09:51:00.426Z</time>
      </trkpt>
      <trkpt lat="47.656666" lon="7.644366">
        <ele>289.630810</ele>
        <time>2021-11-21T09:51:08.418Z</time>
      </trkpt>
      <trkpt lat="47.656659" lon="7.644159">
        <ele>289.829756</ele>
        <time>2021-11-21T09:51:12.701Z</time>
      </trkpt>
      <trkpt lat="47.656573" lon="7.643447">
        <ele>290.524095</ele>
        <time>2021-11-21T09:51:29.991Z</time>
      </trkpt>
      <trkpt lat="47.656422" lon="7.642769">
        <ele>293.233229</ele>
        <time>2021-11-21T09:51:50.995Z</time>
      </trkpt>
      <trkpt lat="47.656419" lon="7.642102">
        <ele>296.198793</ele>
        <time>2021-11-21T09:52:13.302Z</time>
      </trkpt>
      <trkpt lat="47.656337" lon="7.640998">
        <ele>301.136958</ele>
        <time>2021-11-21T09:52:52.963Z</time>
      </trkpt>
      <trkpt lat="47.656154" lon="7.639457">
        <ele>304.756917</ele>
        <time>2021-11-21T09:53:35.538Z</time>
      </trkpt>
      <trkpt lat="47.656064" lon="7.639085">
        <ele>305.461324</ele>
        <time>2021-11-21T09:53:43.490Z</time>
      </trkpt>
      <trkpt lat="47.655938" lon="7.638722">
        <ele>306.189069</ele>
        <time>2021-11-21T09:53:50.492Z</time>
      </trkpt>
      <trkpt lat="47.655874" lon="7.638301">
        <ele>306.958206</ele>
        <time>2021-11-21T09:53:56.060Z</time>
      </trkpt>
      <trkpt lat="47.655962" lon="7.637300">
        <ele>305.513939</ele>
        <time>2021-11-21T09:54:06.502Z</time>
      </trkpt>
      <trkpt lat="47.655962" lon="7.636816">
        <ele>304.478594</ele>
        <time>2021-11-21T09:54:11.042Z</time>
      </trkpt>
      <trkpt lat="47.655892" lon="7.636178">
        <ele>303.095833</ele>
        <time>2021-11-21T09:54:17.135Z</time>
      </trkpt>
      <trkpt lat="47.655970" lon="7.634849">
        <ele>300.532812</ele>
        <time>2021-11-21T09:54:29.819Z</time>
      </trkpt>
      <trkpt lat="47.655998" lon="7.634363">
        <ele>299.717603</ele>
        <time>2021-11-21T09:54:34.582Z</time>
      </trkpt>
      <trkpt lat="47.656096" lon="7.633909">
        <ele>298.920833</ele>
        <time>2021-11-21T09:54:39.433Z</time>
      </trkpt>
      <trkpt lat="47.656214" lon="7.633607">
        <ele>298.337336</ele>
        <time>2021-11-21T09:54:43.152Z</time>
      </trkpt>
      <trkpt lat="47.656233" lon="7.633562">
        <ele>298.248575</ele>
        <time>2021-11-21T09:54:43.718Z</time>
      </trkpt>
      <trkpt lat="47.656734" lon="7.632614">
        <ele>297.265750</ele>
        <time>2021-11-21T09:54:57.777Z</time>
      </trkpt>
      <trkpt lat="47.656972" lon="7.631353">
        <ele>297.660032</ele>
        <time>2021-11-21T09:55:16.038Z</time>
      </trkpt>
      <trkpt lat="47.657080" lon="7.630936">
        <ele>297.794543</ele>
        <time>2021-11-21T09:55:23.726Z</time>
      </trkpt>
      <trkpt lat="47.657235" lon="7.630545">
        <ele>298.009005</ele>
        <time>2021-11-21T09:55:32.649Z</time>
      </trkpt>
      <trkpt lat="47.657652" lon="7.629321">
        <ele>300.132824</ele>
        <time>2021-11-21T09:56:00.792Z</time>
      </trkpt>
      <trkpt lat="47.657751" lon="7.629012">
        <ele>300.662631</ele>
        <time>2021-11-21T09:56:08.218Z</time>
      </trkpt>
      <trkpt lat="47.657804" lon="7.628848">
        <ele>300.944275</ele>
        <time>2021-11-21T09:56:12.091Z</time>
      </trkpt>
      <trkpt lat="47.658122" lon="7.628025">
        <ele>302.228854</ele>
        <time>2021-11-21T09:56:30.286Z</time>
      </trkpt>
      <trkpt lat="47.658235" lon="7.627298">
        <ele>302.802327</ele>
        <time>2021-11-21T09:56:42.968Z</time>
      </trkpt>
      <trkpt lat="47.658224" lon="7.627150">
        <ele>302.916774</ele>
        <time>2021-11-21T09:56:46.132Z</time>
      </trkpt>
      <trkpt lat="47.657963" lon="7.627203">
        <ele>303.217386</ele>
        <time>2021-11-21T09:56:50.452Z</time>
      </trkpt>
      <trkpt lat="47.657708" lon="7.627233">
        <ele>303.509291</ele>
        <time>2021-11-21T09:56:55.223Z</time>
      </trkpt>
      <trkpt lat="47.657411" lon="7.627222">
        <ele>303.848317</ele>
        <time>2021-11-21T09:57:00.013Z</time>
      </trkpt>
      <trkpt lat="47.657348" lon="7.627373">
        <ele>303.984843</ele>
        <time>2021-11-21T09:57:01.879Z</time>
      </trkpt>
      <trkpt lat="47.657128" lon="7.627627">
        <ele>304.424567</ele>
        <time>2021-11-21T09:57:07.213Z</time>
      </trkpt>
      <trkpt lat="47.656643" lon="7.627508">
        <ele>305.321204</ele>
        <time>2021-11-21T09:57:16.158Z</time>
      </trkpt>
      <trkpt lat="47.656478" lon="7.627467">
        <ele>305.626350</ele>
        <time>2021-11-21T09:57:18.810Z</time>
      </trkpt>
      <trkpt lat="47.656382" lon="7.627439">
        <ele>305.804801</ele>
        <time>2021-11-21T09:57:21.582Z</time>
      </trkpt>
      <trkpt lat="47.655973" lon="7.627290">
        <ele>306.572947</ele>
        <time>2021-11-21T09:57:31.519Z</time>
      </trkpt>
      <trkpt lat="47.655776" lon="7.627219">
        <ele>306.942710</ele>
        <time>2021-11-21T09:57:36.023Z</time>
      </trkpt>
      <trkpt lat="47.655760" lon="7.627217">
        <ele>306.971997</ele>
        <time>2021-11-21T09:57:36.991Z</time>
      </trkpt>
      <trkpt lat="47.655286" lon="7.627164">
        <ele>308.315506</ele>
        <time>2021-11-21T09:57:50.287Z</time>
      </trkpt>
      <trkpt lat="47.655259" lon="7.627161">
        <ele>308.416181</ele>
        <time>2021-11-21T09:57:51.525Z</time>
      </trkpt>
      <trkpt lat="47.655146" lon="7.627148">
        <ele>308.837609</ele>
        <time>2021-11-21T09:57:54.367Z</time>
      </trkpt>
      <trkpt lat="47.654661" lon="7.626924">
        <ele>310.726238</ele>
        <time>2021-11-21T09:58:10.111Z</time>
      </trkpt>
      <trkpt lat="47.654404" lon="7.626740">
        <ele>311.787164</ele>
        <time>2021-11-21T09:58:18.977Z</time>
      </trkpt>
      <trkpt lat="47.654006" lon="7.626517">
        <ele>313.368941</ele>
        <time>2021-11-21T09:58:32.176Z</time>
      </trkpt>
      <trkpt lat="47.653308" lon="7.626149">
        <ele>315.152683</ele>
        <time>2021-11-21T09:58:53.674Z</time>
      </trkpt>
      <trkpt lat="47.653409" lon="7.625848">
        <ele>315.597208</ele>
        <time>2021-11-21T09:58:59.979Z</time>
      </trkpt>
      <trkpt lat="47.653541" lon="7.625422">
        <ele>316.217058</ele>
        <time>2021-11-21T09:59:06.957Z</time>
      </trkpt>
      <trkpt lat="47.653809" lon="7.624553">
        <ele>317.480452</ele>
        <time>2021-11-21T09:59:18.439Z</time>
      </trkpt>
      <trkpt lat="47.653884" lon="7.624365">
        <ele>317.478649</ele>
        <time>2021-11-21T09:59:20.959Z</time>
      </trkpt>
      <trkpt lat="47.654029" lon="7.624026">
        <ele>317.109971</ele>
        <time>2021-11-21T09:59:24.352Z</time>
      </trkpt>
      <trkpt lat="47.654207" lon="7.623819">
        <ele>316.801791</ele>
        <time>2021-11-21T09:59:27.121Z</time>
      </trkpt>
      <trkpt lat="47.654328" lon="7.623677">
        <ele>316.591568</ele>
        <time>2021-11-21T09:59:28.848Z</time>
      </trkpt>
      <trkpt lat="47.654710" lon="7.623467">
        <ele>316.036369</ele>
        <time>2021-11-21T09:59:33.372Z</time>
      </trkpt>
      <trkpt lat="47.654847" lon="7.623392">
        <ele>315.837354</ele>
        <time>2021-11-21T09:59:34.975Z</time>
      </trkpt>
      <trkpt lat="47.655168" lon="7.623215">
        <ele>315.370642</ele>
        <time>2021-11-21T09:59:38.727Z</time>
      </trkpt>
      <trkpt lat="47.655609" lon="7.622828">
        <ele>314.995737</ele>
        <time>2021-11-21T09:59:44.208Z</time>
      </trkpt>
      <trkpt lat="47.655774" lon="7.622637">
        <ele>314.905130</ele>
        <time>2021-11-21T09:59:46.551Z</time>
      </trkpt>
      <trkpt lat="47.656041" lon="7.622414">
        <ele>314.772464</ele>
        <time>2021-11-21T09:59:50.309Z</time>
      </trkpt>
      <trkpt lat="47.656145" lon="7.622209">
        <ele>314.697604</ele>
        <time>2021-11-21T09:59:53.112Z</time>
      </trkpt>
      <trkpt lat="47.656295" lon="7.622030">
        <ele>314.614263</ele>
        <time>2021-11-21T09:59:55.866Z</time>
      </trkpt>
      <trkpt lat="47.656634" lon="7.621799">
        <ele>314.452734</ele>
        <time>2021-11-21T10:00:02.336Z</time>
      </trkpt>
      <trkpt lat="47.657179" lon="7.621617">
        <ele>315.139078</ele>
        <time>2021-11-21T10:00:13.693Z</time>
      </trkpt>
      <trkpt lat="47.657411" lon="7.621558">
        <ele>315.641447</ele>
        <time>2021-11-21T10:00:18.810Z</time>
      </trkpt>
      <trkpt lat="47.657508" lon="7.621534">
        <ele>315.851329</ele>
        <time>2021-11-21T10:00:21.373Z</time>
      </trkpt>
      <trkpt lat="47.657942" lon="7.621353">
        <ele>316.813468</ele>
        <time>2021-11-21T10:00:32.112Z</time>
      </trkpt>
      <trkpt lat="47.658243" lon="7.621139">
        <ele>317.525753</ele>
        <time>2021-11-21T10:00:40.558Z</time>
      </trkpt>
      <trkpt lat="47.658249" lon="7.621106">
        <ele>317.574890</ele>
        <time>2021-11-21T10:00:41.127Z</time>
      </trkpt>
      <trkpt lat="47.658247" lon="7.621049">
        <ele>317.656942</ele>
        <time>2021-11-21T10:00:42.091Z</time>
      </trkpt>
      <trkpt lat="47.658656" lon="7.620944">
        <ele>318.655220</ele>
        <time>2021-11-21T10:00:52.999Z</time>
      </trkpt>
      <trkpt lat="47.660209" lon="7.620442">
        <ele>323.180196</ele>
        <time>2021-11-21T10:01:35.479Z</time>
      </trkpt>
      <trkpt lat="47.661020" lon="7.620065">
        <ele>324.430470</ele>
        <time>2021-11-21T10:01:56.219Z</time>
      </trkpt>
      <trkpt lat="47.661420" lon="7.619722">
        <ele>325.069005</ele>
        <time>2021-11-21T10:02:05.423Z</time>
      </trkpt>
      <trkpt lat="47.661968" lon="7.619151">
        <ele>325.615672</ele>
        <time>2021-11-21T10:02:15.939Z</time>
      </trkpt>
      <trkpt lat="47.662468" lon="7.618504">
        <ele>324.614907</ele>
        <time>2021-11-21T10:02:23.856Z</time>
      </trkpt>
      <trkpt lat="47.663997" lon="7.616270">
        <ele>320.436716</ele>
        <time>2021-11-21T10:02:47.067Z</time>
      </trkpt>
      <trkpt lat="47.664920" lon="7.615295">
        <ele>316.506676</ele>
        <time>2021-11-21T10:02:59.165Z</time>
      </trkpt>
      <trkpt lat="47.666490" lon="7.613917">
        <ele>305.320866</ele>
        <time>2021-11-21T10:03:15.891Z</time>
      </trkpt>
      <trkpt lat="47.667031" lon="7.613610">
        <ele>300.095963</ele>
        <time>2021-11-21T10:03:20.865Z</time>
      </trkpt>
      <trkpt lat="47.667310" lon="7.613451">
        <ele>297.399952</ele>
        <time>2021-11-21T10:03:23.433Z</time>
      </trkpt>
      <trkpt lat="47.667922" lon="7.613165">
        <ele>291.854026</ele>
        <time>2021-11-21T10:03:28.937Z</time>
      </trkpt>
      <trkpt lat="47.668005" lon="7.613124">
        <ele>291.160806</ele>
        <time>2021-11-21T10:03:29.683Z</time>
      </trkpt>
      <trkpt lat="47.668353" lon="7.612969">
        <ele>288.281497</ele>
        <time>2021-11-21T10:03:32.799Z</time>
      </trkpt>
      <trkpt lat="47.669065" lon="7.612506">
        <ele>282.121540</ele>
        <time>2021-11-21T10:03:39.704Z</time>
      </trkpt>
      <trkpt lat="47.669359" lon="7.612235">
        <ele>279.379194</ele>
        <time>2021-11-21T10:03:42.940Z</time>
      </trkpt>
      <trkpt lat="47.669560" lon="7.612062">
        <ele>278.784819</ele>
        <time>2021-11-21T10:03:45.186Z</time>
      </trkpt>
      <trkpt lat="47.669317" lon="7.611278">
        <ele>277.347589</ele>
        <time>2021-11-21T10:03:51.101Z</time>
      </trkpt>
      <trkpt lat="47.668834" lon="7.609896">
        <ele>274.940443</ele>
        <time>2021-11-21T10:04:03.101Z</time>
      </trkpt>
      <trkpt lat="47.668819" lon="7.609852">
        <ele>274.961570</ele>
        <time>2021-11-21T10:04:03.496Z</time>
      </trkpt>
      <trkpt lat="47.667874" lon="7.607725">
        <ele>276.071307</ele>
        <time>2021-11-21T10:04:34.741Z</time>
      </trkpt>
      <trkpt lat="47.667641" lon="7.606894">
        <ele>277.518243</ele>
        <time>2021-11-21T10:04:48.478Z</time>
      </trkpt>
      <trkpt lat="47.667444" lon="7.606073">
        <ele>278.919226</ele>
        <time>2021-11-21T10:05:03.234Z</time>
      </trkpt>
      <trkpt lat="47.667266" lon="7.605435">
        <ele>280.029307</ele>
        <time>2021-11-21T10:05:15.815Z</time>
      </trkpt>
      <trkpt lat="47.666992" lon="7.604644">
        <ele>281.548870</ele>
        <time>2021-11-21T10:05:32.349Z</time>
      </trkpt>
      <trkpt lat="47.666721" lon="7.603891">
        <ele>283.031310</ele>
        <time>2021-11-21T10:05:47.484Z</time>
      </trkpt>
      <trkpt lat="47.666538" lon="7.603454">
        <ele>283.924819</ele>
        <time>2021-11-21T10:05:56.102Z</time>
      </trkpt>
      <trkpt lat="47.666216" lon="7.602615">
        <ele>285.203534</ele>
        <time>2021-11-21T10:06:10.774Z</time>
      </trkpt>
      <trkpt lat="47.666177" lon="7.602512">
        <ele>285.277883</ele>
        <time>2021-11-21T10:06:12.337Z</time>
      </trkpt>
      <trkpt lat="47.666177" lon="7.602511">
        <ele>285.278512</ele>
        <time>2021-11-21T10:06:12.403Z</time>
      </trkpt>
      <trkpt lat="47.665996" lon="7.602123">
        <ele>285.575492</ele>
        <time>2021-11-21T10:06:18.394Z</time>
      </trkpt>
      <trkpt lat="47.665811" lon="7.601858">
        <ele>285.815654</ele>
        <time>2021-11-21T10:06:23.232Z</time>
      </trkpt>
      <trkpt lat="47.665456" lon="7.601447">
        <ele>286.236231</ele>
        <time>2021-11-21T10:06:30.756Z</time>
      </trkpt>
      <trkpt lat="47.665362" lon="7.601201">
        <ele>286.414197</ele>
        <time>2021-11-21T10:06:33.903Z</time>
      </trkpt>
      <trkpt lat="47.665304" lon="7.600692">
        <ele>286.672878</ele>
        <time>2021-11-21T10:06:39.555Z</time>
      </trkpt>
      <trkpt lat="47.665270" lon="7.600368">
        <ele>286.711189</ele>
        <time>2021-11-21T10:06:43.053Z</time>
      </trkpt>
      <trkpt lat="47.665149" lon="7.599645">
        <ele>286.798227</ele>
        <time>2021-11-21T10:06:51.091Z</time>
      </trkpt>
      <trkpt lat="47.665035" lon="7.599318">
        <ele>286.841246</ele>
        <time>2021-11-21T10:06:54.919Z</time>
      </trkpt>
      <trkpt lat="47.665014" lon="7.599266">
        <ele>286.848330</ele>
        <time>2021-11-21T10:06:55.583Z</time>
      </trkpt>
      <trkpt lat="47.664950" lon="7.599107">
        <ele>286.869972</ele>
        <time>2021-11-21T10:06:57.500Z</time>
      </trkpt>
      <trkpt lat="47.664852" lon="7.598867">
        <ele>286.902763</ele>
        <time>2021-11-21T10:07:00.312Z</time>
      </trkpt>
      <trkpt lat="47.664694" lon="7.598513">
        <ele>286.952380</ele>
        <time>2021-11-21T10:07:04.596Z</time>
      </trkpt>
      <trkpt lat="47.664490" lon="7.598065">
        <ele>287.057874</ele>
        <time>2021-11-21T10:07:09.997Z</time>
      </trkpt>
      <trkpt lat="47.664218" lon="7.597562">
        <ele>287.202963</ele>
        <time>2021-11-21T10:07:16.135Z</time>
      </trkpt>
      <trkpt lat="47.664002" lon="7.597109">
        <ele>287.327802</ele>
        <time>2021-11-21T10:07:22.219Z</time>
      </trkpt>
      <trkpt lat="47.663776" lon="7.596568">
        <ele>287.470991</ele>
        <time>2021-11-21T10:07:29.193Z</time>
      </trkpt>
      <trkpt lat="47.663749" lon="7.596509">
        <ele>287.487034</ele>
        <time>2021-11-21T10:07:29.874Z</time>
      </trkpt>
      <trkpt lat="47.663610" lon="7.596198">
        <ele>287.572982</ele>
        <time>2021-11-21T10:07:34.953Z</time>
      </trkpt>
      <trkpt lat="47.663508" lon="7.596095">
        <ele>287.786823</ele>
        <time>2021-11-21T10:07:37.028Z</time>
      </trkpt>
      <trkpt lat="47.663392" lon="7.596035">
        <ele>287.999769</ele>
        <time>2021-11-21T10:07:39.457Z</time>
      </trkpt>
      <trkpt lat="47.663183" lon="7.596018">
        <ele>288.362629</ele>
        <time>2021-11-21T10:07:43.450Z</time>
      </trkpt>
      <trkpt lat="47.663051" lon="7.596241">
        <ele>288.709258</ele>
        <time>2021-11-21T10:07:47.409Z</time>
      </trkpt>
      <trkpt lat="47.662494" lon="7.596915">
        <ele>289.954903</ele>
        <time>2021-11-21T10:08:03.072Z</time>
      </trkpt>
      <trkpt lat="47.662391" lon="7.596945">
        <ele>290.136864</ele>
        <time>2021-11-21T10:08:05.762Z</time>
      </trkpt>
      <trkpt lat="47.662279" lon="7.596890">
        <ele>290.341367</ele>
        <time>2021-11-21T10:08:08.254Z</time>
      </trkpt>
      <trkpt lat="47.662034" lon="7.596625">
        <ele>291.010579</ele>
        <time>2021-11-21T10:08:16.017Z</time>
      </trkpt>
      <trkpt lat="47.661744" lon="7.596364">
        <ele>292.072505</ele>
        <time>2021-11-21T10:08:25.557Z</time>
      </trkpt>
      <trkpt lat="47.661309" lon="7.596052">
        <ele>293.585294</ele>
        <time>2021-11-21T10:08:38.499Z</time>
      </trkpt>
      <trkpt lat="47.661195" lon="7.595961">
        <ele>293.990601</ele>
        <time>2021-11-21T10:08:42.054Z</time>
      </trkpt>
      <trkpt lat="47.660991" lon="7.595798">
        <ele>294.716044</ele>
        <time>2021-11-21T10:08:48.765Z</time>
      </trkpt>
      <trkpt lat="47.660758" lon="7.595554">
        <ele>295.608897</ele>
        <time>2021-11-21T10:08:56.421Z</time>
      </trkpt>
      <trkpt lat="47.660717" lon="7.595511">
        <ele>295.766087</ele>
        <time>2021-11-21T10:08:58.160Z</time>
      </trkpt>
      <trkpt lat="47.660395" lon="7.595045">
        <ele>297.073043</ele>
        <time>2021-11-21T10:09:11.243Z</time>
      </trkpt>
      <trkpt lat="47.659787" lon="7.594095">
        <ele>299.509432</ele>
        <time>2021-11-21T10:09:36.486Z</time>
      </trkpt>
      <trkpt lat="47.659499" lon="7.593673">
        <ele>300.626355</ele>
        <time>2021-11-21T10:09:46.658Z</time>
      </trkpt>
      <trkpt lat="47.659225" lon="7.593332">
        <ele>301.151193</ele>
        <time>2021-11-21T10:09:53.909Z</time>
      </trkpt>
      <trkpt lat="47.659150" lon="7.593251">
        <ele>301.046015</ele>
        <time>2021-11-21T10:09:55.381Z</time>
      </trkpt>
      <trkpt lat="47.658671" lon="7.592815">
        <ele>300.408837</ele>
        <time>2021-11-21T10:10:04.084Z</time>
      </trkpt>
      <trkpt lat="47.658366" lon="7.592608">
        <ele>300.028520</ele>
        <time>2021-11-21T10:10:08.078Z</time>
      </trkpt>
      <trkpt lat="47.658033" lon="7.592435">
        <ele>299.628424</ele>
        <time>2021-11-21T10:10:11.939Z</time>
      </trkpt>
      <trkpt lat="47.657870" lon="7.592361">
        <ele>299.435122</ele>
        <time>2021-11-21T10:10:13.630Z</time>
      </trkpt>
      <trkpt lat="47.657276" lon="7.592147">
        <ele>297.205856</ele>
        <time>2021-11-21T10:10:19.574Z</time>
      </trkpt>
      <trkpt lat="47.656541" lon="7.591957">
        <ele>293.781268</ele>
        <time>2021-11-21T10:10:26.641Z</time>
      </trkpt>
      <trkpt lat="47.656109" lon="7.591916">
        <ele>291.794236</ele>
        <time>2021-11-21T10:10:30.705Z</time>
      </trkpt>
      <trkpt lat="47.655420" lon="7.592126">
        <ele>288.832833</ele>
        <time>2021-11-21T10:10:37.327Z</time>
      </trkpt>
      <trkpt lat="47.654725" lon="7.592731">
        <ele>285.542309</ele>
        <time>2021-11-21T10:10:45.086Z</time>
      </trkpt>
      <trkpt lat="47.654668" lon="7.592780">
        <ele>285.273295</ele>
        <time>2021-11-21T10:10:45.767Z</time>
      </trkpt>
      <trkpt lat="47.654425" lon="7.592983">
        <ele>284.134486</ele>
        <time>2021-11-21T10:10:48.632Z</time>
      </trkpt>
      <trkpt lat="47.654122" lon="7.593177">
        <ele>283.279080</ele>
        <time>2021-11-21T10:10:52.096Z</time>
      </trkpt>
      <trkpt lat="47.653885" lon="7.593345">
        <ele>282.822663</ele>
        <time>2021-11-21T10:10:54.899Z</time>
      </trkpt>
      <trkpt lat="47.653698" lon="7.593524">
        <ele>282.435983</ele>
        <time>2021-11-21T10:10:57.310Z</time>
      </trkpt>
      <trkpt lat="47.653366" lon="7.594044">
        <ele>281.597263</ele>
        <time>2021-11-21T10:11:02.812Z</time>
      </trkpt>
      <trkpt lat="47.652964" lon="7.595022">
        <ele>280.309985</ele>
        <time>2021-11-21T10:11:12.396Z</time>
      </trkpt>
      <trkpt lat="47.652858" lon="7.595213">
        <ele>280.079952</ele>
        <time>2021-11-21T10:11:14.609Z</time>
      </trkpt>
      <trkpt lat="47.652780" lon="7.595322">
        <ele>279.932134</ele>
        <time>2021-11-21T10:11:16.002Z</time>
      </trkpt>
      <trkpt lat="47.652496" lon="7.595714">
        <ele>279.397016</ele>
        <time>2021-11-21T10:11:21.023Z</time>
      </trkpt>
      <trkpt lat="47.652432" lon="7.595819">
        <ele>279.265390</ele>
        <time>2021-11-21T10:11:22.198Z</time>
      </trkpt>
      <trkpt lat="47.652266" lon="7.596070">
        <ele>278.938426</ele>
        <time>2021-11-21T10:11:24.956Z</time>
      </trkpt>
      <trkpt lat="47.651722" lon="7.596788">
        <ele>277.805470</ele>
        <time>2021-11-21T10:11:32.970Z</time>
      </trkpt>
      <trkpt lat="47.651649" lon="7.596972">
        <ele>277.356919</ele>
        <time>2021-11-21T10:11:34.454Z</time>
      </trkpt>
      <trkpt lat="47.651568" lon="7.597062">
        <ele>277.041428</ele>
        <time>2021-11-21T10:11:35.503Z</time>
      </trkpt>
      <trkpt lat="47.651470" lon="7.597163">
        <ele>276.669416</ele>
        <time>2021-11-21T10:11:36.720Z</time>
      </trkpt>
      <trkpt lat="47.651193" lon="7.597519">
        <ele>275.526934</ele>
        <time>2021-11-21T10:11:40.437Z</time>
      </trkpt>
      <trkpt lat="47.650966" lon="7.597769">
        <ele>274.645567</ele>
        <time>2021-11-21T10:11:43.303Z</time>
      </trkpt>
      <trkpt lat="47.650798" lon="7.597914">
        <ele>274.039595</ele>
        <time>2021-11-21T10:11:45.241Z</time>
      </trkpt>
      <trkpt lat="47.650627" lon="7.598070">
        <ele>273.413734</ele>
        <time>2021-11-21T10:11:47.263Z</time>
      </trkpt>
      <trkpt lat="47.650348" lon="7.598318">
        <ele>272.401774</ele>
        <time>2021-11-21T10:11:50.453Z</time>
      </trkpt>
      <trkpt lat="47.650048" lon="7.598639">
        <ele>271.334873</ele>
        <time>2021-11-21T10:11:54.114Z</time>
      </trkpt>
      <trkpt lat="47.649402" lon="7.599592">
        <ele>268.707356</ele>
        <time>2021-11-21T10:12:03.419Z</time>
      </trkpt>
      <trkpt lat="47.649321" lon="7.599629">
        <ele>268.462858</ele>
        <time>2021-11-21T10:12:04.260Z</time>
      </trkpt>
      <trkpt lat="47.649322" lon="7.599734">
        <ele>268.258769</ele>
        <time>2021-11-21T10:12:05.036Z</time>
      </trkpt>
      <trkpt lat="47.649072" lon="7.600328">
        <ele>267.070130</ele>
        <time>2021-11-21T10:12:10.340Z</time>
      </trkpt>
      <trkpt lat="47.648274" lon="7.600622">
        <ele>265.899336</ele>
        <time>2021-11-21T10:12:19.701Z</time>
      </trkpt>
      <trkpt lat="47.648012" lon="7.600725">
        <ele>265.513397</ele>
        <time>2021-11-21T10:12:22.838Z</time>
      </trkpt>
      <trkpt lat="47.647878" lon="7.600773">
        <ele>265.317110</ele>
        <time>2021-11-21T10:12:24.458Z</time>
      </trkpt>
      <trkpt lat="47.647517" lon="7.600898">
        <ele>264.789261</ele>
        <time>2021-11-21T10:12:28.963Z</time>
      </trkpt>
      <trkpt lat="47.647362" lon="7.600959">
        <ele>264.655378</ele>
        <time>2021-11-21T10:12:30.937Z</time>
      </trkpt>
      <trkpt lat="47.646615" lon="7.601256">
        <ele>264.449077</ele>
        <time>2021-11-21T10:12:41.144Z</time>
      </trkpt>
      <trkpt lat="47.646542" lon="7.601292">
        <ele>264.428556</ele>
        <time>2021-11-21T10:12:42.178Z</time>
      </trkpt>
      <trkpt lat="47.646444" lon="7.601345">
        <ele>264.400732</ele>
        <time>2021-11-21T10:12:43.677Z</time>
      </trkpt>
      <trkpt lat="47.646348" lon="7.601386">
        <ele>264.374083</ele>
        <time>2021-11-21T10:12:45.089Z</time>
      </trkpt>
      <trkpt lat="47.646239" lon="7.601438">
        <ele>264.343540</ele>
        <time>2021-11-21T10:12:46.824Z</time>
      </trkpt>
      <trkpt lat="47.644863" lon="7.602241">
        <ele>264.707280</ele>
        <time>2021-11-21T10:13:10.818Z</time>
      </trkpt>
      <trkpt lat="47.644518" lon="7.602492">
        <ele>264.917854</ele>
        <time>2021-11-21T10:13:17.601Z</time>
      </trkpt>
      <trkpt lat="47.644463" lon="7.602535">
        <ele>264.951923</ele>
        <time>2021-11-21T10:13:18.692Z</time>
      </trkpt>
      <trkpt lat="47.644009" lon="7.602886">
        <ele>265.235165</ele>
        <time>2021-11-21T10:13:27.854Z</time>
      </trkpt>
      <trkpt lat="47.643665" lon="7.603141">
        <ele>265.457382</ele>
        <time>2021-11-21T10:13:34.686Z</time>
      </trkpt>
      <trkpt lat="47.643452" lon="7.603285">
        <ele>265.592645</ele>
        <time>2021-11-21T10:13:38.803Z</time>
      </trkpt>
      <trkpt lat="47.642943" lon="7.603584">
        <ele>265.909004</ele>
        <time>2021-11-21T10:13:48.280Z</time>
      </trkpt>
      <trkpt lat="47.642696" lon="7.603706">
        <ele>266.059446</ele>
        <time>2021-11-21T10:13:52.671Z</time>
      </trkpt>
      <trkpt lat="47.641529" lon="7.604190">
        <ele>266.304385</ele>
        <time>2021-11-21T10:14:11.784Z</time>
      </trkpt>
      <trkpt lat="47.641096" lon="7.604510">
        <ele>266.346967</ele>
        <time>2021-11-21T10:14:18.713Z</time>
      </trkpt>
      <trkpt lat="47.640934" lon="7.604667">
        <ele>266.363999</ele>
        <time>2021-11-21T10:14:21.662Z</time>
      </trkpt>
      <trkpt lat="47.640812" lon="7.604794">
        <ele>266.377118</ele>
        <time>2021-11-21T10:14:23.638Z</time>
      </trkpt>
      <trkpt lat="47.639169" lon="7.606981">
        <ele>266.975567</ele>
        <time>2021-11-21T10:14:57.155Z</time>
      </trkpt>
      <trkpt lat="47.638964" lon="7.607254">
        <ele>267.281966</ele>
        <time>2021-11-21T10:15:02.519Z</time>
      </trkpt>
      <trkpt lat="47.638641" lon="7.607690">
        <ele>267.767677</ele>
        <time>2021-11-21T10:15:11.339Z</time>
      </trkpt>
      <trkpt lat="47.638391" lon="7.608019">
        <ele>268.139377</ele>
        <time>2021-11-21T10:15:18.473Z</time>
      </trkpt>
      <trkpt lat="47.638218" lon="7.608237">
        <ele>268.391845</ele>
        <time>2021-11-21T10:15:23.629Z</time>
      </trkpt>
      <trkpt lat="47.638005" lon="7.608471">
        <ele>268.662482</ele>
        <time>2021-11-21T10:15:29.098Z</time>
      </trkpt>
      <trkpt lat="47.637415" lon="7.609013">
        <ele>269.274469</ele>
        <time>2021-11-21T10:15:42.918Z</time>
      </trkpt>
      <trkpt lat="47.637361" lon="7.609052">
        <ele>269.327436</ele>
        <time>2021-11-21T10:15:44.294Z</time>
      </trkpt>
      <trkpt lat="47.637254" lon="7.609128">
        <ele>269.432059</ele>
        <time>2021-11-21T10:15:46.405Z</time>
      </trkpt>
      <trkpt lat="47.636957" lon="7.609339">
        <ele>269.722472</ele>
        <time>2021-11-21T10:15:52.614Z</time>
      </trkpt>
      <trkpt lat="47.636728" lon="7.609467">
        <ele>269.938294</ele>
        <time>2021-11-21T10:15:56.787Z</time>
      </trkpt>
      <trkpt lat="47.634806" lon="7.610511">
        <ele>269.657041</ele>
        <time>2021-11-21T10:16:24.552Z</time>
      </trkpt>
      <trkpt lat="47.634379" lon="7.610795">
        <ele>269.525401</ele>
        <time>2021-11-21T10:16:31.386Z</time>
      </trkpt>
      <trkpt lat="47.634273" lon="7.610887">
        <ele>269.490854</ele>
        <time>2021-11-21T10:16:33.080Z</time>
      </trkpt>
      <trkpt lat="47.634058" lon="7.611101">
        <ele>269.418023</ele>
        <time>2021-11-21T10:16:36.477Z</time>
      </trkpt>
      <trkpt lat="47.633748" lon="7.611470">
        <ele>269.306222</ele>
        <time>2021-11-21T10:16:41.793Z</time>
      </trkpt>
      <trkpt lat="47.633603" lon="7.611677">
        <ele>269.249618</ele>
        <time>2021-11-21T10:16:44.486Z</time>
      </trkpt>
      <trkpt lat="47.633526" lon="7.611754">
        <ele>269.223497</ele>
        <time>2021-11-21T10:16:45.873Z</time>
      </trkpt>
      <trkpt lat="47.633397" lon="7.611916">
        <ele>269.175954</ele>
        <time>2021-11-21T10:16:48.288Z</time>
      </trkpt>
      <trkpt lat="47.633232" lon="7.612127">
        <ele>269.138169</ele>
        <time>2021-11-21T10:16:51.421Z</time>
      </trkpt>
      <trkpt lat="47.633155" lon="7.612262">
        <ele>269.126168</ele>
        <time>2021-11-21T10:16:53.248Z</time>
      </trkpt>
      <trkpt lat="47.633048" lon="7.612433">
        <ele>269.110333</ele>
        <time>2021-11-21T10:16:55.557Z</time>
      </trkpt>
      <trkpt lat="47.632972" lon="7.612614">
        <ele>269.095862</ele>
        <time>2021-11-21T10:16:57.676Z</time>
      </trkpt>
      <trkpt lat="47.632938" lon="7.612693">
        <ele>269.089501</ele>
        <time>2021-11-21T10:16:58.694Z</time>
      </trkpt>
      <trkpt lat="47.632842" lon="7.613002">
        <ele>269.066412</ele>
        <time>2021-11-21T10:17:02.270Z</time>
      </trkpt>
      <trkpt lat="47.632717" lon="7.613553">
        <ele>269.026960</ele>
        <time>2021-11-21T10:17:07.823Z</time>
      </trkpt>
      <trkpt lat="47.632582" lon="7.614157">
        <ele>268.983779</ele>
        <time>2021-11-21T10:17:13.572Z</time>
      </trkpt>
      <trkpt lat="47.632560" lon="7.614255">
        <ele>268.976769</ele>
        <time>2021-11-21T10:17:14.544Z</time>
      </trkpt>
      <trkpt lat="47.632429" lon="7.614867">
        <ele>269.016335</ele>
        <time>2021-11-21T10:17:20.909Z</time>
      </trkpt>
      <trkpt lat="47.632363" lon="7.615130">
        <ele>269.040140</ele>
        <time>2021-11-21T10:17:23.906Z</time>
      </trkpt>
      <trkpt lat="47.632296" lon="7.615321">
        <ele>269.058404</ele>
        <time>2021-11-21T10:17:26.118Z</time>
      </trkpt>
      <trkpt lat="47.632243" lon="7.615459">
        <ele>269.071877</ele>
        <time>2021-11-21T10:17:27.778Z</time>
      </trkpt>
      <trkpt lat="47.632110" lon="7.615712">
        <ele>269.099094</ele>
        <time>2021-11-21T10:17:31.099Z</time>
      </trkpt>
      <trkpt lat="47.632016" lon="7.615844">
        <ele>269.115383</ele>
        <time>2021-11-21T10:17:33.083Z</time>
      </trkpt>
      <trkpt lat="47.631609" lon="7.616292">
        <ele>269.179166</ele>
        <time>2021-11-21T10:17:40.838Z</time>
      </trkpt>
      <trkpt lat="47.630957" lon="7.617005">
        <ele>270.119915</ele>
        <time>2021-11-21T10:17:54.153Z</time>
      </trkpt>
      <trkpt lat="47.630701" lon="7.617331">
        <ele>270.583516</ele>
        <time>2021-11-21T10:18:01.114Z</time>
      </trkpt>
      <trkpt lat="47.630400" lon="7.617763">
        <ele>271.158998</ele>
        <time>2021-11-21T10:18:10.944Z</time>
      </trkpt>
      <trkpt lat="47.630129" lon="7.618190">
        <ele>271.724905</ele>
        <time>2021-11-21T10:18:20.345Z</time>
      </trkpt>
      <trkpt lat="47.630096" lon="7.618244">
        <ele>271.837637</ele>
        <time>2021-11-21T10:18:21.526Z</time>
      </trkpt>
      <trkpt lat="47.630010" lon="7.618382">
        <ele>272.128314</ele>
        <time>2021-11-21T10:18:24.590Z</time>
      </trkpt>
      <trkpt lat="47.629876" lon="7.618589">
        <ele>272.572200</ele>
        <time>2021-11-21T10:18:29.322Z</time>
      </trkpt>
      <trkpt lat="47.629669" lon="7.618908">
        <ele>273.257049</ele>
        <time>2021-11-21T10:18:36.781Z</time>
      </trkpt>
      <trkpt lat="47.629418" lon="7.619291">
        <ele>274.083241</ele>
        <time>2021-11-21T10:18:45.749Z</time>
      </trkpt>
      <trkpt lat="47.628964" lon="7.618639">
        <ele>275.533111</ele>
        <time>2021-11-21T10:19:01.068Z</time>
      </trkpt>
      <trkpt lat="47.628871" lon="7.618513">
        <ele>275.816870</ele>
        <time>2021-11-21T10:19:04.016Z</time>
      </trkpt>
      <trkpt lat="47.628724" lon="7.618315">
        <ele>276.181694</ele>
        <time>2021-11-21T10:19:08.470Z</time>
      </trkpt>
      <trkpt lat="47.628372" lon="7.617807">
        <ele>277.084023</ele>
        <time>2021-11-21T10:19:18.964Z</time>
      </trkpt>
      <trkpt lat="47.628119" lon="7.617449">
        <ele>277.726453</ele>
        <time>2021-11-21T10:19:25.912Z</time>
      </trkpt>
      <trkpt lat="47.627544" lon="7.616615">
        <ele>279.159176</ele>
        <time>2021-11-21T10:19:43.955Z</time>
      </trkpt>
      <trkpt lat="47.627009" lon="7.615842">
        <ele>279.933652</ele>
        <time>2021-11-21T10:20:02.138Z</time>
      </trkpt>
      <trkpt lat="47.626322" lon="7.614836">
        <ele>280.934718</ele>
        <time>2021-11-21T10:20:18.483Z</time>
      </trkpt>
      <trkpt lat="47.626197" lon="7.614639">
        <ele>280.713706</ele>
        <time>2021-11-21T10:20:20.430Z</time>
      </trkpt>
      <trkpt lat="47.625921" lon="7.614201">
        <ele>280.040449</ele>
        <time>2021-11-21T10:20:25.456Z</time>
      </trkpt>
      <trkpt lat="47.625845" lon="7.614081">
        <ele>279.855557</ele>
        <time>2021-11-21T10:20:26.955Z</time>
      </trkpt>
      <trkpt lat="47.625663" lon="7.613795">
        <ele>279.413909</ele>
        <time>2021-11-21T10:20:30.141Z</time>
      </trkpt>
      <trkpt lat="47.625513" lon="7.613556">
        <ele>279.047221</ele>
        <time>2021-11-21T10:20:32.941Z</time>
      </trkpt>
      <trkpt lat="47.625483" lon="7.613462">
        <ele>278.930441</ele>
        <time>2021-11-21T10:20:33.574Z</time>
      </trkpt>
      <trkpt lat="47.625440" lon="7.613329">
        <ele>278.764814</ele>
        <time>2021-11-21T10:20:35.216Z</time>
      </trkpt>
      <trkpt lat="47.625424" lon="7.613244">
        <ele>278.665722</ele>
        <time>2021-11-21T10:20:35.817Z</time>
      </trkpt>
      <trkpt lat="47.625429" lon="7.613201">
        <ele>278.616728</ele>
        <time>2021-11-21T10:20:36.082Z</time>
      </trkpt>
      <trkpt lat="47.625368" lon="7.613013">
        <ele>278.382450</ele>
        <time>2021-11-21T10:20:37.724Z</time>
      </trkpt>
      <trkpt lat="47.625343" lon="7.612992">
        <ele>278.334590</ele>
        <time>2021-11-21T10:20:37.968Z</time>
      </trkpt>
      <trkpt lat="47.625313" lon="7.612979">
        <ele>278.282523</ele>
        <time>2021-11-21T10:20:38.353Z</time>
      </trkpt>
      <trkpt lat="47.625221" lon="7.613000">
        <ele>278.127451</ele>
        <time>2021-11-21T10:20:39.450Z</time>
      </trkpt>
      <trkpt lat="47.625195" lon="7.613027">
        <ele>278.074581</ele>
        <time>2021-11-21T10:20:39.744Z</time>
      </trkpt>
      <trkpt lat="47.625179" lon="7.613051">
        <ele>278.036678</ele>
        <time>2021-11-21T10:20:39.961Z</time>
      </trkpt>
      <trkpt lat="47.625156" lon="7.613110">
        <ele>277.951604</ele>
        <time>2021-11-21T10:20:40.403Z</time>
      </trkpt>
      <trkpt lat="47.625149" lon="7.613143">
        <ele>277.879111</ele>
        <time>2021-11-21T10:20:40.921Z</time>
      </trkpt>
      <trkpt lat="47.625104" lon="7.613184">
        <ele>277.714933</ele>
        <time>2021-11-21T10:20:41.607Z</time>
      </trkpt>
      <trkpt lat="47.625028" lon="7.613245">
        <ele>277.446290</ele>
        <time>2021-11-21T10:20:42.387Z</time>
      </trkpt>
      <trkpt lat="47.624960" lon="7.613306">
        <ele>277.199240</ele>
        <time>2021-11-21T10:20:43.343Z</time>
      </trkpt>
      <trkpt lat="47.624960" lon="7.613306">
        <ele>277.199240</ele>
        <time>2021-11-21T10:20:43.395Z</time>
      </trkpt>
      <trkpt lat="47.624696" lon="7.613373">
        <ele>276.366539</ele>
        <time>2021-11-21T10:20:45.928Z</time>
      </trkpt>
      <trkpt lat="47.624435" lon="7.613447">
        <ele>275.540402</ele>
        <time>2021-11-21T10:20:48.691Z</time>
      </trkpt>
      <trkpt lat="47.623756" lon="7.613619">
        <ele>273.398831</ele>
        <time>2021-11-21T10:20:55.771Z</time>
      </trkpt>
      <trkpt lat="47.623487" lon="7.613683">
        <ele>272.551820</ele>
        <time>2021-11-21T10:20:58.741Z</time>
      </trkpt>
      <trkpt lat="47.623291" lon="7.613721">
        <ele>272.047009</ele>
        <time>2021-11-21T10:21:00.738Z</time>
      </trkpt>
      <trkpt lat="47.623013" lon="7.613751">
        <ele>271.396194</ele>
        <time>2021-11-21T10:21:03.509Z</time>
      </trkpt>
      <trkpt lat="47.622516" lon="7.613727">
        <ele>270.235138</ele>
        <time>2021-11-21T10:21:08.502Z</time>
      </trkpt>
      <trkpt lat="47.622455" lon="7.613693">
        <ele>270.082990</ele>
        <time>2021-11-21T10:21:09.174Z</time>
      </trkpt>
      <trkpt lat="47.622336" lon="7.613647">
        <ele>269.795862</ele>
        <time>2021-11-21T10:21:10.582Z</time>
      </trkpt>
      <trkpt lat="47.622297" lon="7.613621">
        <ele>269.696031</ele>
        <time>2021-11-21T10:21:11.011Z</time>
      </trkpt>
      <trkpt lat="47.622225" lon="7.613573">
        <ele>269.511726</ele>
        <time>2021-11-21T10:21:11.866Z</time>
      </trkpt>
      <trkpt lat="47.622180" lon="7.613489">
        <ele>269.342862</ele>
        <time>2021-11-21T10:21:12.632Z</time>
      </trkpt>
      <trkpt lat="47.622159" lon="7.613431">
        <ele>269.239248</ele>
        <time>2021-11-21T10:21:13.114Z</time>
      </trkpt>
      <trkpt lat="47.622131" lon="7.613384">
        <ele>269.140530</ele>
        <time>2021-11-21T10:21:13.871Z</time>
      </trkpt>
      <trkpt lat="47.622102" lon="7.613353">
        <ele>269.057073</ele>
        <time>2021-11-21T10:21:14.272Z</time>
      </trkpt>
      <trkpt lat="47.622054" lon="7.613323">
        <ele>268.935460</ele>
        <time>2021-11-21T10:21:14.854Z</time>
      </trkpt>
      <trkpt lat="47.621985" lon="7.613317">
        <ele>268.774076</ele>
        <time>2021-11-21T10:21:15.600Z</time>
      </trkpt>
      <trkpt lat="47.621923" lon="7.613346">
        <ele>268.622288</ele>
        <time>2021-11-21T10:21:16.331Z</time>
      </trkpt>
      <trkpt lat="47.621923" lon="7.613346">
        <ele>268.622288</ele>
        <time>2021-11-21T10:21:16.336Z</time>
      </trkpt>
      <trkpt lat="47.621886" lon="7.613384">
        <ele>268.517218</ele>
        <time>2021-11-21T10:21:16.825Z</time>
      </trkpt>
      <trkpt lat="47.621862" lon="7.613422">
        <ele>268.435263</ele>
        <time>2021-11-21T10:21:17.227Z</time>
      </trkpt>
      <trkpt lat="47.621841" lon="7.613474">
        <ele>268.339862</ele>
        <time>2021-11-21T10:21:17.857Z</time>
      </trkpt>
      <trkpt lat="47.621827" lon="7.613530">
        <ele>268.245864</ele>
        <time>2021-11-21T10:21:18.476Z</time>
      </trkpt>
      <trkpt lat="47.621825" lon="7.613625">
        <ele>268.194710</ele>
        <time>2021-11-21T10:21:19.236Z</time>
      </trkpt>
      <trkpt lat="47.621832" lon="7.613693">
        <ele>268.216282</ele>
        <time>2021-11-21T10:21:19.760Z</time>
      </trkpt>
      <trkpt lat="47.621849" lon="7.613736">
        <ele>268.231916</ele>
        <time>2021-11-21T10:21:20.184Z</time>
      </trkpt>
      <trkpt lat="47.621871" lon="7.613775">
        <ele>268.247865</ele>
        <time>2021-11-21T10:21:20.595Z</time>
      </trkpt>
      <trkpt lat="47.621897" lon="7.613810">
        <ele>268.264199</ele>
        <time>2021-11-21T10:21:21.023Z</time>
      </trkpt>
      <trkpt lat="47.621920" lon="7.613915">
        <ele>268.298823</ele>
        <time>2021-11-21T10:21:21.951Z</time>
      </trkpt>
      <trkpt lat="47.621935" lon="7.614021">
        <ele>268.332789</ele>
        <time>2021-11-21T10:21:23.376Z</time>
      </trkpt>
      <trkpt lat="47.621959" lon="7.614108">
        <ele>268.362270</ele>
        <time>2021-11-21T10:21:24.242Z</time>
      </trkpt>
      <trkpt lat="47.622002" lon="7.614178">
        <ele>268.391971</ele>
        <time>2021-11-21T10:21:25.046Z</time>
      </trkpt>
      <trkpt lat="47.622002" lon="7.614178">
        <ele>268.391971</ele>
        <time>2021-11-21T10:21:25.072Z</time>
      </trkpt>
      <trkpt lat="47.622012" lon="7.614198">
        <ele>268.399780</ele>
        <time>2021-11-21T10:21:25.303Z</time>
      </trkpt>
      <trkpt lat="47.621969" lon="7.614243">
        <ele>268.424263</ele>
        <time>2021-11-21T10:21:26.020Z</time>
      </trkpt>
      <trkpt lat="47.621893" lon="7.614337">
        <ele>268.470300</ele>
        <time>2021-11-21T10:21:27.430Z</time>
      </trkpt>
      <trkpt lat="47.621860" lon="7.614384">
        <ele>268.491584</ele>
        <time>2021-11-21T10:21:28.666Z</time>
      </trkpt>
      <trkpt lat="47.621271" lon="7.615693">
        <ele>268.985162</ele>
        <time>2021-11-21T10:21:48.781Z</time>
      </trkpt>
      <trkpt lat="47.620829" lon="7.616001">
        <ele>269.616611</ele>
        <time>2021-11-21T10:21:58.660Z</time>
      </trkpt>
      <trkpt lat="47.620672" lon="7.616094">
        <ele>269.856544</ele>
        <time>2021-11-21T10:22:01.897Z</time>
      </trkpt>
      <trkpt lat="47.620294" lon="7.616298">
        <ele>270.427427</ele>
        <time>2021-11-21T10:22:09.957Z</time>
      </trkpt>
      <trkpt lat="47.619999" lon="7.616450">
        <ele>270.870648</ele>
        <time>2021-11-21T10:22:16.758Z</time>
      </trkpt>
      <trkpt lat="47.619854" lon="7.616526">
        <ele>271.088910</ele>
        <time>2021-11-21T10:22:20.223Z</time>
      </trkpt>
      <trkpt lat="47.619286" lon="7.616863">
        <ele>271.820519</ele>
        <time>2021-11-21T10:22:33.376Z</time>
      </trkpt>
      <trkpt lat="47.619056" lon="7.617081">
        <ele>272.071887</ele>
        <time>2021-11-21T10:22:38.486Z</time>
      </trkpt>
      <trkpt lat="47.618911" lon="7.617202">
        <ele>272.225107</ele>
        <time>2021-11-21T10:22:41.869Z</time>
      </trkpt>
      <trkpt lat="47.618654" lon="7.617344">
        <ele>272.477684</ele>
        <time>2021-11-21T10:22:46.765Z</time>
      </trkpt>
      <trkpt lat="47.618238" lon="7.617454">
        <ele>272.866854</ele>
        <time>2021-11-21T10:22:56.724Z</time>
      </trkpt>
      <trkpt lat="47.616954" lon="7.617830">
        <ele>273.518725</ele>
        <time>2021-11-21T10:23:25.129Z</time>
      </trkpt>
      <trkpt lat="47.616623" lon="7.617938">
        <ele>273.627051</ele>
        <time>2021-11-21T10:23:31.522Z</time>
      </trkpt>
      <trkpt lat="47.616528" lon="7.617996">
        <ele>273.659887</ele>
        <time>2021-11-21T10:23:33.580Z</time>
      </trkpt>
      <trkpt lat="47.616392" lon="7.618080">
        <ele>273.706973</ele>
        <time>2021-11-21T10:23:36.501Z</time>
      </trkpt>
      <trkpt lat="47.616352" lon="7.618112">
        <ele>273.721499</ele>
        <time>2021-11-21T10:23:37.418Z</time>
      </trkpt>
      <trkpt lat="47.615857" lon="7.618503">
        <ele>274.057311</ele>
        <time>2021-11-21T10:23:50.304Z</time>
      </trkpt>
      <trkpt lat="47.615417" lon="7.618824">
        <ele>274.456226</ele>
        <time>2021-11-21T10:23:59.906Z</time>
      </trkpt>
      <trkpt lat="47.615170" lon="7.619210">
        <ele>274.748109</ele>
        <time>2021-11-21T10:24:06.959Z</time>
      </trkpt>
      <trkpt lat="47.615076" lon="7.619311">
        <ele>274.842538</ele>
        <time>2021-11-21T10:24:09.072Z</time>
      </trkpt>
      <trkpt lat="47.614973" lon="7.619421">
        <ele>274.945792</ele>
        <time>2021-11-21T10:24:11.627Z</time>
      </trkpt>
      <trkpt lat="47.614948" lon="7.619440">
        <ele>274.968645</ele>
        <time>2021-11-21T10:24:12.108Z</time>
      </trkpt>
      <trkpt lat="47.614867" lon="7.619502">
        <ele>275.042799</ele>
        <time>2021-11-21T10:24:13.724Z</time>
      </trkpt>
      <trkpt lat="47.614634" lon="7.619625">
        <ele>275.244005</ele>
        <time>2021-11-21T10:24:18.128Z</time>
      </trkpt>
      <trkpt lat="47.614082" lon="7.619775">
        <ele>275.247883</ele>
        <time>2021-11-21T10:24:26.986Z</time>
      </trkpt>
      <trkpt lat="47.613739" lon="7.619888">
        <ele>275.238177</ele>
        <time>2021-11-21T10:24:32.502Z</time>
      </trkpt>
      <trkpt lat="47.613306" lon="7.620006">
        <ele>275.226015</ele>
        <time>2021-11-21T10:24:38.727Z</time>
      </trkpt>
      <trkpt lat="47.613071" lon="7.620138">
        <ele>275.219073</ele>
        <time>2021-11-21T10:24:41.993Z</time>
      </trkpt>
      <trkpt lat="47.612876" lon="7.620285">
        <ele>275.212624</ele>
        <time>2021-11-21T10:24:44.815Z</time>
      </trkpt>
      <trkpt lat="47.611976" lon="7.620755">
        <ele>274.841822</ele>
        <time>2021-11-21T10:24:57.243Z</time>
      </trkpt>
      <trkpt lat="47.611143" lon="7.621251">
        <ele>274.502393</ele>
        <time>2021-11-21T10:25:09.818Z</time>
      </trkpt>
      <trkpt lat="47.610991" lon="7.621328">
        <ele>274.467816</ele>
        <time>2021-11-21T10:25:12.076Z</time>
      </trkpt>
      <trkpt lat="47.610833" lon="7.621400">
        <ele>274.432233</ele>
        <time>2021-11-21T10:25:14.570Z</time>
      </trkpt>
      <trkpt lat="47.610272" lon="7.621626">
        <ele>274.307089</ele>
        <time>2021-11-21T10:25:22.918Z</time>
      </trkpt>
      <trkpt lat="47.610099" lon="7.621643">
        <ele>274.269765</ele>
        <time>2021-11-21T10:25:25.432Z</time>
      </trkpt>
      <trkpt lat="47.610016" lon="7.621629">
        <ele>274.251782</ele>
        <time>2021-11-21T10:25:26.573Z</time>
      </trkpt>
      <trkpt lat="47.609880" lon="7.621619">
        <ele>274.222469</ele>
        <time>2021-11-21T10:25:28.398Z</time>
      </trkpt>
      <trkpt lat="47.609332" lon="7.621638">
        <ele>274.120492</ele>
        <time>2021-11-21T10:25:35.902Z</time>
      </trkpt>
      <trkpt lat="47.608424" lon="7.622293">
        <ele>274.058646</ele>
        <time>2021-11-21T10:25:49.466Z</time>
      </trkpt>
      <trkpt lat="47.606775" lon="7.623330">
        <ele>274.698272</ele>
        <time>2021-11-21T10:26:19.513Z</time>
      </trkpt>
      <trkpt lat="47.606585" lon="7.623488">
        <ele>274.832485</ele>
        <time>2021-11-21T10:26:23.468Z</time>
      </trkpt>
      <trkpt lat="47.606418" lon="7.623610">
        <ele>274.947186</ele>
        <time>2021-11-21T10:26:27.083Z</time>
      </trkpt>
      <trkpt lat="47.605691" lon="7.623980">
        <ele>275.289660</ele>
        <time>2021-11-21T10:26:41.373Z</time>
      </trkpt>
      <trkpt lat="47.604272" lon="7.624287">
        <ele>275.705404</ele>
        <time>2021-11-21T10:27:03.689Z</time>
      </trkpt>
      <trkpt lat="47.603748" lon="7.624409">
        <ele>275.537234</ele>
        <time>2021-11-21T10:27:10.599Z</time>
      </trkpt>
      <trkpt lat="47.603442" lon="7.624462">
        <ele>275.439558</ele>
        <time>2021-11-21T10:27:14.677Z</time>
      </trkpt>
      <trkpt lat="47.603174" lon="7.624532">
        <ele>275.353280</ele>
        <time>2021-11-21T10:27:18.326Z</time>
      </trkpt>
      <trkpt lat="47.603035" lon="7.624589">
        <ele>275.307557</ele>
        <time>2021-11-21T10:27:20.152Z</time>
      </trkpt>
      <trkpt lat="47.602801" lon="7.624730">
        <ele>275.227477</ele>
        <time>2021-11-21T10:27:23.640Z</time>
      </trkpt>
      <trkpt lat="47.602393" lon="7.625100">
        <ele>275.393218</ele>
        <time>2021-11-21T10:27:30.320Z</time>
      </trkpt>
      <trkpt lat="47.601909" lon="7.625561">
        <ele>275.814310</ele>
        <time>2021-11-21T10:27:39.865Z</time>
      </trkpt>
      <trkpt lat="47.601485" lon="7.625959">
        <ele>276.181648</ele>
        <time>2021-11-21T10:27:49.328Z</time>
      </trkpt>
      <trkpt lat="47.601049" lon="7.626371">
        <ele>276.629116</ele>
        <time>2021-11-21T10:28:00.067Z</time>
      </trkpt>
      <trkpt lat="47.600619" lon="7.626774">
        <ele>277.360177</ele>
        <time>2021-11-21T10:28:10.963Z</time>
      </trkpt>
      <trkpt lat="47.600407" lon="7.626982">
        <ele>277.725508</ele>
        <time>2021-11-21T10:28:16.503Z</time>
      </trkpt>
      <trkpt lat="47.600166" lon="7.627247">
        <ele>278.156697</ele>
        <time>2021-11-21T10:28:22.904Z</time>
      </trkpt>
      <trkpt lat="47.599867" lon="7.627559">
        <ele>278.682137</ele>
        <time>2021-11-21T10:28:30.387Z</time>
      </trkpt>
      <trkpt lat="47.599437" lon="7.627995">
        <ele>279.218141</ele>
        <time>2021-11-21T10:28:40.579Z</time>
      </trkpt>
      <trkpt lat="47.599159" lon="7.628310">
        <ele>279.421709</ele>
        <time>2021-11-21T10:28:46.870Z</time>
      </trkpt>
      <trkpt lat="47.598981" lon="7.628529">
        <ele>279.556283</ele>
        <time>2021-11-21T10:28:51.054Z</time>
      </trkpt>
      <trkpt lat="47.598396" lon="7.629284">
        <ele>280.007522</ele>
        <time>2021-11-21T10:29:03.633Z</time>
      </trkpt>
      <trkpt lat="47.598092" lon="7.629668">
        <ele>280.133646</ele>
        <time>2021-11-21T10:29:09.546Z</time>
      </trkpt>
      <trkpt lat="47.597745" lon="7.630065">
        <ele>280.162581</ele>
        <time>2021-11-21T10:29:15.776Z</time>
      </trkpt>
      <trkpt lat="47.597572" lon="7.630229">
        <ele>280.176138</ele>
        <time>2021-11-21T10:29:18.726Z</time>
      </trkpt>
      <trkpt lat="47.597237" lon="7.630571">
        <ele>280.202989</ele>
        <time>2021-11-21T10:29:24.632Z</time>
      </trkpt>
      <trkpt lat="47.597078" lon="7.630698">
        <ele>280.214913</ele>
        <time>2021-11-21T10:29:27.409Z</time>
      </trkpt>
      <trkpt lat="47.596934" lon="7.630802">
        <ele>280.225487</ele>
        <time>2021-11-21T10:29:29.882Z</time>
      </trkpt>
      <trkpt lat="47.596531" lon="7.631005">
        <ele>280.326989</ele>
        <time>2021-11-21T10:29:36.853Z</time>
      </trkpt>
      <trkpt lat="47.595923" lon="7.631253">
        <ele>280.575274</ele>
        <time>2021-11-21T10:29:47.096Z</time>
      </trkpt>
      <trkpt lat="47.595894" lon="7.631265">
        <ele>280.587129</ele>
        <time>2021-11-21T10:29:47.654Z</time>
      </trkpt>
      <trkpt lat="47.595873" lon="7.631280">
        <ele>280.596307</ele>
        <time>2021-11-21T10:29:48.044Z</time>
      </trkpt>
      <trkpt lat="47.595252" lon="7.631748">
        <ele>280.870584</ele>
        <time>2021-11-21T10:29:59.528Z</time>
      </trkpt>
      <trkpt lat="47.595202" lon="7.631819">
        <ele>280.897842</ele>
        <time>2021-11-21T10:30:00.680Z</time>
      </trkpt>
      <trkpt lat="47.595013" lon="7.631985">
        <ele>280.980768</ele>
        <time>2021-11-21T10:30:04.371Z</time>
      </trkpt>
      <trkpt lat="47.594815" lon="7.632123">
        <ele>281.058684</ele>
        <time>2021-11-21T10:30:08.154Z</time>
      </trkpt>
      <trkpt lat="47.594788" lon="7.632141">
        <ele>281.069227</ele>
        <time>2021-11-21T10:30:08.642Z</time>
      </trkpt>
      <trkpt lat="47.594743" lon="7.632152">
        <ele>281.085470</ele>
        <time>2021-11-21T10:30:09.474Z</time>
      </trkpt>
      <trkpt lat="47.594672" lon="7.632150">
        <ele>281.110760</ele>
        <time>2021-11-21T10:30:10.714Z</time>
      </trkpt>
      <trkpt lat="47.594605" lon="7.632126">
        <ele>281.135308</ele>
        <time>2021-11-21T10:30:11.989Z</time>
      </trkpt>
      <trkpt lat="47.594484" lon="7.632038">
        <ele>281.183305</ele>
        <time>2021-11-21T10:30:14.295Z</time>
      </trkpt>
      <trkpt lat="47.594327" lon="7.631926">
        <ele>281.245353</ele>
        <time>2021-11-21T10:30:17.292Z</time>
      </trkpt>
      <trkpt lat="47.594232" lon="7.631854">
        <ele>281.283349</ele>
        <time>2021-11-21T10:30:19.099Z</time>
      </trkpt>
      <trkpt lat="47.594129" lon="7.631776">
        <ele>281.324538</ele>
        <time>2021-11-21T10:30:20.928Z</time>
      </trkpt>
      <trkpt lat="47.594067" lon="7.631905">
        <ele>281.362584</ele>
        <time>2021-11-21T10:30:22.692Z</time>
      </trkpt>
      <trkpt lat="47.593945" lon="7.632160">
        <ele>281.437675</ele>
        <time>2021-11-21T10:30:25.927Z</time>
      </trkpt>
      <trkpt lat="47.593668" lon="7.632732">
        <ele>281.590426</ele>
        <time>2021-11-21T10:30:33.121Z</time>
      </trkpt>
      <trkpt lat="47.593569" lon="7.632922">
        <ele>281.598993</ele>
        <time>2021-11-21T10:30:35.527Z</time>
      </trkpt>
      <trkpt lat="47.593357" lon="7.633366">
        <ele>281.618403</ele>
        <time>2021-11-21T10:30:40.846Z</time>
      </trkpt>
      <trkpt lat="47.593264" lon="7.633642">
        <ele>281.629411</ele>
        <time>2021-11-21T10:30:43.943Z</time>
      </trkpt>
      <trkpt lat="47.593191" lon="7.633915">
        <ele>281.639889</ele>
        <time>2021-11-21T10:30:46.902Z</time>
      </trkpt>
      <trkpt lat="47.593146" lon="7.634554">
        <ele>281.662813</ele>
        <time>2021-11-21T10:30:53.566Z</time>
      </trkpt>
      <trkpt lat="47.593040" lon="7.635203">
        <ele>281.650368</ele>
        <time>2021-11-21T10:31:00.360Z</time>
      </trkpt>
      <trkpt lat="47.593020" lon="7.635250">
        <ele>281.633960</ele>
        <time>2021-11-21T10:31:01.027Z</time>
      </trkpt>
      <trkpt lat="47.592984" lon="7.635276">
        <ele>281.616430</ele>
        <time>2021-11-21T10:31:01.558Z</time>
      </trkpt>
      <trkpt lat="47.592438" lon="7.635358">
        <ele>281.376173</ele>
        <time>2021-11-21T10:31:09.730Z</time>
      </trkpt>
      <trkpt lat="47.592405" lon="7.635387">
        <ele>281.359379</ele>
        <time>2021-11-21T10:31:10.185Z</time>
      </trkpt>
      <trkpt lat="47.592363" lon="7.635505">
        <ele>281.319986</ele>
        <time>2021-11-21T10:31:11.686Z</time>
      </trkpt>
      <trkpt lat="47.592151" lon="7.636264">
        <ele>281.077434</ele>
        <time>2021-11-21T10:31:19.418Z</time>
      </trkpt>
      <trkpt lat="47.592004" lon="7.636793">
        <ele>280.908509</ele>
        <time>2021-11-21T10:31:24.019Z</time>
      </trkpt>
      <trkpt lat="47.591939" lon="7.636981">
        <ele>280.665626</ele>
        <time>2021-11-21T10:31:25.663Z</time>
      </trkpt>
      <trkpt lat="47.591826" lon="7.637265">
        <ele>280.210834</ele>
        <time>2021-11-21T10:31:28.299Z</time>
      </trkpt>
      <trkpt lat="47.591793" lon="7.637341">
        <ele>280.086165</ele>
        <time>2021-11-21T10:31:28.897Z</time>
      </trkpt>
      <trkpt lat="47.591581" lon="7.637948">
        <ele>279.143364</ele>
        <time>2021-11-21T10:31:34.002Z</time>
      </trkpt>
      <trkpt lat="47.591568" lon="7.637986">
        <ele>279.084595</ele>
        <time>2021-11-21T10:31:34.335Z</time>
      </trkpt>
      <trkpt lat="47.591560" lon="7.638083">
        <ele>278.949812</ele>
        <time>2021-11-21T10:31:35.055Z</time>
      </trkpt>
      <trkpt lat="47.591561" lon="7.638177">
        <ele>278.820147</ele>
        <time>2021-11-21T10:31:35.770Z</time>
      </trkpt>
      <trkpt lat="47.591582" lon="7.638302">
        <ele>278.642473</ele>
        <time>2021-11-21T10:31:36.607Z</time>
      </trkpt>
      <trkpt lat="47.591888" lon="7.639181">
        <ele>277.278136</ele>
        <time>2021-11-21T10:31:43.838Z</time>
      </trkpt>
      <trkpt lat="47.592081" lon="7.639698">
        <ele>276.309943</ele>
        <time>2021-11-21T10:31:47.945Z</time>
      </trkpt>
      <trkpt lat="47.592111" lon="7.639788">
        <ele>276.143339</ele>
        <time>2021-11-21T10:31:48.659Z</time>
      </trkpt>
      <trkpt lat="47.592161" lon="7.639874">
        <ele>275.954908</ele>
        <time>2021-11-21T10:31:49.927Z</time>
      </trkpt>
      <trkpt lat="47.592285" lon="7.640265">
        <ele>275.237879</ele>
        <time>2021-11-21T10:31:54.126Z</time>
      </trkpt>
      <trkpt lat="47.592336" lon="7.640612">
        <ele>274.648515</ele>
        <time>2021-11-21T10:31:57.960Z</time>
      </trkpt>
      <trkpt lat="47.592346" lon="7.640681">
        <ele>274.531395</ele>
        <time>2021-11-21T10:31:58.654Z</time>
      </trkpt>
      <trkpt lat="47.592339" lon="7.640861">
        <ele>274.232188</ele>
        <time>2021-11-21T10:32:00.508Z</time>
      </trkpt>
      <trkpt lat="47.592341" lon="7.640976">
        <ele>274.041282</ele>
        <time>2021-11-21T10:32:01.327Z</time>
      </trkpt>
      <trkpt lat="47.592311" lon="7.641437">
        <ele>273.272697</ele>
        <time>2021-11-21T10:32:04.615Z</time>
      </trkpt>
      <trkpt lat="47.592291" lon="7.641581">
        <ele>273.028713</ele>
        <time>2021-11-21T10:32:05.626Z</time>
      </trkpt>
      <trkpt lat="47.592277" lon="7.641676">
        <ele>272.867340</ele>
        <time>2021-11-21T10:32:06.391Z</time>
      </trkpt>
      <trkpt lat="47.592236" lon="7.641777">
        <ele>272.717662</ele>
        <time>2021-11-21T10:32:07.220Z</time>
      </trkpt>
      <trkpt lat="47.592141" lon="7.642236">
        <ele>272.227932</ele>
        <time>2021-11-21T10:32:10.937Z</time>
      </trkpt>
      <trkpt lat="47.592138" lon="7.642302">
        <ele>272.160460</ele>
        <time>2021-11-21T10:32:11.391Z</time>
      </trkpt>
      <trkpt lat="47.592144" lon="7.642395">
        <ele>272.065167</ele>
        <time>2021-11-21T10:32:12.142Z</time>
      </trkpt>
      <trkpt lat="47.592147" lon="7.642526">
        <ele>271.931470</ele>
        <time>2021-11-21T10:32:13.105Z</time>
      </trkpt>
      <trkpt lat="47.592139" lon="7.642591">
        <ele>271.864075</ele>
        <time>2021-11-21T10:32:13.598Z</time>
      </trkpt>
      <trkpt lat="47.592109" lon="7.642817">
        <ele>271.629133</ele>
        <time>2021-11-21T10:32:15.403Z</time>
      </trkpt>
      <trkpt lat="47.592099" lon="7.642873">
        <ele>271.570045</ele>
        <time>2021-11-21T10:32:15.855Z</time>
      </trkpt>
      <trkpt lat="47.592096" lon="7.642889">
        <ele>271.553106</ele>
        <time>2021-11-21T10:32:15.987Z</time>
      </trkpt>
      <trkpt lat="47.592075" lon="7.643001">
        <ele>271.434533</ele>
        <time>2021-11-21T10:32:16.883Z</time>
      </trkpt>
      <trkpt lat="47.592059" lon="7.643113">
        <ele>271.317758</ele>
        <time>2021-11-21T10:32:17.722Z</time>
      </trkpt>
      <trkpt lat="47.592040" lon="7.643345">
        <ele>271.079380</ele>
        <time>2021-11-21T10:32:19.620Z</time>
      </trkpt>
      <trkpt lat="47.592040" lon="7.643441">
        <ele>270.981461</ele>
        <time>2021-11-21T10:32:20.372Z</time>
      </trkpt>
      <trkpt lat="47.592051" lon="7.643610">
        <ele>270.808280</ele>
        <time>2021-11-21T10:32:21.646Z</time>
      </trkpt>
      <trkpt lat="47.592160" lon="7.644024">
        <ele>270.354962</ele>
        <time>2021-11-21T10:32:25.206Z</time>
      </trkpt>
      <trkpt lat="47.592590" lon="7.645087">
        <ele>269.843216</ele>
        <time>2021-11-21T10:32:35.854Z</time>
      </trkpt>
      <trkpt lat="47.592604" lon="7.645155">
        <ele>269.826389</ele>
        <time>2021-11-21T10:32:36.883Z</time>
      </trkpt>
      <trkpt lat="47.592612" lon="7.645242">
        <ele>269.805608</ele>
        <time>2021-11-21T10:32:37.703Z</time>
      </trkpt>
      <trkpt lat="47.592615" lon="7.645321">
        <ele>269.786881</ele>
        <time>2021-11-21T10:32:38.431Z</time>
      </trkpt>
      <trkpt lat="47.592608" lon="7.645397">
        <ele>269.768726</ele>
        <time>2021-11-21T10:32:39.062Z</time>
      </trkpt>
      <trkpt lat="47.592592" lon="7.645495">
        <ele>269.744862</ele>
        <time>2021-11-21T10:32:39.940Z</time>
      </trkpt>
      <trkpt lat="47.592575" lon="7.645573">
        <ele>269.725461</ele>
        <time>2021-11-21T10:32:40.729Z</time>
      </trkpt>
      <trkpt lat="47.592558" lon="7.645627">
        <ele>269.711357</ele>
        <time>2021-11-21T10:32:41.462Z</time>
      </trkpt>
      <trkpt lat="47.592527" lon="7.645695">
        <ele>269.691931</ele>
        <time>2021-11-21T10:32:42.461Z</time>
      </trkpt>
      <trkpt lat="47.592527" lon="7.645695">
        <ele>269.691931</ele>
        <time>2021-11-21T10:32:42.462Z</time>
      </trkpt>
      <trkpt lat="47.592507" lon="7.645734">
        <ele>269.680335</ele>
        <time>2021-11-21T10:32:42.922Z</time>
      </trkpt>
      <trkpt lat="47.592240" lon="7.646267">
        <ele>269.523193</ele>
        <time>2021-11-21T10:32:49.890Z</time>
      </trkpt>
      <trkpt lat="47.592219" lon="7.646306">
        <ele>269.511381</ele>
        <time>2021-11-21T10:32:50.349Z</time>
      </trkpt>
      <trkpt lat="47.592188" lon="7.646275">
        <ele>269.498259</ele>
        <time>2021-11-21T10:32:50.870Z</time>
      </trkpt>
      <trkpt lat="47.592086" lon="7.646139">
        <ele>269.450119</ele>
        <time>2021-11-21T10:32:53.002Z</time>
      </trkpt>
      <trkpt lat="47.592050" lon="7.646095">
        <ele>269.432596</ele>
        <time>2021-11-21T10:32:53.614Z</time>
      </trkpt>
      <trkpt lat="47.591154" lon="7.645003">
        <ele>268.942613</ele>
        <time>2021-11-21T10:33:08.922Z</time>
      </trkpt>
      <trkpt lat="47.591141" lon="7.644987">
        <ele>268.935475</ele>
        <time>2021-11-21T10:33:09.147Z</time>
      </trkpt>
      <trkpt lat="47.590669" lon="7.644422">
        <ele>268.679462</ele>
        <time>2021-11-21T10:33:17.095Z</time>
      </trkpt>
      <trkpt lat="47.589605" lon="7.643151">
        <ele>268.568546</ele>
        <time>2021-11-21T10:33:36.447Z</time>
      </trkpt>
      <trkpt lat="47.589439" lon="7.642956">
        <ele>268.551354</ele>
        <time>2021-11-21T10:33:39.858Z</time>
      </trkpt>
      <trkpt lat="47.589372" lon="7.642899">
        <ele>268.545083</ele>
        <time>2021-11-21T10:33:41.146Z</time>
      </trkpt>
      <trkpt lat="47.589069" lon="7.642493">
        <ele>268.531895</ele>
        <time>2021-11-21T10:33:47.720Z</time>
      </trkpt>
      <trkpt lat="47.588260" lon="7.641096">
        <ele>268.524334</ele>
        <time>2021-11-21T10:34:06.955Z</time>
      </trkpt>
      <trkpt lat="47.586685" lon="7.638092">
        <ele>266.981480</ele>
        <time>2021-11-21T10:34:40.118Z</time>
      </trkpt>
      <trkpt lat="47.586552" lon="7.637873">
        <ele>266.807143</ele>
        <time>2021-11-21T10:34:42.512Z</time>
      </trkpt>
      <trkpt lat="47.586539" lon="7.637889">
        <ele>266.792324</ele>
        <time>2021-11-21T10:34:44.409Z</time>
      </trkpt>
      <trkpt lat="47.586472" lon="7.637973">
        <ele>266.715363</ele>
        <time>2021-11-21T10:34:53.654Z</time>
      </trkpt>
      <trkpt lat="47.586127" lon="7.638478">
        <ele>266.290133</ele>
        <time>2021-11-21T10:35:45.940Z</time>
      </trkpt>
      <trkpt lat="47.586090" lon="7.638505">
        <ele>266.253962</ele>
        <time>2021-11-21T10:35:50.116Z</time>
      </trkpt>
      <trkpt lat="47.586094" lon="7.638577">
        <ele>266.211223</ele>
        <time>2021-11-21T10:35:55.395Z</time>
      </trkpt>
      <trkpt lat="47.586088" lon="7.638684">
        <ele>266.147704</ele>
        <time>2021-11-21T10:36:03.264Z</time>
      </trkpt>
      <trkpt lat="47.585643" lon="7.640577">
        <ele>265.785010</ele>
        <time>2021-11-21T10:38:29.150Z</time>
      </trkpt>
      <trkpt lat="47.585624" lon="7.640660">
        <ele>265.782780</ele>
        <time>2021-11-21T10:38:35.840Z</time>
      </trkpt>
      <trkpt lat="47.585609" lon="7.640735">
        <ele>265.780789</ele>
        <time>2021-11-21T10:38:41.774Z</time>
      </trkpt>
      <trkpt lat="47.585609" lon="7.640735">
        <ele>265.780789</ele>
        <time>2021-11-21T10:38:41.786Z</time>
      </trkpt>
      <trkpt lat="47.585359" lon="7.642334">
        <ele>266.513382</ele>
        <time>2021-11-21T10:40:49.252Z</time>
      </trkpt>
      <trkpt lat="47.585354" lon="7.642462">
        <ele>266.677058</ele>
        <time>2021-11-21T10:40:59.417Z</time>
      </trkpt>
      <trkpt lat="47.585336" lon="7.642883">
        <ele>267.215577</ele>
        <time>2021-11-21T10:41:33.020Z</time>
      </trkpt>
      <trkpt lat="47.585326" lon="7.643892">
        <ele>268.503786</ele>
        <time>2021-11-21T10:42:54.308Z</time>
      </trkpt>
      <trkpt lat="47.585328" lon="7.643994">
        <ele>268.634053</ele>
        <time>2021-11-21T10:42:56.325Z</time>
      </trkpt>
      <trkpt lat="47.585335" lon="7.644075">
        <ele>268.738301</ele>
        <time>2021-11-21T10:42:57.959Z</time>
      </trkpt>
      <trkpt lat="47.585331" lon="7.644822">
        <ele>270.107660</ele>
        <time>2021-11-21T10:43:13.703Z</time>
      </trkpt>
      <trkpt lat="47.585208" lon="7.646213">
        <ele>273.293960</ele>
        <time>2021-11-21T10:43:45.666Z</time>
      </trkpt>
      <trkpt lat="47.585228" lon="7.646594">
        <ele>274.161912</ele>
        <time>2021-11-21T10:43:54.974Z</time>
      </trkpt>
      <trkpt lat="47.585361" lon="7.647766">
        <ele>276.806634</ele>
        <time>2021-11-21T10:44:23.421Z</time>
      </trkpt>
      <trkpt lat="47.585377" lon="7.647940">
        <ele>277.192263</ele>
        <time>2021-11-21T10:44:27.543Z</time>
      </trkpt>
      <trkpt lat="47.585369" lon="7.648060">
        <ele>277.457060</ele>
        <time>2021-11-21T10:44:30.670Z</time>
      </trkpt>
      <trkpt lat="47.585252" lon="7.648497">
        <ele>278.489527</ele>
        <time>2021-11-21T10:44:41.236Z</time>
      </trkpt>
      <trkpt lat="47.585161" lon="7.648839">
        <ele>279.296868</ele>
        <time>2021-11-21T10:44:49.333Z</time>
      </trkpt>
      <trkpt lat="47.585063" lon="7.649185">
        <ele>280.120941</ele>
        <time>2021-11-21T10:44:56.101Z</time>
      </trkpt>
      <trkpt lat="47.585015" lon="7.649351">
        <ele>280.517556</ele>
        <time>2021-11-21T10:44:59.241Z</time>
      </trkpt>
      <trkpt lat="47.584886" lon="7.649803">
        <ele>281.338137</ele>
        <time>2021-11-21T10:45:07.452Z</time>
      </trkpt>
      <trkpt lat="47.584856" lon="7.649890">
        <ele>281.447495</ele>
        <time>2021-11-21T10:45:08.980Z</time>
      </trkpt>
      <trkpt lat="47.584850" lon="7.649909">
        <ele>281.470976</ele>
        <time>2021-11-21T10:45:09.333Z</time>
      </trkpt>
      <trkpt lat="47.584842" lon="7.649930">
        <ele>281.497969</ele>
        <time>2021-11-21T10:45:09.775Z</time>
      </trkpt>
      <trkpt lat="47.584812" lon="7.650016">
        <ele>281.606332</ele>
        <time>2021-11-21T10:45:11.593Z</time>
      </trkpt>
      <trkpt lat="47.584784" lon="7.650175">
        <ele>281.790253</ele>
        <time>2021-11-21T10:45:13.975Z</time>
      </trkpt>
      <trkpt lat="47.584811" lon="7.650714">
        <ele>282.395172</ele>
        <time>2021-11-21T10:45:22.127Z</time>
      </trkpt>
      <trkpt lat="47.584829" lon="7.651141">
        <ele>282.874010</ele>
        <time>2021-11-21T10:45:28.181Z</time>
      </trkpt>
      <trkpt lat="47.584828" lon="7.651274">
        <ele>283.022875</ele>
        <time>2021-11-21T10:45:31.869Z</time>
      </trkpt>
      <trkpt lat="47.584812" lon="7.651403">
        <ele>283.169674</ele>
        <time>2021-11-21T10:45:35.672Z</time>
      </trkpt>
      <trkpt lat="47.584795" lon="7.651535">
        <ele>283.320080</ele>
        <time>2021-11-21T10:45:39.486Z</time>
      </trkpt>
      <trkpt lat="47.584772" lon="7.651673">
        <ele>283.479177</ele>
        <time>2021-11-21T10:45:41.276Z</time>
      </trkpt>
      <trkpt lat="47.584640" lon="7.652138">
        <ele>284.043827</ele>
        <time>2021-11-21T10:45:47.627Z</time>
      </trkpt>
      <trkpt lat="47.584548" lon="7.652398">
        <ele>284.184728</ele>
        <time>2021-11-21T10:45:51.034Z</time>
      </trkpt>
      <trkpt lat="47.584453" lon="7.652670">
        <ele>284.324606</ele>
        <time>2021-11-21T10:45:54.888Z</time>
      </trkpt>
      <trkpt lat="47.584433" lon="7.652727">
        <ele>284.353948</ele>
        <time>2021-11-21T10:45:55.643Z</time>
      </trkpt>
      <trkpt lat="47.584419" lon="7.652765">
        <ele>284.373721</ele>
        <time>2021-11-21T10:45:56.124Z</time>
      </trkpt>
      <trkpt lat="47.584405" lon="7.652808">
        <ele>284.395526</ele>
        <time>2021-11-21T10:45:56.729Z</time>
      </trkpt>
      <trkpt lat="47.584372" lon="7.652901">
        <ele>284.443514</ele>
        <time>2021-11-21T10:45:58.052Z</time>
      </trkpt>
      <trkpt lat="47.584311" lon="7.653057">
        <ele>284.525860</ele>
        <time>2021-11-21T10:46:00.302Z</time>
      </trkpt>
      <trkpt lat="47.584265" lon="7.653075">
        <ele>284.558071</ele>
        <time>2021-11-21T10:46:01.164Z</time>
      </trkpt>
      <trkpt lat="47.583914" lon="7.653210">
        <ele>284.803580</ele>
        <time>2021-11-21T10:46:07.560Z</time>
      </trkpt>
      <trkpt lat="47.583768" lon="7.653263">
        <ele>284.905349</ele>
        <time>2021-11-21T10:46:10.247Z</time>
      </trkpt>
      <trkpt lat="47.583768" lon="7.653263">
        <ele>284.905349</ele>
        <time>2021-11-21T10:46:10.278Z</time>
      </trkpt>
      <trkpt lat="47.583768" lon="7.653263">
        <ele>284.905349</ele>
        <time>2021-11-21T10:46:10.309Z</time>
      </trkpt>
      <trkpt lat="47.583620" lon="7.653317">
        <ele>285.008541</ele>
        <time>2021-11-21T10:46:13.113Z</time>
      </trkpt>
      <trkpt lat="47.583580" lon="7.653203">
        <ele>285.067225</ele>
        <time>2021-11-21T10:46:14.640Z</time>
      </trkpt>
      <trkpt lat="47.583294" lon="7.652488">
        <ele>285.258933</ele>
        <time>2021-11-21T10:46:23.653Z</time>
      </trkpt>
      <trkpt lat="47.583125" lon="7.652270">
        <ele>285.246556</ele>
        <time>2021-11-21T10:46:26.758Z</time>
      </trkpt>
      <trkpt lat="47.582925" lon="7.652099">
        <ele>285.233800</ele>
        <time>2021-11-21T10:46:30.002Z</time>
      </trkpt>
      <trkpt lat="47.582649" lon="7.651865">
        <ele>285.216234</ele>
        <time>2021-11-21T10:46:34.396Z</time>
      </trkpt>
      <trkpt lat="47.582569" lon="7.651788">
        <ele>285.210964</ele>
        <time>2021-11-21T10:46:35.723Z</time>
      </trkpt>
      <trkpt lat="47.582386" lon="7.651596">
        <ele>285.198577</ele>
        <time>2021-11-21T10:46:38.810Z</time>
      </trkpt>
      <trkpt lat="47.582139" lon="7.651252">
        <ele>285.179853</ele>
        <time>2021-11-21T10:46:43.601Z</time>
      </trkpt>
      <trkpt lat="47.581664" lon="7.650574">
        <ele>285.208048</ele>
        <time>2021-11-21T10:46:53.719Z</time>
      </trkpt>
      <trkpt lat="47.581330" lon="7.650129">
        <ele>285.236132</ele>
        <time>2021-11-21T10:47:00.520Z</time>
      </trkpt>
      <trkpt lat="47.580923" lon="7.649586">
        <ele>285.270376</ele>
        <time>2021-11-21T10:47:08.996Z</time>
      </trkpt>
      <trkpt lat="47.580690" lon="7.649275">
        <ele>285.279991</ele>
        <time>2021-11-21T10:47:13.629Z</time>
      </trkpt>
      <trkpt lat="47.580600" lon="7.649166">
        <ele>285.267952</ele>
        <time>2021-11-21T10:47:15.705Z</time>
      </trkpt>
      <trkpt lat="47.580497" lon="7.649043">
        <ele>285.254251</ele>
        <time>2021-11-21T10:47:17.504Z</time>
      </trkpt>
      <trkpt lat="47.580390" lon="7.648947">
        <ele>285.241295</ele>
        <time>2021-11-21T10:47:19.293Z</time>
      </trkpt>
      <trkpt lat="47.580196" lon="7.648842">
        <ele>285.219901</ele>
        <time>2021-11-21T10:47:22.416Z</time>
      </trkpt>
      <trkpt lat="47.580196" lon="7.648842">
        <ele>285.219901</ele>
        <time>2021-11-21T10:47:22.453Z</time>
      </trkpt>
      <trkpt lat="47.580196" lon="7.648842">
        <ele>285.219901</ele>
        <time>2021-11-21T10:47:22.491Z</time>
      </trkpt>
      <trkpt lat="47.580086" lon="7.648781">
        <ele>285.207734</ele>
        <time>2021-11-21T10:47:24.086Z</time>
      </trkpt>
      <trkpt lat="47.579842" lon="7.648645">
        <ele>285.180730</ele>
        <time>2021-11-21T10:47:27.969Z</time>
      </trkpt>
      <trkpt lat="47.579401" lon="7.648402">
        <ele>285.131993</ele>
        <time>2021-11-21T10:47:34.924Z</time>
      </trkpt>
      <trkpt lat="47.578549" lon="7.647926">
        <ele>284.588323</ele>
        <time>2021-11-21T10:47:47.073Z</time>
      </trkpt>
      <trkpt lat="47.578355" lon="7.647814">
        <ele>284.411011</ele>
        <time>2021-11-21T10:47:49.552Z</time>
      </trkpt>
      <trkpt lat="47.578240" lon="7.647750">
        <ele>284.306395</ele>
        <time>2021-11-21T10:47:51.292Z</time>
      </trkpt>
      <trkpt lat="47.578212" lon="7.647592">
        <ele>284.212541</ele>
        <time>2021-11-21T10:47:53.046Z</time>
      </trkpt>
      <trkpt lat="47.578172" lon="7.647371">
        <ele>284.081081</ele>
        <time>2021-11-21T10:47:55.604Z</time>
      </trkpt>
      <trkpt lat="47.578114" lon="7.647072">
        <ele>283.902338</ele>
        <time>2021-11-21T10:47:59.246Z</time>
      </trkpt>
      <trkpt lat="47.577955" lon="7.646248">
        <ele>283.373628</ele>
        <time>2021-11-21T10:48:09.268Z</time>
      </trkpt>
      <trkpt lat="47.577871" lon="7.645828">
        <ele>283.064136</ele>
        <time>2021-11-21T10:48:14.239Z</time>
      </trkpt>
      <trkpt lat="47.577819" lon="7.645639">
        <ele>282.919930</ele>
        <time>2021-11-21T10:48:16.843Z</time>
      </trkpt>
      <trkpt lat="47.577778" lon="7.645521">
        <ele>282.826156</ele>
        <time>2021-11-21T10:48:18.194Z</time>
      </trkpt>
      <trkpt lat="47.577733" lon="7.645418">
        <ele>282.739459</ele>
        <time>2021-11-21T10:48:19.583Z</time>
      </trkpt>
      <trkpt lat="47.577068" lon="7.644471">
        <ele>281.773708</ele>
        <time>2021-11-21T10:48:35.879Z</time>
      </trkpt>
      <trkpt lat="47.577053" lon="7.644408">
        <ele>281.726507</ele>
        <time>2021-11-21T10:48:36.561Z</time>
      </trkpt>
      <trkpt lat="47.577020" lon="7.644357">
        <ele>281.674148</ele>
        <time>2021-11-21T10:48:37.193Z</time>
      </trkpt>
      <trkpt lat="47.576984" lon="7.644345">
        <ele>281.623400</ele>
        <time>2021-11-21T10:48:37.645Z</time>
      </trkpt>
      <trkpt lat="47.576840" lon="7.644326">
        <ele>281.424569</ele>
        <time>2021-11-21T10:48:39.517Z</time>
      </trkpt>
      <trkpt lat="47.576834" lon="7.644207">
        <ele>281.313853</ele>
        <time>2021-11-21T10:48:40.550Z</time>
      </trkpt>
      <trkpt lat="47.576806" lon="7.644093">
        <ele>281.201292</ele>
        <time>2021-11-21T10:48:41.466Z</time>
      </trkpt>
      <trkpt lat="47.576675" lon="7.643893">
        <ele>280.942655</ele>
        <time>2021-11-21T10:48:43.865Z</time>
      </trkpt>
      <trkpt lat="47.575918" lon="7.642896">
        <ele>279.549955</ele>
        <time>2021-11-21T10:48:56.167Z</time>
      </trkpt>
      <trkpt lat="47.575929" lon="7.642857">
        <ele>279.510735</ele>
        <time>2021-11-21T10:48:56.443Z</time>
      </trkpt>
      <trkpt lat="47.575598" lon="7.642288">
        <ele>278.292090</ele>
        <time>2021-11-21T10:49:01.813Z</time>
      </trkpt>
      <trkpt lat="47.575402" lon="7.642011">
        <ele>277.430323</ele>
        <time>2021-11-21T10:49:04.513Z</time>
      </trkpt>
      <trkpt lat="47.574995" lon="7.641437">
        <ele>275.642610</ele>
        <time>2021-11-21T10:49:10.101Z</time>
      </trkpt>
      <trkpt lat="47.574636" lon="7.640933">
        <ele>274.069133</ele>
        <time>2021-11-21T10:49:14.981Z</time>
      </trkpt>
      <trkpt lat="47.574537" lon="7.640780">
        <ele>273.614008</ele>
        <time>2021-11-21T10:49:16.398Z</time>
      </trkpt>
      <trkpt lat="47.574263" lon="7.640424">
        <ele>272.777488</ele>
        <time>2021-11-21T10:49:20.090Z</time>
      </trkpt>
      <trkpt lat="47.572931" lon="7.638578">
        <ele>269.161843</ele>
        <time>2021-11-21T10:49:40.299Z</time>
      </trkpt>
      <trkpt lat="47.572773" lon="7.638380">
        <ele>268.929730</ele>
        <time>2021-11-21T10:49:42.958Z</time>
      </trkpt>
      <trkpt lat="47.572427" lon="7.637970">
        <ele>268.432774</ele>
        <time>2021-11-21T10:49:48.508Z</time>
      </trkpt>
      <trkpt lat="47.572206" lon="7.637673">
        <ele>268.098109</ele>
        <time>2021-11-21T10:49:52.205Z</time>
      </trkpt>
      <trkpt lat="47.571982" lon="7.637364">
        <ele>267.754821</ele>
        <time>2021-11-21T10:49:55.999Z</time>
      </trkpt>
      <trkpt lat="47.571861" lon="7.637212">
        <ele>267.576883</ele>
        <time>2021-11-21T10:49:57.918Z</time>
      </trkpt>
      <trkpt lat="47.571753" lon="7.637078">
        <ele>267.455657</ele>
        <time>2021-11-21T10:49:59.682Z</time>
      </trkpt>
      <trkpt lat="47.571578" lon="7.636839">
        <ele>267.272614</ele>
        <time>2021-11-21T10:50:02.591Z</time>
      </trkpt>
      <trkpt lat="47.571283" lon="7.636434">
        <ele>266.963310</ele>
        <time>2021-11-21T10:50:07.548Z</time>
      </trkpt>
      <trkpt lat="47.571014" lon="7.636055">
        <ele>266.677823</ele>
        <time>2021-11-21T10:50:12.295Z</time>
      </trkpt>
      <trkpt lat="47.570302" lon="7.635051">
        <ele>265.912468</ele>
        <time>2021-11-21T10:50:25.048Z</time>
      </trkpt>
      <trkpt lat="47.570259" lon="7.635033">
        <ele>265.876694</ele>
        <time>2021-11-21T10:50:25.594Z</time>
      </trkpt>
      <trkpt lat="47.570189" lon="7.635029">
        <ele>265.820609</ele>
        <time>2021-11-21T10:50:26.541Z</time>
      </trkpt>
      <trkpt lat="47.570134" lon="7.634958">
        <ele>265.762214</ele>
        <time>2021-11-21T10:50:27.475Z</time>
      </trkpt>
      <trkpt lat="47.570039" lon="7.634831">
        <ele>265.659787</ele>
        <time>2021-11-21T10:50:29.087Z</time>
      </trkpt>
      <trkpt lat="47.569914" lon="7.634657">
        <ele>265.522492</ele>
        <time>2021-11-21T10:50:31.279Z</time>
      </trkpt>
      <trkpt lat="47.569443" lon="7.634003">
        <ele>265.005767</ele>
        <time>2021-11-21T10:50:39.279Z</time>
      </trkpt>
      <trkpt lat="47.569381" lon="7.633887">
        <ele>264.925827</ele>
        <time>2021-11-21T10:50:40.514Z</time>
      </trkpt>
      <trkpt lat="47.569365" lon="7.633738">
        <ele>264.844327</ele>
        <time>2021-11-21T10:50:41.753Z</time>
      </trkpt>
      <trkpt lat="47.569280" lon="7.633767">
        <ele>264.774494</ele>
        <time>2021-11-21T10:50:42.866Z</time>
      </trkpt>
      <trkpt lat="47.569194" lon="7.633796">
        <ele>264.707027</ele>
        <time>2021-11-21T10:50:43.969Z</time>
      </trkpt>
      <trkpt lat="47.568916" lon="7.633890">
        <ele>264.564080</ele>
        <time>2021-11-21T10:50:47.523Z</time>
      </trkpt>
      <trkpt lat="47.568755" lon="7.633945">
        <ele>264.481252</ele>
        <time>2021-11-21T10:50:49.558Z</time>
      </trkpt>
      <trkpt lat="47.568664" lon="7.633976">
        <ele>264.434443</ele>
        <time>2021-11-21T10:50:50.680Z</time>
      </trkpt>
      <trkpt lat="47.568506" lon="7.634074">
        <ele>264.348578</ele>
        <time>2021-11-21T10:50:52.835Z</time>
      </trkpt>
      <trkpt lat="47.568426" lon="7.634116">
        <ele>264.306031</ele>
        <time>2021-11-21T10:50:54.287Z</time>
      </trkpt>
      <trkpt lat="47.567896" lon="7.634414">
        <ele>264.021856</ele>
        <time>2021-11-21T10:51:05.006Z</time>
      </trkpt>
      <trkpt lat="47.567554" lon="7.634720">
        <ele>263.821585</ele>
        <time>2021-11-21T10:51:13.366Z</time>
      </trkpt>
      <trkpt lat="47.567470" lon="7.634813">
        <ele>263.808700</ele>
        <time>2021-11-21T10:51:15.331Z</time>
      </trkpt>
      <trkpt lat="47.567447" lon="7.634839">
        <ele>263.808036</ele>
        <time>2021-11-21T10:51:15.963Z</time>
      </trkpt>
      <trkpt lat="47.567360" lon="7.634990">
        <ele>263.804957</ele>
        <time>2021-11-21T10:51:18.591Z</time>
      </trkpt>
      <trkpt lat="47.567291" lon="7.635141">
        <ele>263.802130</ele>
        <time>2021-11-21T10:51:21.124Z</time>
      </trkpt>
      <trkpt lat="47.567202" lon="7.635336">
        <ele>263.798480</ele>
        <time>2021-11-21T10:51:24.280Z</time>
      </trkpt>
      <trkpt lat="47.567127" lon="7.635520">
        <ele>263.795147</ele>
        <time>2021-11-21T10:51:27.109Z</time>
      </trkpt>
      <trkpt lat="47.566975" lon="7.635896">
        <ele>263.788351</ele>
        <time>2021-11-21T10:51:33.225Z</time>
      </trkpt>
      <trkpt lat="47.566893" lon="7.636097">
        <ele>263.784709</ele>
        <time>2021-11-21T10:51:36.489Z</time>
      </trkpt>
      <trkpt lat="47.566839" lon="7.636231">
        <ele>263.782289</ele>
        <time>2021-11-21T10:51:38.767Z</time>
      </trkpt>
      <trkpt lat="47.566788" lon="7.636368">
        <ele>263.779864</ele>
        <time>2021-11-21T10:51:40.835Z</time>
      </trkpt>
      <trkpt lat="47.566774" lon="7.636453">
        <ele>263.778507</ele>
        <time>2021-11-21T10:51:42.039Z</time>
      </trkpt>
      <trkpt lat="47.566766" lon="7.636540">
        <ele>263.777146</ele>
        <time>2021-11-21T10:51:43.362Z</time>
      </trkpt>
      <trkpt lat="47.566514" lon="7.636519">
        <ele>263.771346</ele>
        <time>2021-11-21T10:51:47.119Z</time>
      </trkpt>
      <trkpt lat="47.566084" lon="7.636483">
        <ele>263.552888</ele>
        <time>2021-11-21T10:51:53.485Z</time>
      </trkpt>
      <trkpt lat="47.566043" lon="7.636480">
        <ele>263.526811</ele>
        <time>2021-11-21T10:51:54.111Z</time>
      </trkpt>
      <trkpt lat="47.565914" lon="7.636469">
        <ele>263.444727</ele>
        <time>2021-11-21T10:51:55.874Z</time>
      </trkpt>
      <trkpt lat="47.565890" lon="7.636467">
        <ele>263.429457</ele>
        <time>2021-11-21T10:51:56.211Z</time>
      </trkpt>
      <trkpt lat="47.565789" lon="7.636459">
        <ele>263.365204</ele>
        <time>2021-11-21T10:51:57.493Z</time>
      </trkpt>
      <trkpt lat="47.565748" lon="7.636455">
        <ele>263.339102</ele>
        <time>2021-11-21T10:51:58.064Z</time>
      </trkpt>
      <trkpt lat="47.565321" lon="7.636419">
        <ele>263.067407</ele>
        <time>2021-11-21T10:52:03.368Z</time>
      </trkpt>
      <trkpt lat="47.564986" lon="7.636389">
        <ele>262.854207</ele>
        <time>2021-11-21T10:52:07.382Z</time>
      </trkpt>
      <trkpt lat="47.564924" lon="7.636372">
        <ele>262.814152</ele>
        <time>2021-11-21T10:52:08.129Z</time>
      </trkpt>
      <trkpt lat="47.564863" lon="7.636347">
        <ele>262.773947</ele>
        <time>2021-11-21T10:52:08.962Z</time>
      </trkpt>
      <trkpt lat="47.564136" lon="7.635747">
        <ele>261.680957</ele>
        <time>2021-11-21T10:52:19.589Z</time>
      </trkpt>
      <trkpt lat="47.563800" lon="7.635461">
        <ele>261.070516</ele>
        <time>2021-11-21T10:52:23.665Z</time>
      </trkpt>
      <trkpt lat="47.562895" lon="7.634844">
        <ele>259.557626</ele>
        <time>2021-11-21T10:52:34.759Z</time>
      </trkpt>
      <trkpt lat="47.562491" lon="7.634562">
        <ele>258.990262</ele>
        <time>2021-11-21T10:52:40.062Z</time>
      </trkpt>
      <trkpt lat="47.562356" lon="7.634468">
        <ele>258.800758</ele>
        <time>2021-11-21T10:52:41.681Z</time>
      </trkpt>
      <trkpt lat="47.562299" lon="7.634770">
        <ele>258.531913</ele>
        <time>2021-11-21T10:52:44.241Z</time>
      </trkpt>
      <trkpt lat="47.562290" lon="7.634813">
        <ele>258.493316</ele>
        <time>2021-11-21T10:52:44.565Z</time>
      </trkpt>
      <trkpt lat="47.562278" lon="7.634866">
        <ele>258.445389</ele>
        <time>2021-11-21T10:52:44.972Z</time>
      </trkpt>
      <trkpt lat="47.562267" lon="7.634913">
        <ele>258.402740</ele>
        <time>2021-11-21T10:52:45.477Z</time>
      </trkpt>
      <trkpt lat="47.562211" lon="7.635159">
        <ele>258.180164</ele>
        <time>2021-11-21T10:52:47.509Z</time>
      </trkpt>
      <trkpt lat="47.562196" lon="7.635223">
        <ele>258.122081</ele>
        <time>2021-11-21T10:52:48.045Z</time>
      </trkpt>
      <trkpt lat="47.562186" lon="7.635270">
        <ele>258.079832</ele>
        <time>2021-11-21T10:52:48.462Z</time>
      </trkpt>
      <trkpt lat="47.562076" lon="7.635765">
        <ele>257.633042</ele>
        <time>2021-11-21T10:52:52.611Z</time>
      </trkpt>
      <trkpt lat="47.561882" lon="7.636362">
        <ele>257.551925</ele>
        <time>2021-11-21T10:52:58.307Z</time>
      </trkpt>
      <trkpt lat="47.561822" lon="7.636510">
        <ele>257.566641</ele>
        <time>2021-11-21T10:53:00.066Z</time>
      </trkpt>
      <trkpt lat="47.561782" lon="7.636596">
        <ele>257.575544</ele>
        <time>2021-11-21T10:53:01.406Z</time>
      </trkpt>
      <trkpt lat="47.561686" lon="7.636795">
        <ele>257.596394</ele>
        <time>2021-11-21T10:53:04.905Z</time>
      </trkpt>
      <trkpt lat="47.561175" lon="7.637862">
        <ele>257.707918</ele>
        <time>2021-11-21T10:53:19.064Z</time>
      </trkpt>
      <trkpt lat="47.560897" lon="7.638442">
        <ele>257.899777</ele>
        <time>2021-11-21T10:53:26.598Z</time>
      </trkpt>
      <trkpt lat="47.560694" lon="7.638827">
        <ele>258.104670</ele>
        <time>2021-11-21T10:53:32.372Z</time>
      </trkpt>
      <trkpt lat="47.560246" lon="7.639588">
        <ele>258.528172</ele>
        <time>2021-11-21T10:53:44.079Z</time>
      </trkpt>
      <trkpt lat="47.559838" lon="7.640255">
        <ele>258.920296</ele>
        <time>2021-11-21T10:53:54.667Z</time>
      </trkpt>
      <trkpt lat="47.559349" lon="7.641052">
        <ele>259.496765</ele>
        <time>2021-11-21T10:54:09.220Z</time>
      </trkpt>
      <trkpt lat="47.559035" lon="7.641573">
        <ele>259.870601</ele>
        <time>2021-11-21T10:54:17.865Z</time>
      </trkpt>
      <trkpt lat="47.558885" lon="7.641826">
        <ele>260.050834</ele>
        <time>2021-11-21T10:54:21.537Z</time>
      </trkpt>
      <trkpt lat="47.558729" lon="7.642083">
        <ele>260.235828</ele>
        <time>2021-11-21T10:54:25.613Z</time>
      </trkpt>
      <trkpt lat="47.558518" lon="7.642425">
        <ele>260.202303</ele>
        <time>2021-11-21T10:54:30.661Z</time>
      </trkpt>
      <trkpt lat="47.558364" lon="7.642637">
        <ele>260.139606</ele>
        <time>2021-11-21T10:54:33.646Z</time>
      </trkpt>
      <trkpt lat="47.557834" lon="7.643162">
        <ele>259.949451</ele>
        <time>2021-11-21T10:54:43.294Z</time>
      </trkpt>
      <trkpt lat="47.556233" lon="7.644290">
        <ele>258.566123</ele>
        <time>2021-11-21T10:55:04.765Z</time>
      </trkpt>
      <trkpt lat="47.555716" lon="7.644654">
        <ele>257.942395</ele>
        <time>2021-11-21T10:55:11.448Z</time>
      </trkpt>
      <trkpt lat="47.555704" lon="7.644698">
        <ele>257.907495</ele>
        <time>2021-11-21T10:55:11.814Z</time>
      </trkpt>
      <trkpt lat="47.555705" lon="7.644761">
        <ele>257.861152</ele>
        <time>2021-11-21T10:55:12.391Z</time>
      </trkpt>
      <trkpt lat="47.555880" lon="7.645218">
        <ele>257.667250</ele>
        <time>2021-11-21T10:55:16.835Z</time>
      </trkpt>
      <trkpt lat="47.555943" lon="7.645361">
        <ele>257.620143</ele>
        <time>2021-11-21T10:55:18.540Z</time>
      </trkpt>
      <trkpt lat="47.555473" lon="7.645969">
        <ele>257.365127</ele>
        <time>2021-11-21T10:55:40.275Z</time>
      </trkpt>
      <trkpt lat="47.555430" lon="7.646034">
        <ele>257.340019</ele>
        <time>2021-11-21T10:55:41.345Z</time>
      </trkpt>
      <trkpt lat="47.555334" lon="7.646275">
        <ele>257.262823</ele>
        <time>2021-11-21T10:55:43.817Z</time>
      </trkpt>
      <trkpt lat="47.555260" lon="7.646449">
        <ele>257.206090</ele>
        <time>2021-11-21T10:55:46.019Z</time>
      </trkpt>
      <trkpt lat="47.555081" lon="7.646702">
        <ele>257.104979</ele>
        <time>2021-11-21T10:55:49.580Z</time>
      </trkpt>
      <trkpt lat="47.554979" lon="7.646846">
        <ele>257.047818</ele>
        <time>2021-11-21T10:55:51.866Z</time>
      </trkpt>
      <trkpt lat="47.554475" lon="7.647537">
        <ele>257.275019</ele>
        <time>2021-11-21T10:56:02.173Z</time>
      </trkpt>
      <trkpt lat="47.554118" lon="7.648113">
        <ele>257.449656</ele>
        <time>2021-11-21T10:56:11.196Z</time>
      </trkpt>
      <trkpt lat="47.553958" lon="7.648375">
        <ele>257.528561</ele>
        <time>2021-11-21T10:56:15.242Z</time>
      </trkpt>
      <trkpt lat="47.553714" lon="7.648774">
        <ele>257.653557</ele>
        <time>2021-11-21T10:56:21.216Z</time>
      </trkpt>
      <trkpt lat="47.553648" lon="7.648907">
        <ele>257.719505</ele>
        <time>2021-11-21T10:56:23.093Z</time>
      </trkpt>
      <trkpt lat="47.553146" lon="7.649919">
        <ele>258.221234</ele>
        <time>2021-11-21T10:56:37.407Z</time>
      </trkpt>
      <trkpt lat="47.552587" lon="7.651166">
        <ele>258.807049</ele>
        <time>2021-11-21T10:56:55.378Z</time>
      </trkpt>
      <trkpt lat="47.552183" lon="7.652241">
        <ele>259.244901</ele>
        <time>2021-11-21T10:57:09.591Z</time>
      </trkpt>
      <trkpt lat="47.552106" lon="7.652480">
        <ele>259.339144</ele>
        <time>2021-11-21T10:57:12.509Z</time>
      </trkpt>
      <trkpt lat="47.552114" lon="7.652563">
        <ele>259.368980</ele>
        <time>2021-11-21T10:57:13.477Z</time>
      </trkpt>
      <trkpt lat="47.552074" lon="7.652610">
        <ele>259.395897</ele>
        <time>2021-11-21T10:57:14.378Z</time>
      </trkpt>
      <trkpt lat="47.552025" lon="7.652751">
        <ele>259.452333</ele>
        <time>2021-11-21T10:57:16.135Z</time>
      </trkpt>
      <trkpt lat="47.551987" lon="7.652859">
        <ele>259.495675</ele>
        <time>2021-11-21T10:57:17.460Z</time>
      </trkpt>
      <trkpt lat="47.551932" lon="7.653017">
        <ele>259.558939</ele>
        <time>2021-11-21T10:57:19.454Z</time>
      </trkpt>
      <trkpt lat="47.551870" lon="7.653156">
        <ele>259.618229</ele>
        <time>2021-11-21T10:57:21.359Z</time>
      </trkpt>
      <trkpt lat="47.551661" lon="7.653577">
        <ele>259.773590</ele>
        <time>2021-11-21T10:57:27.161Z</time>
      </trkpt>
      <trkpt lat="47.551583" lon="7.653791">
        <ele>259.842288</ele>
        <time>2021-11-21T10:57:29.791Z</time>
      </trkpt>
      <trkpt lat="47.550937" lon="7.657286">
        <ele>260.834597</ele>
        <time>2021-11-21T10:58:10.365Z</time>
      </trkpt>
      <trkpt lat="47.550899" lon="7.657475">
        <ele>260.886495</ele>
        <time>2021-11-21T10:58:12.732Z</time>
      </trkpt>
      <trkpt lat="47.550868" lon="7.657668">
        <ele>260.938704</ele>
        <time>2021-11-21T10:58:14.833Z</time>
      </trkpt>
      <trkpt lat="47.550853" lon="7.657854">
        <ele>260.988000</ele>
        <time>2021-11-21T10:58:16.737Z</time>
      </trkpt>
      <trkpt lat="47.550745" lon="7.659104">
        <ele>261.204568</ele>
        <time>2021-11-21T10:58:29.871Z</time>
      </trkpt>
      <trkpt lat="47.550675" lon="7.659854">
        <ele>261.294550</ele>
        <time>2021-11-21T10:58:37.725Z</time>
      </trkpt>
      <trkpt lat="47.550671" lon="7.660018">
        <ele>261.314053</ele>
        <time>2021-11-21T10:58:39.369Z</time>
      </trkpt>
      <trkpt lat="47.550667" lon="7.660245">
        <ele>261.341040</ele>
        <time>2021-11-21T10:58:41.704Z</time>
      </trkpt>
      <trkpt lat="47.550660" lon="7.660475">
        <ele>261.368402</ele>
        <time>2021-11-21T10:58:44.160Z</time>
      </trkpt>
      <trkpt lat="47.549673" lon="7.667139">
        <ele>262.168743</ele>
        <time>2021-11-21T10:59:57.963Z</time>
      </trkpt>
      <trkpt lat="47.549432" lon="7.668426">
        <ele>261.753578</ele>
        <time>2021-11-21T11:00:09.552Z</time>
      </trkpt>
      <trkpt lat="47.549386" lon="7.668719">
        <ele>261.660069</ele>
        <time>2021-11-21T11:00:11.783Z</time>
      </trkpt>
      <trkpt lat="47.549361" lon="7.668877">
        <ele>261.555138</ele>
        <time>2021-11-21T11:00:13.197Z</time>
      </trkpt>
      <trkpt lat="47.549326" lon="7.669106">
        <ele>261.389219</ele>
        <time>2021-11-21T11:00:15.003Z</time>
      </trkpt>
      <trkpt lat="47.549302" lon="7.669267">
        <ele>261.272707</ele>
        <time>2021-11-21T11:00:16.189Z</time>
      </trkpt>
      <trkpt lat="47.549257" lon="7.669586">
        <ele>261.042417</ele>
        <time>2021-11-21T11:00:18.850Z</time>
      </trkpt>
      <trkpt lat="47.548962" lon="7.670528">
        <ele>260.308594</ele>
        <time>2021-11-21T11:00:27.329Z</time>
      </trkpt>
      <trkpt lat="47.548929" lon="7.670643">
        <ele>260.220290</ele>
        <time>2021-11-21T11:00:28.235Z</time>
      </trkpt>
      <trkpt lat="47.548906" lon="7.670686">
        <ele>260.181520</ele>
        <time>2021-11-21T11:00:28.610Z</time>
      </trkpt>
      <trkpt lat="47.548720" lon="7.670938">
        <ele>259.917641</ele>
        <time>2021-11-21T11:00:32.405Z</time>
      </trkpt>
      <trkpt lat="47.548674" lon="7.671062">
        <ele>259.817653</ele>
        <time>2021-11-21T11:00:33.477Z</time>
      </trkpt>
      <trkpt lat="47.548598" lon="7.671036">
        <ele>259.767856</ele>
        <time>2021-11-21T11:00:34.791Z</time>
      </trkpt>
      <trkpt lat="47.548474" lon="7.671088">
        <ele>259.761918</ele>
        <time>2021-11-21T11:00:36.655Z</time>
      </trkpt>
      <trkpt lat="47.548409" lon="7.671192">
        <ele>259.757509</ele>
        <time>2021-11-21T11:00:37.831Z</time>
      </trkpt>
      <trkpt lat="47.548386" lon="7.671284">
        <ele>259.754458</ele>
        <time>2021-11-21T11:00:38.573Z</time>
      </trkpt>
      <trkpt lat="47.547991" lon="7.671160">
        <ele>259.735852</ele>
        <time>2021-11-21T11:00:44.231Z</time>
      </trkpt>
      <trkpt lat="47.547947" lon="7.671147">
        <ele>259.733784</ele>
        <time>2021-11-21T11:00:45.021Z</time>
      </trkpt>
      <trkpt lat="47.547490" lon="7.672735">
        <ele>259.749935</ele>
        <time>2021-11-21T11:01:03.577Z</time>
      </trkpt>
      <trkpt lat="47.547314" lon="7.673384">
        <ele>259.967449</ele>
        <time>2021-11-21T11:01:11.291Z</time>
      </trkpt>
      <trkpt lat="47.547157" lon="7.674035">
        <ele>260.182439</ele>
        <time>2021-11-21T11:01:18.701Z</time>
      </trkpt>
      <trkpt lat="47.547130" lon="7.674170">
        <ele>260.226227</ele>
        <time>2021-11-21T11:01:20.508Z</time>
      </trkpt>
      <trkpt lat="47.546219" lon="7.677720">
        <ele>261.902695</ele>
        <time>2021-11-21T11:02:05.228Z</time>
      </trkpt>
      <trkpt lat="47.546195" lon="7.677846">
        <ele>261.993095</ele>
        <time>2021-11-21T11:02:06.568Z</time>
      </trkpt>
      <trkpt lat="47.546177" lon="7.677946">
        <ele>262.064558</ele>
        <time>2021-11-21T11:02:08.019Z</time>
      </trkpt>
      <trkpt lat="47.545897" lon="7.679076">
        <ele>262.895737</ele>
        <time>2021-11-21T11:02:23.934Z</time>
      </trkpt>
      <trkpt lat="47.545501" lon="7.680150">
        <ele>263.724072</ele>
        <time>2021-11-21T11:02:39.626Z</time>
      </trkpt>
      <trkpt lat="47.545417" lon="7.680396">
        <ele>263.891587</ele>
        <time>2021-11-21T11:02:43.441Z</time>
      </trkpt>
      <trkpt lat="47.545322" lon="7.680711">
        <ele>264.101227</ele>
        <time>2021-11-21T11:02:47.584Z</time>
      </trkpt>
      <trkpt lat="47.544970" lon="7.682061">
        <ele>264.980606</ele>
        <time>2021-11-21T11:03:05.662Z</time>
      </trkpt>
      <trkpt lat="47.544988" lon="7.682143">
        <ele>265.033001</ele>
        <time>2021-11-21T11:03:06.646Z</time>
      </trkpt>
      <trkpt lat="47.544842" lon="7.682691">
        <ele>265.366166</ele>
        <time>2021-11-21T11:03:13.610Z</time>
      </trkpt>
      <trkpt lat="47.544706" lon="7.683296">
        <ele>265.697139</ele>
        <time>2021-11-21T11:03:20.987Z</time>
      </trkpt>
      <trkpt lat="47.544626" lon="7.683667">
        <ele>265.899289</ele>
        <time>2021-11-21T11:03:25.500Z</time>
      </trkpt>
      <trkpt lat="47.544559" lon="7.684001">
        <ele>266.080141</ele>
        <time>2021-11-21T11:03:29.794Z</time>
      </trkpt>
      <trkpt lat="47.544493" lon="7.684340">
        <ele>266.263267</ele>
        <time>2021-11-21T11:03:34.159Z</time>
      </trkpt>
      <trkpt lat="47.544439" lon="7.684615">
        <ele>266.411920</ele>
        <time>2021-11-21T11:03:37.846Z</time>
      </trkpt>
      <trkpt lat="47.544438" lon="7.684734">
        <ele>266.473691</ele>
        <time>2021-11-21T11:03:39.346Z</time>
      </trkpt>
      <trkpt lat="47.544434" lon="7.684888">
        <ele>266.553682</ele>
        <time>2021-11-21T11:03:41.531Z</time>
      </trkpt>
      <trkpt lat="47.544310" lon="7.686004">
        <ele>266.858255</ele>
        <time>2021-11-21T11:03:55.076Z</time>
      </trkpt>
      <trkpt lat="47.544128" lon="7.687068">
        <ele>267.128246</ele>
        <time>2021-11-21T11:04:06.558Z</time>
      </trkpt>
      <trkpt lat="47.544057" lon="7.687517">
        <ele>267.241680</ele>
        <time>2021-11-21T11:04:11.194Z</time>
      </trkpt>
      <trkpt lat="47.543979" lon="7.687928">
        <ele>267.234551</ele>
        <time>2021-11-21T11:04:15.378Z</time>
      </trkpt>
      <trkpt lat="47.543887" lon="7.688428">
        <ele>267.198585</ele>
        <time>2021-11-21T11:04:20.402Z</time>
      </trkpt>
      <trkpt lat="47.543849" lon="7.688664">
        <ele>267.181747</ele>
        <time>2021-11-21T11:04:22.837Z</time>
      </trkpt>
      <trkpt lat="47.543756" lon="7.689554">
        <ele>267.119246</ele>
        <time>2021-11-21T11:04:30.797Z</time>
      </trkpt>
      <trkpt lat="47.543747" lon="7.689674">
        <ele>267.110866</ele>
        <time>2021-11-21T11:04:32.113Z</time>
      </trkpt>
      <trkpt lat="47.543719" lon="7.690293">
        <ele>267.096334</ele>
        <time>2021-11-21T11:04:38.489Z</time>
      </trkpt>
      <trkpt lat="47.543718" lon="7.690373">
        <ele>267.115158</ele>
        <time>2021-11-21T11:04:39.335Z</time>
      </trkpt>
      <trkpt lat="47.543695" lon="7.691028">
        <ele>267.269454</ele>
        <time>2021-11-21T11:04:46.849Z</time>
      </trkpt>
      <trkpt lat="47.543669" lon="7.691801">
        <ele>267.451528</ele>
        <time>2021-11-21T11:04:56.051Z</time>
      </trkpt>
      <trkpt lat="47.543652" lon="7.692147">
        <ele>267.533140</ele>
        <time>2021-11-21T11:04:59.627Z</time>
      </trkpt>
      <trkpt lat="47.543627" lon="7.692460">
        <ele>267.607287</ele>
        <time>2021-11-21T11:05:03.216Z</time>
      </trkpt>
      <trkpt lat="47.543515" lon="7.693372">
        <ele>267.641849</ele>
        <time>2021-11-21T11:05:12.873Z</time>
      </trkpt>
      <trkpt lat="47.543315" lon="7.694525">
        <ele>267.508163</ele>
        <time>2021-11-21T11:05:24.445Z</time>
      </trkpt>
      <trkpt lat="47.543147" lon="7.695557">
        <ele>267.404122</ele>
        <time>2021-11-21T11:05:33.723Z</time>
      </trkpt>
      <trkpt lat="47.542960" lon="7.696989">
        <ele>267.431890</ele>
        <time>2021-11-21T11:05:47.862Z</time>
      </trkpt>
      <trkpt lat="47.542902" lon="7.697537">
        <ele>267.442450</ele>
        <time>2021-11-21T11:05:53.858Z</time>
      </trkpt>
      <trkpt lat="47.542740" lon="7.698914">
        <ele>267.676530</ele>
        <time>2021-11-21T11:06:09.607Z</time>
      </trkpt>
      <trkpt lat="47.542682" lon="7.699476">
        <ele>267.824189</ele>
        <time>2021-11-21T11:06:16.095Z</time>
      </trkpt>
      <trkpt lat="47.542651" lon="7.699916">
        <ele>267.939086</ele>
        <time>2021-11-21T11:06:21.096Z</time>
      </trkpt>
      <trkpt lat="47.542660" lon="7.700609">
        <ele>268.119105</ele>
        <time>2021-11-21T11:06:28.819Z</time>
      </trkpt>
      <trkpt lat="47.542766" lon="7.702209">
        <ele>268.259292</ele>
        <time>2021-11-21T11:06:45.219Z</time>
      </trkpt>
      <trkpt lat="47.542785" lon="7.702499">
        <ele>268.281420</ele>
        <time>2021-11-21T11:06:48.115Z</time>
      </trkpt>
      <trkpt lat="47.542833" lon="7.702609">
        <ele>268.291367</ele>
        <time>2021-11-21T11:06:49.359Z</time>
      </trkpt>
      <trkpt lat="47.542922" lon="7.702619">
        <ele>268.301409</ele>
        <time>2021-11-21T11:06:50.771Z</time>
      </trkpt>
      <trkpt lat="47.542979" lon="7.703226">
        <ele>268.345150</ele>
        <time>2021-11-21T11:06:57.131Z</time>
      </trkpt>
      <trkpt lat="47.543028" lon="7.703662">
        <ele>268.276885</ele>
        <time>2021-11-21T11:07:01.506Z</time>
      </trkpt>
      <trkpt lat="47.543146" lon="7.704707">
        <ele>268.113248</ele>
        <time>2021-11-21T11:07:11.781Z</time>
      </trkpt>
      <trkpt lat="47.543153" lon="7.704762">
        <ele>268.104604</ele>
        <time>2021-11-21T11:07:12.310Z</time>
      </trkpt>
      <trkpt lat="47.543166" lon="7.704863">
        <ele>268.088724</ele>
        <time>2021-11-21T11:07:13.240Z</time>
      </trkpt>
      <trkpt lat="47.543179" lon="7.704985">
        <ele>268.069648</ele>
        <time>2021-11-21T11:07:14.852Z</time>
      </trkpt>
      <trkpt lat="47.543192" lon="7.705107">
        <ele>268.050573</ele>
        <time>2021-11-21T11:07:16.449Z</time>
      </trkpt>
      <trkpt lat="47.543280" lon="7.705893">
        <ele>267.907444</ele>
        <time>2021-11-21T11:07:23.631Z</time>
      </trkpt>
      <trkpt lat="47.543360" lon="7.706664">
        <ele>267.484099</ele>
        <time>2021-11-21T11:07:30.690Z</time>
      </trkpt>
      <trkpt lat="47.543343" lon="7.707367">
        <ele>267.102329</ele>
        <time>2021-11-21T11:07:36.908Z</time>
      </trkpt>
      <trkpt lat="47.543080" lon="7.709103">
        <ele>265.771219</ele>
        <time>2021-11-21T11:07:51.271Z</time>
      </trkpt>
      <trkpt lat="47.542885" lon="7.709631">
        <ele>265.106063</ele>
        <time>2021-11-21T11:07:55.878Z</time>
      </trkpt>
      <trkpt lat="47.542797" lon="7.709757">
        <ele>264.905692</ele>
        <time>2021-11-21T11:07:57.203Z</time>
      </trkpt>
      <trkpt lat="47.542709" lon="7.709872">
        <ele>264.713571</ele>
        <time>2021-11-21T11:07:58.521Z</time>
      </trkpt>
      <trkpt lat="47.542638" lon="7.709956">
        <ele>264.564808</ele>
        <time>2021-11-21T11:07:59.639Z</time>
      </trkpt>
      <trkpt lat="47.542559" lon="7.710042">
        <ele>264.404301</ele>
        <time>2021-11-21T11:08:00.695Z</time>
      </trkpt>
      <trkpt lat="47.542526" lon="7.710079">
        <ele>264.336543</ele>
        <time>2021-11-21T11:08:01.122Z</time>
      </trkpt>
      <trkpt lat="47.542440" lon="7.710127">
        <ele>264.186082</ele>
        <time>2021-11-21T11:08:02.194Z</time>
      </trkpt>
      <trkpt lat="47.542413" lon="7.710137">
        <ele>264.140516</ele>
        <time>2021-11-21T11:08:02.479Z</time>
      </trkpt>
      <trkpt lat="47.542315" lon="7.710174">
        <ele>263.974941</ele>
        <time>2021-11-21T11:08:03.692Z</time>
      </trkpt>
      <trkpt lat="47.542178" lon="7.710226">
        <ele>263.743399</ele>
        <time>2021-11-21T11:08:05.200Z</time>
      </trkpt>
      <trkpt lat="47.541354" lon="7.710467">
        <ele>262.387577</ele>
        <time>2021-11-21T11:08:14.354Z</time>
      </trkpt>
      <trkpt lat="47.540817" lon="7.710444">
        <ele>261.522443</ele>
        <time>2021-11-21T11:08:20.366Z</time>
      </trkpt>
      <trkpt lat="47.540498" lon="7.710323">
        <ele>260.992159</ele>
        <time>2021-11-21T11:08:24.392Z</time>
      </trkpt>
      <trkpt lat="47.540428" lon="7.710280">
        <ele>260.870124</ele>
        <time>2021-11-21T11:08:25.250Z</time>
      </trkpt>
      <trkpt lat="47.540229" lon="7.710170">
        <ele>260.610704</ele>
        <time>2021-11-21T11:08:28.004Z</time>
      </trkpt>
      <trkpt lat="47.539646" lon="7.709593">
        <ele>260.258283</ele>
        <time>2021-11-21T11:08:37.005Z</time>
      </trkpt>
      <trkpt lat="47.539021" lon="7.708561">
        <ele>259.787846</ele>
        <time>2021-11-21T11:08:49.829Z</time>
      </trkpt>
      <trkpt lat="47.538687" lon="7.707698">
        <ele>259.635666</ele>
        <time>2021-11-21T11:08:59.506Z</time>
      </trkpt>
      <trkpt lat="47.538663" lon="7.707476">
        <ele>259.607502</ele>
        <time>2021-11-21T11:09:01.684Z</time>
      </trkpt>
      <trkpt lat="47.538403" lon="7.706790">
        <ele>259.508952</ele>
        <time>2021-11-21T11:09:08.955Z</time>
      </trkpt>
      <trkpt lat="47.538239" lon="7.706913">
        <ele>259.474843</ele>
        <time>2021-11-21T11:09:11.471Z</time>
      </trkpt>
      <trkpt lat="47.536551" lon="7.708325">
        <ele>259.827399</ele>
        <time>2021-11-21T11:09:50.289Z</time>
      </trkpt>
      <trkpt lat="47.536506" lon="7.708376">
        <ele>259.842248</ele>
        <time>2021-11-21T11:09:51.848Z</time>
      </trkpt>
      <trkpt lat="47.536244" lon="7.708596">
        <ele>260.215836</ele>
        <time>2021-11-21T11:09:58.632Z</time>
      </trkpt>
      <trkpt lat="47.536866" lon="7.710249">
        <ele>263.053325</ele>
        <time>2021-11-21T11:10:38.216Z</time>
      </trkpt>
      <trkpt lat="47.536654" lon="7.710425">
        <ele>263.593074</ele>
        <time>2021-11-21T11:10:45.324Z</time>
      </trkpt>
      <trkpt lat="47.536654" lon="7.710426">
        <ele>263.594574</ele>
        <time>2021-11-21T11:10:45.446Z</time>
      </trkpt>
      <trkpt lat="47.536589" lon="7.710481">
        <ele>263.760829</ele>
        <time>2021-11-21T11:10:54.534Z</time>
      </trkpt>
      <trkpt lat="47.536503" lon="7.710555">
        <ele>263.937630</ele>
        <time>2021-11-21T11:11:06.323Z</time>
      </trkpt>
      <trkpt lat="47.536434" lon="7.710627">
        <ele>264.046585</ele>
        <time>2021-11-21T11:11:08.733Z</time>
      </trkpt>
      <trkpt lat="47.536351" lon="7.710783">
        <ele>264.219686</ele>
        <time>2021-11-21T11:11:13.014Z</time>
      </trkpt>
      <trkpt lat="47.536587" lon="7.711300">
        <ele>264.763587</ele>
        <time>2021-11-21T11:11:25.121Z</time>
      </trkpt>
      <trkpt lat="47.536914" lon="7.712167">
        <ele>265.629101</ele>
        <time>2021-11-21T11:11:43.185Z</time>
      </trkpt>
      <trkpt lat="47.536944" lon="7.712258">
        <ele>265.717358</ele>
        <time>2021-11-21T11:11:44.749Z</time>
      </trkpt>
      <trkpt lat="47.537049" lon="7.712536">
        <ele>265.994974</ele>
        <time>2021-11-21T11:11:49.145Z</time>
      </trkpt>
      <trkpt lat="47.537078" lon="7.712647">
        <ele>266.098702</ele>
        <time>2021-11-21T11:11:50.587Z</time>
      </trkpt>
      <trkpt lat="47.537200" lon="7.713102">
        <ele>266.063328</ele>
        <time>2021-11-21T11:11:56.120Z</time>
      </trkpt>
      <trkpt lat="47.537252" lon="7.713332">
        <ele>265.976096</ele>
        <time>2021-11-21T11:11:58.893Z</time>
      </trkpt>
      <trkpt lat="47.537287" lon="7.713488">
        <ele>265.916975</ele>
        <time>2021-11-21T11:12:00.747Z</time>
      </trkpt>
      <trkpt lat="47.537373" lon="7.713866">
        <ele>265.773520</ele>
        <time>2021-11-21T11:12:05.272Z</time>
      </trkpt>
      <trkpt lat="47.537410" lon="7.714028">
        <ele>265.712015</ele>
        <time>2021-11-21T11:12:07.234Z</time>
      </trkpt>
      <trkpt lat="47.537437" lon="7.714141">
        <ele>265.668906</ele>
        <time>2021-11-21T11:12:08.592Z</time>
      </trkpt>
      <trkpt lat="47.537445" lon="7.714177">
        <ele>265.655275</ele>
        <time>2021-11-21T11:12:09.048Z</time>
      </trkpt>
      <trkpt lat="47.537574" lon="7.714861">
        <ele>265.399865</ele>
        <time>2021-11-21T11:12:18.201Z</time>
      </trkpt>
      <trkpt lat="47.537628" lon="7.715098">
        <ele>265.309908</ele>
        <time>2021-11-21T11:12:21.519Z</time>
      </trkpt>
      <trkpt lat="47.537691" lon="7.715385">
        <ele>265.330219</ele>
        <time>2021-11-21T11:12:26.102Z</time>
      </trkpt>
      <trkpt lat="47.537682" lon="7.715689">
        <ele>265.584495</ele>
        <time>2021-11-21T11:12:30.110Z</time>
      </trkpt>
      <trkpt lat="47.537665" lon="7.715878">
        <ele>265.743825</ele>
        <time>2021-11-21T11:12:33.059Z</time>
      </trkpt>
      <trkpt lat="47.537708" lon="7.716118">
        <ele>265.951318</ele>
        <time>2021-11-21T11:12:36.689Z</time>
      </trkpt>
      <trkpt lat="47.537786" lon="7.716325">
        <ele>266.149413</ele>
        <time>2021-11-21T11:12:40.259Z</time>
      </trkpt>
      <trkpt lat="47.537834" lon="7.716383">
        <ele>266.226087</ele>
        <time>2021-11-21T11:12:42.199Z</time>
      </trkpt>
      <trkpt lat="47.537904" lon="7.716432">
        <ele>266.321920</ele>
        <time>2021-11-21T11:12:44.316Z</time>
      </trkpt>
      <trkpt lat="47.537984" lon="7.716489">
        <ele>266.431802</ele>
        <time>2021-11-21T11:12:46.320Z</time>
      </trkpt>
      <trkpt lat="47.538102" lon="7.716534">
        <ele>266.582622</ele>
        <time>2021-11-21T11:12:49.405Z</time>
      </trkpt>
      <trkpt lat="47.538239" lon="7.716580">
        <ele>266.756500</ele>
        <time>2021-11-21T11:12:53.841Z</time>
      </trkpt>
      <trkpt lat="47.538459" lon="7.717007">
        <ele>267.205350</ele>
        <time>2021-11-21T11:13:04.305Z</time>
      </trkpt>
      <trkpt lat="47.538708" lon="7.717692">
        <ele>267.893340</ele>
        <time>2021-11-21T11:13:19.054Z</time>
      </trkpt>
      <trkpt lat="47.538787" lon="7.718061">
        <ele>268.248324</ele>
        <time>2021-11-21T11:13:26.725Z</time>
      </trkpt>
      <trkpt lat="47.538796" lon="7.718297">
        <ele>268.465083</ele>
        <time>2021-11-21T11:13:30.795Z</time>
      </trkpt>
      <trkpt lat="47.538843" lon="7.718730">
        <ele>268.867247</ele>
        <time>2021-11-21T11:13:38.527Z</time>
      </trkpt>
      <trkpt lat="47.538928" lon="7.719478">
        <ele>269.562818</ele>
        <time>2021-11-21T11:13:50.494Z</time>
      </trkpt>
      <trkpt lat="47.538952" lon="7.719661">
        <ele>269.733767</ele>
        <time>2021-11-21T11:13:53.350Z</time>
      </trkpt>
      <trkpt lat="47.538974" lon="7.719868">
        <ele>269.919971</ele>
        <time>2021-11-21T11:13:56.354Z</time>
      </trkpt>
      <trkpt lat="47.539020" lon="7.720107">
        <ele>270.064527</ele>
        <time>2021-11-21T11:14:00.400Z</time>
      </trkpt>
      <trkpt lat="47.539077" lon="7.720239">
        <ele>270.155669</ele>
        <time>2021-11-21T11:14:02.793Z</time>
      </trkpt>
      <trkpt lat="47.539274" lon="7.720867">
        <ele>270.558461</ele>
        <time>2021-11-21T11:14:13.483Z</time>
      </trkpt>
      <trkpt lat="47.539484" lon="7.721575">
        <ele>271.008269</ele>
        <time>2021-11-21T11:14:26.154Z</time>
      </trkpt>
      <trkpt lat="47.539552" lon="7.721771">
        <ele>271.136447</ele>
        <time>2021-11-21T11:14:29.708Z</time>
      </trkpt>
      <trkpt lat="47.539330" lon="7.721781">
        <ele>271.327812</ele>
        <time>2021-11-21T11:14:33.947Z</time>
      </trkpt>
      <trkpt lat="47.539228" lon="7.721785">
        <ele>271.415726</ele>
        <time>2021-11-21T11:14:35.850Z</time>
      </trkpt>
      <trkpt lat="47.539026" lon="7.721794">
        <ele>271.591165</ele>
        <time>2021-11-21T11:14:39.478Z</time>
      </trkpt>
      <trkpt lat="47.538548" lon="7.721812">
        <ele>272.007300</ele>
        <time>2021-11-21T11:14:48.805Z</time>
      </trkpt>
      <trkpt lat="47.538162" lon="7.721802">
        <ele>272.343285</ele>
        <time>2021-11-21T11:14:56.536Z</time>
      </trkpt>
      <trkpt lat="47.537750" lon="7.721731">
        <ele>272.704265</ele>
        <time>2021-11-21T11:15:06.131Z</time>
      </trkpt>
      <trkpt lat="47.537647" lon="7.721712">
        <ele>272.794597</ele>
        <time>2021-11-21T11:15:08.078Z</time>
      </trkpt>
      <trkpt lat="47.537550" lon="7.721693">
        <ele>272.879751</ele>
        <time>2021-11-21T11:15:09.752Z</time>
      </trkpt>
      <trkpt lat="47.537539" lon="7.721893">
        <ele>272.997649</ele>
        <time>2021-11-21T11:15:13.975Z</time>
      </trkpt>
      <trkpt lat="47.537870" lon="7.722718">
        <ele>273.252900</ele>
        <time>2021-11-21T11:15:23.675Z</time>
      </trkpt>
      <trkpt lat="47.537956" lon="7.722967">
        <ele>273.322756</ele>
        <time>2021-11-21T11:15:25.761Z</time>
      </trkpt>
      <trkpt lat="47.538163" lon="7.723558">
        <ele>273.489046</ele>
        <time>2021-11-21T11:15:31.967Z</time>
      </trkpt>
      <trkpt lat="47.538218" lon="7.723728">
        <ele>273.536128</ele>
        <time>2021-11-21T11:15:38.146Z</time>
      </trkpt>
      <trkpt lat="47.538235" lon="7.723781">
        <ele>273.550784</ele>
        <time>2021-11-21T11:15:38.654Z</time>
      </trkpt>
      <trkpt lat="47.538245" lon="7.723814">
        <ele>273.559818</ele>
        <time>2021-11-21T11:15:38.855Z</time>
      </trkpt>
      <trkpt lat="47.538309" lon="7.724021">
        <ele>273.616681</ele>
        <time>2021-11-21T11:15:40.541Z</time>
      </trkpt>
      <trkpt lat="47.538367" lon="7.724211">
        <ele>273.668761</ele>
        <time>2021-11-21T11:15:47.477Z</time>
      </trkpt>
      <trkpt lat="47.538545" lon="7.724720">
        <ele>274.173109</ele>
        <time>2021-11-21T11:15:55.375Z</time>
      </trkpt>
      <trkpt lat="47.538991" lon="7.726086">
        <ele>275.675867</ele>
        <time>2021-11-21T11:16:19.040Z</time>
      </trkpt>
      <trkpt lat="47.539334" lon="7.727155">
        <ele>277.839679</ele>
        <time>2021-11-21T11:16:44.918Z</time>
      </trkpt>
      <trkpt lat="47.539469" lon="7.727605">
        <ele>279.258630</ele>
        <time>2021-11-21T11:16:57.386Z</time>
      </trkpt>
      <trkpt lat="47.539460" lon="7.727657">
        <ele>279.413315</ele>
        <time>2021-11-21T11:16:58.735Z</time>
      </trkpt>
      <trkpt lat="47.539446" lon="7.727722">
        <ele>279.609915</ele>
        <time>2021-11-21T11:17:00.481Z</time>
      </trkpt>
      <trkpt lat="47.539426" lon="7.727765">
        <ele>279.760381</ele>
        <time>2021-11-21T11:17:01.831Z</time>
      </trkpt>
      <trkpt lat="47.539384" lon="7.727813">
        <ele>279.986807</ele>
        <time>2021-11-21T11:17:03.684Z</time>
      </trkpt>
      <trkpt lat="47.539372" lon="7.727824">
        <ele>280.047042</ele>
        <time>2021-11-21T11:17:04.944Z</time>
      </trkpt>
      <trkpt lat="47.539067" lon="7.728082">
        <ele>281.546215</ele>
        <time>2021-11-21T11:17:16.600Z</time>
      </trkpt>
      <trkpt lat="47.538783" lon="7.728228">
        <ele>282.829364</ele>
        <time>2021-11-21T11:17:27.170Z</time>
      </trkpt>
      <trkpt lat="47.538627" lon="7.728269">
        <ele>283.505631</ele>
        <time>2021-11-21T11:17:32.445Z</time>
      </trkpt>
      <trkpt lat="47.538549" lon="7.728263">
        <ele>283.839013</ele>
        <time>2021-11-21T11:17:35.401Z</time>
      </trkpt>
      <trkpt lat="47.538538" lon="7.728334">
        <ele>284.034264</ele>
        <time>2021-11-21T11:17:37.038Z</time>
      </trkpt>
      <trkpt lat="47.538527" lon="7.728380">
        <ele>284.126792</ele>
        <time>2021-11-21T11:17:38.137Z</time>
      </trkpt>
      <trkpt lat="47.538474" lon="7.728435">
        <ele>284.308538</ele>
        <time>2021-11-21T11:17:40.427Z</time>
      </trkpt>
      <trkpt lat="47.538188" lon="7.728631">
        <ele>285.193584</ele>
        <time>2021-11-21T11:17:51.043Z</time>
      </trkpt>
      <trkpt lat="47.538156" lon="7.728744">
        <ele>285.425924</ele>
        <time>2021-11-21T11:17:54.038Z</time>
      </trkpt>
      <trkpt lat="47.538211" lon="7.729041">
        <ele>286.009851</ele>
        <time>2021-11-21T11:18:00.602Z</time>
      </trkpt>
      <trkpt lat="47.538275" lon="7.729744">
        <ele>287.354835</ele>
        <time>2021-11-21T11:18:15.764Z</time>
      </trkpt>
      <trkpt lat="47.538339" lon="7.730082">
        <ele>288.020428</ele>
        <time>2021-11-21T11:18:22.093Z</time>
      </trkpt>
      <trkpt lat="47.538512" lon="7.730958">
        <ele>288.933705</ele>
        <time>2021-11-21T11:18:35.620Z</time>
      </trkpt>
      <trkpt lat="47.538887" lon="7.732454">
        <ele>288.392874</ele>
        <time>2021-11-21T11:18:54.878Z</time>
      </trkpt>
      <trkpt lat="47.539178" lon="7.733656">
        <ele>287.918669</ele>
        <time>2021-11-21T11:19:09.947Z</time>
      </trkpt>
      <trkpt lat="47.539263" lon="7.733885">
        <ele>287.811242</ele>
        <time>2021-11-21T11:19:13.066Z</time>
      </trkpt>
      <trkpt lat="47.539305" lon="7.734151">
        <ele>287.698945</ele>
        <time>2021-11-21T11:19:16.291Z</time>
      </trkpt>
      <trkpt lat="47.540032" lon="7.737141">
        <ele>287.307105</ele>
        <time>2021-11-21T11:19:56.719Z</time>
      </trkpt>
      <trkpt lat="47.540388" lon="7.739213">
        <ele>288.342601</ele>
        <time>2021-11-21T11:20:32.757Z</time>
      </trkpt>
      <trkpt lat="47.540394" lon="7.739259">
        <ele>288.380064</ele>
        <time>2021-11-21T11:20:34.426Z</time>
      </trkpt>
      <trkpt lat="47.540387" lon="7.739372">
        <ele>288.470801</ele>
        <time>2021-11-21T11:20:36.283Z</time>
      </trkpt>
      <trkpt lat="47.540372" lon="7.739490">
        <ele>288.566816</ele>
        <time>2021-11-21T11:20:38.106Z</time>
      </trkpt>
      <trkpt lat="47.540374" lon="7.739620">
        <ele>288.670795</ele>
        <time>2021-11-21T11:20:40.174Z</time>
      </trkpt>
      <trkpt lat="47.540438" lon="7.740453">
        <ele>289.341185</ele>
        <time>2021-11-21T11:20:54.672Z</time>
      </trkpt>
      <trkpt lat="47.540552" lon="7.742240">
        <ele>290.012154</ele>
        <time>2021-11-21T11:21:22.563Z</time>
      </trkpt>
      <trkpt lat="47.540589" lon="7.742558">
        <ele>290.103020</ele>
        <time>2021-11-21T11:21:27.098Z</time>
      </trkpt>
      <trkpt lat="47.540617" lon="7.742875">
        <ele>290.193044</ele>
        <time>2021-11-21T11:21:31.478Z</time>
      </trkpt>
      <trkpt lat="47.540738" lon="7.743641">
        <ele>290.339321</ele>
        <time>2021-11-21T11:21:41.999Z</time>
      </trkpt>
      <trkpt lat="47.540913" lon="7.744421">
        <ele>290.313207</ele>
        <time>2021-11-21T11:21:52.679Z</time>
      </trkpt>
      <trkpt lat="47.541019" lon="7.744859">
        <ele>290.298424</ele>
        <time>2021-11-21T11:21:58.844Z</time>
      </trkpt>
      <trkpt lat="47.541038" lon="7.744940">
        <ele>290.295700</ele>
        <time>2021-11-21T11:21:59.957Z</time>
      </trkpt>
      <trkpt lat="47.541130" lon="7.745083">
        <ele>290.289424</ele>
        <time>2021-11-21T11:22:03.036Z</time>
      </trkpt>
      <trkpt lat="47.541148" lon="7.745144">
        <ele>290.287309</ele>
        <time>2021-11-21T11:22:03.938Z</time>
      </trkpt>
      <trkpt lat="47.541160" lon="7.745250">
        <ele>290.283894</ele>
        <time>2021-11-21T11:22:05.342Z</time>
      </trkpt>
      <trkpt lat="47.541167" lon="7.745463">
        <ele>290.277119</ele>
        <time>2021-11-21T11:22:08.330Z</time>
      </trkpt>
      <trkpt lat="47.541432" lon="7.746552">
        <ele>290.240904</ele>
        <time>2021-11-21T11:22:24.105Z</time>
      </trkpt>
      <trkpt lat="47.541511" lon="7.746885">
        <ele>290.229977</ele>
        <time>2021-11-21T11:22:28.670Z</time>
      </trkpt>
      <trkpt lat="47.541583" lon="7.747186">
        <ele>290.220091</ele>
        <time>2021-11-21T11:22:32.924Z</time>
      </trkpt>
      <trkpt lat="47.541758" lon="7.747784">
        <ele>290.199913</ele>
        <time>2021-11-21T11:22:41.545Z</time>
      </trkpt>
      <trkpt lat="47.542132" lon="7.748742">
        <ele>290.138149</ele>
        <time>2021-11-21T11:22:57.035Z</time>
      </trkpt>
      <trkpt lat="47.542347" lon="7.749227">
        <ele>290.085301</ele>
        <time>2021-11-21T11:23:05.343Z</time>
      </trkpt>
      <trkpt lat="47.542390" lon="7.749307">
        <ele>290.075987</ele>
        <time>2021-11-21T11:23:06.609Z</time>
      </trkpt>
      <trkpt lat="47.542614" lon="7.749755">
        <ele>290.025208</ele>
        <time>2021-11-21T11:23:11.993Z</time>
      </trkpt>
      <trkpt lat="47.543033" lon="7.750614">
        <ele>289.888892</ele>
        <time>2021-11-21T11:23:21.797Z</time>
      </trkpt>
      <trkpt lat="47.543042" lon="7.750637">
        <ele>289.875068</ele>
        <time>2021-11-21T11:23:22.067Z</time>
      </trkpt>
      <trkpt lat="47.543115" lon="7.750826">
        <ele>289.761835</ele>
        <time>2021-11-21T11:23:24.110Z</time>
      </trkpt>
      <trkpt lat="47.543222" lon="7.751091">
        <ele>289.601262</ele>
        <time>2021-11-21T11:23:27.932Z</time>
      </trkpt>
      <trkpt lat="47.543319" lon="7.751355">
        <ele>289.444962</ele>
        <time>2021-11-21T11:23:30.706Z</time>
      </trkpt>
      <trkpt lat="47.543798" lon="7.753068">
        <ele>288.369881</ele>
        <time>2021-11-21T11:23:46.193Z</time>
      </trkpt>
      <trkpt lat="47.544022" lon="7.753705">
        <ele>287.411029</ele>
        <time>2021-11-21T11:23:51.886Z</time>
      </trkpt>
      <trkpt lat="47.545021" lon="7.756243">
        <ele>282.545467</ele>
        <time>2021-11-21T11:24:12.991Z</time>
      </trkpt>
      <trkpt lat="47.545260" lon="7.756637">
        <ele>281.395168</ele>
        <time>2021-11-21T11:24:16.483Z</time>
      </trkpt>
      <trkpt lat="47.545304" lon="7.756852">
        <ele>280.907303</ele>
        <time>2021-11-21T11:24:17.932Z</time>
      </trkpt>
      <trkpt lat="47.545326" lon="7.756949">
        <ele>280.685093</ele>
        <time>2021-11-21T11:24:18.942Z</time>
      </trkpt>
      <trkpt lat="47.545360" lon="7.757065">
        <ele>280.410473</ele>
        <time>2021-11-21T11:24:20.202Z</time>
      </trkpt>
      <trkpt lat="47.545429" lon="7.757231">
        <ele>279.987137</ele>
        <time>2021-11-21T11:24:21.443Z</time>
      </trkpt>
      <trkpt lat="47.545677" lon="7.757815">
        <ele>278.704900</ele>
        <time>2021-11-21T11:24:26.107Z</time>
      </trkpt>
      <trkpt lat="47.545911" lon="7.758393">
        <ele>277.680903</ele>
        <time>2021-11-21T11:24:30.730Z</time>
      </trkpt>
      <trkpt lat="47.546264" lon="7.759224">
        <ele>276.189160</ele>
        <time>2021-11-21T11:24:37.755Z</time>
      </trkpt>
      <trkpt lat="47.546312" lon="7.759326">
        <ele>276.000249</ele>
        <time>2021-11-21T11:24:38.749Z</time>
      </trkpt>
      <trkpt lat="47.546552" lon="7.759727">
        <ele>275.186012</ele>
        <time>2021-11-21T11:24:43.386Z</time>
      </trkpt>
      <trkpt lat="47.546804" lon="7.760164">
        <ele>275.456620</ele>
        <time>2021-11-21T11:24:48.924Z</time>
      </trkpt>
      <trkpt lat="47.546870" lon="7.760301">
        <ele>275.546276</ele>
        <time>2021-11-21T11:24:50.925Z</time>
      </trkpt>
      <trkpt lat="47.546948" lon="7.760482">
        <ele>275.660663</ele>
        <time>2021-11-21T11:24:53.401Z</time>
      </trkpt>
      <trkpt lat="47.546989" lon="7.760612">
        <ele>275.737096</ele>
        <time>2021-11-21T11:24:55.111Z</time>
      </trkpt>
      <trkpt lat="47.547194" lon="7.761352">
        <ele>276.163176</ele>
        <time>2021-11-21T11:25:05.605Z</time>
      </trkpt>
      <trkpt lat="47.547577" lon="7.762307">
        <ele>276.931169</ele>
        <time>2021-11-21T11:25:21.645Z</time>
      </trkpt>
      <trkpt lat="47.547649" lon="7.762453">
        <ele>277.124066</ele>
        <time>2021-11-21T11:25:24.298Z</time>
      </trkpt>
      <trkpt lat="47.547778" lon="7.762713">
        <ele>277.468310</ele>
        <time>2021-11-21T11:25:29.200Z</time>
      </trkpt>
      <trkpt lat="47.547848" lon="7.762928">
        <ele>277.722963</ele>
        <time>2021-11-21T11:25:32.765Z</time>
      </trkpt>
      <trkpt lat="47.547909" lon="7.763208">
        <ele>278.036843</ele>
        <time>2021-11-21T11:25:37.413Z</time>
      </trkpt>
      <trkpt lat="47.548565" lon="7.765680">
        <ele>279.841847</ele>
        <time>2021-11-21T11:26:13.999Z</time>
      </trkpt>
      <trkpt lat="47.548990" lon="7.767248">
        <ele>279.946591</ele>
        <time>2021-11-21T11:26:29.356Z</time>
      </trkpt>
      <trkpt lat="47.549184" lon="7.768021">
        <ele>279.301445</ele>
        <time>2021-11-21T11:26:35.739Z</time>
      </trkpt>
      <trkpt lat="47.549363" lon="7.768846">
        <ele>278.623548</ele>
        <time>2021-11-21T11:26:42.402Z</time>
      </trkpt>
      <trkpt lat="47.549678" lon="7.770148">
        <ele>277.826663</ele>
        <time>2021-11-21T11:26:53.986Z</time>
      </trkpt>
      <trkpt lat="47.549714" lon="7.770276">
        <ele>277.768079</ele>
        <time>2021-11-21T11:26:55.114Z</time>
      </trkpt>
      <trkpt lat="47.549845" lon="7.770734">
        <ele>277.557925</ele>
        <time>2021-11-21T11:26:59.492Z</time>
      </trkpt>
      <trkpt lat="47.550069" lon="7.771373">
        <ele>277.253721</ele>
        <time>2021-11-21T11:27:05.941Z</time>
      </trkpt>
      <trkpt lat="47.550199" lon="7.772076">
        <ele>276.974946</ele>
        <time>2021-11-21T11:27:12.778Z</time>
      </trkpt>
      <trkpt lat="47.550203" lon="7.772543">
        <ele>276.841734</ele>
        <time>2021-11-21T11:27:17.167Z</time>
      </trkpt>
      <trkpt lat="47.550061" lon="7.773283">
        <ele>276.622299</ele>
        <time>2021-11-21T11:27:24.416Z</time>
      </trkpt>
      <trkpt lat="47.550090" lon="7.773646">
        <ele>276.518038</ele>
        <time>2021-11-21T11:27:27.695Z</time>
      </trkpt>
      <trkpt lat="47.550320" lon="7.774602">
        <ele>276.237073</ele>
        <time>2021-11-21T11:27:36.571Z</time>
      </trkpt>
      <trkpt lat="47.550505" lon="7.775364">
        <ele>276.048034</ele>
        <time>2021-11-21T11:27:43.633Z</time>
      </trkpt>
      <trkpt lat="47.550598" lon="7.775828">
        <ele>275.935044</ele>
        <time>2021-11-21T11:27:47.951Z</time>
      </trkpt>
      <trkpt lat="47.550607" lon="7.775871">
        <ele>275.924534</ele>
        <time>2021-11-21T11:27:48.374Z</time>
      </trkpt>
      <trkpt lat="47.550782" lon="7.776690">
        <ele>275.723997</ele>
        <time>2021-11-21T11:27:56.350Z</time>
      </trkpt>
      <trkpt lat="47.550963" lon="7.777797">
        <ele>275.888147</ele>
        <time>2021-11-21T11:28:08.436Z</time>
      </trkpt>
      <trkpt lat="47.550982" lon="7.777915">
        <ele>275.922192</ele>
        <time>2021-11-21T11:28:09.969Z</time>
      </trkpt>
      <trkpt lat="47.551085" lon="7.779125">
        <ele>276.264452</ele>
        <time>2021-11-21T11:28:24.409Z</time>
      </trkpt>
      <trkpt lat="47.551208" lon="7.780694">
        <ele>276.601726</ele>
        <time>2021-11-21T11:28:41.810Z</time>
      </trkpt>
      <trkpt lat="47.551270" lon="7.781390">
        <ele>276.730597</ele>
        <time>2021-11-21T11:28:49.202Z</time>
      </trkpt>
      <trkpt lat="47.551198" lon="7.781475">
        <ele>276.755636</ele>
        <time>2021-11-21T11:28:51.162Z</time>
      </trkpt>
      <trkpt lat="47.551230" lon="7.781831">
        <ele>276.821563</ele>
        <time>2021-11-21T11:28:54.856Z</time>
      </trkpt>
      <trkpt lat="47.551302" lon="7.782671">
        <ele>277.054277</ele>
        <time>2021-11-21T11:29:03.481Z</time>
      </trkpt>
      <trkpt lat="47.551352" lon="7.783277">
        <ele>277.266417</ele>
        <time>2021-11-21T11:29:09.826Z</time>
      </trkpt>
      <trkpt lat="47.551439" lon="7.784323">
        <ele>277.632630</ele>
        <time>2021-11-21T11:29:22.228Z</time>
      </trkpt>
      <trkpt lat="47.551437" lon="7.784657">
        <ele>277.748693</ele>
        <time>2021-11-21T11:29:26.585Z</time>
      </trkpt>
      <trkpt lat="47.551410" lon="7.784675">
        <ele>277.763936</ele>
        <time>2021-11-21T11:29:27.129Z</time>
      </trkpt>
      <trkpt lat="47.551373" lon="7.784740">
        <ele>277.793482</ele>
        <time>2021-11-21T11:29:28.127Z</time>
      </trkpt>
      <trkpt lat="47.551366" lon="7.784786">
        <ele>277.809867</ele>
        <time>2021-11-21T11:29:28.617Z</time>
      </trkpt>
      <trkpt lat="47.551371" lon="7.784835">
        <ele>277.839828</ele>
        <time>2021-11-21T11:29:29.231Z</time>
      </trkpt>
      <trkpt lat="47.551420" lon="7.784918">
        <ele>277.924104</ele>
        <time>2021-11-21T11:29:30.575Z</time>
      </trkpt>
      <trkpt lat="47.551452" lon="7.784931">
        <ele>277.961677</ele>
        <time>2021-11-21T11:29:31.198Z</time>
      </trkpt>
      <trkpt lat="47.551479" lon="7.784929">
        <ele>277.992288</ele>
        <time>2021-11-21T11:29:31.710Z</time>
      </trkpt>
      <trkpt lat="47.551498" lon="7.785081">
        <ele>278.110431</ele>
        <time>2021-11-21T11:29:33.893Z</time>
      </trkpt>
      <trkpt lat="47.551672" lon="7.787603">
        <ele>279.997823</ele>
        <time>2021-11-21T11:30:07.527Z</time>
      </trkpt>
      <trkpt lat="47.551690" lon="7.787827">
        <ele>280.125868</ele>
        <time>2021-11-21T11:30:10.374Z</time>
      </trkpt>
      <trkpt lat="47.551694" lon="7.787879">
        <ele>280.155576</ele>
        <time>2021-11-21T11:30:11.052Z</time>
      </trkpt>
      <trkpt lat="47.551712" lon="7.788013">
        <ele>280.233129</ele>
        <time>2021-11-21T11:30:12.856Z</time>
      </trkpt>
      <trkpt lat="47.551858" lon="7.788906">
        <ele>280.754674</ele>
        <time>2021-11-21T11:30:24.127Z</time>
      </trkpt>
      <trkpt lat="47.552036" lon="7.789826">
        <ele>281.297916</ele>
        <time>2021-11-21T11:30:35.382Z</time>
      </trkpt>
      <trkpt lat="47.552135" lon="7.790302">
        <ele>281.525843</ele>
        <time>2021-11-21T11:30:41.148Z</time>
      </trkpt>
      <trkpt lat="47.552201" lon="7.791031">
        <ele>281.836828</ele>
        <time>2021-11-21T11:30:49.752Z</time>
      </trkpt>
      <trkpt lat="47.552182" lon="7.792040">
        <ele>282.263602</ele>
        <time>2021-11-21T11:31:02.205Z</time>
      </trkpt>
      <trkpt lat="47.552180" lon="7.792294">
        <ele>282.371002</ele>
        <time>2021-11-21T11:31:05.278Z</time>
      </trkpt>
      <trkpt lat="47.552184" lon="7.792540">
        <ele>282.475042</ele>
        <time>2021-11-21T11:31:07.700Z</time>
      </trkpt>
      <trkpt lat="47.552198" lon="7.792976">
        <ele>282.727137</ele>
        <time>2021-11-21T11:31:12.009Z</time>
      </trkpt>
      <trkpt lat="47.552216" lon="7.793160">
        <ele>282.837545</ele>
        <time>2021-11-21T11:31:14.059Z</time>
      </trkpt>
      <trkpt lat="47.552233" lon="7.793294">
        <ele>282.918512</ele>
        <time>2021-11-21T11:31:15.779Z</time>
      </trkpt>
      <trkpt lat="47.552292" lon="7.793607">
        <ele>283.111496</ele>
        <time>2021-11-21T11:31:18.809Z</time>
      </trkpt>
      <trkpt lat="47.552369" lon="7.793872">
        <ele>283.282827</ele>
        <time>2021-11-21T11:31:22.549Z</time>
      </trkpt>
      <trkpt lat="47.552384" lon="7.793915">
        <ele>283.311571</ele>
        <time>2021-11-21T11:31:22.911Z</time>
      </trkpt>
      <trkpt lat="47.552494" lon="7.794200">
        <ele>283.506533</ele>
        <time>2021-11-21T11:31:27.088Z</time>
      </trkpt>
      <trkpt lat="47.552532" lon="7.794285">
        <ele>283.567078</ele>
        <time>2021-11-21T11:31:28.488Z</time>
      </trkpt>
      <trkpt lat="47.552644" lon="7.794507">
        <ele>283.731670</ele>
        <time>2021-11-21T11:31:32.188Z</time>
      </trkpt>
      <trkpt lat="47.552763" lon="7.794750">
        <ele>283.909956</ele>
        <time>2021-11-21T11:31:36.758Z</time>
      </trkpt>
      <trkpt lat="47.552786" lon="7.794796">
        <ele>283.943951</ele>
        <time>2021-11-21T11:31:37.278Z</time>
      </trkpt>
      <trkpt lat="47.552826" lon="7.794894">
        <ele>284.011961</ele>
        <time>2021-11-21T11:31:39.063Z</time>
      </trkpt>
      <trkpt lat="47.552837" lon="7.794925">
        <ele>284.032759</ele>
        <time>2021-11-21T11:31:39.590Z</time>
      </trkpt>
      <trkpt lat="47.552861" lon="7.794992">
        <ele>284.083981</ele>
        <time>2021-11-21T11:31:40.724Z</time>
      </trkpt>
      <trkpt lat="47.552892" lon="7.795106">
        <ele>284.328990</ele>
        <time>2021-11-21T11:31:42.802Z</time>
      </trkpt>
      <trkpt lat="47.552909" lon="7.795229">
        <ele>284.579276</ele>
        <time>2021-11-21T11:31:44.784Z</time>
      </trkpt>
      <trkpt lat="47.552917" lon="7.795354">
        <ele>284.829579</ele>
        <time>2021-11-21T11:31:46.399Z</time>
      </trkpt>
      <trkpt lat="47.552930" lon="7.795600">
        <ele>285.321474</ele>
        <time>2021-11-21T11:31:50.007Z</time>
      </trkpt>
      <trkpt lat="47.552930" lon="7.795600">
        <ele>285.321474</ele>
        <time>2021-11-21T11:31:50.010Z</time>
      </trkpt>
      <trkpt lat="47.552930" lon="7.795600">
        <ele>285.321474</ele>
        <time>2021-11-21T11:31:50.056Z</time>
      </trkpt>
      <trkpt lat="47.552886" lon="7.795976">
        <ele>286.082205</ele>
        <time>2021-11-21T11:31:55.596Z</time>
      </trkpt>
      <trkpt lat="47.552817" lon="7.796239">
        <ele>286.644709</ele>
        <time>2021-11-21T11:32:00.516Z</time>
      </trkpt>
      <trkpt lat="47.552762" lon="7.796425">
        <ele>287.049523</ele>
        <time>2021-11-21T11:32:04.039Z</time>
      </trkpt>
      <trkpt lat="47.552493" lon="7.797048">
        <ele>288.523877</ele>
        <time>2021-11-21T11:32:18.675Z</time>
      </trkpt>
      <trkpt lat="47.552152" lon="7.797876">
        <ele>290.723091</ele>
        <time>2021-11-21T11:32:40.737Z</time>
      </trkpt>
      <trkpt lat="47.552084" lon="7.798083">
        <ele>291.295967</ele>
        <time>2021-11-21T11:32:46.277Z</time>
      </trkpt>
      <trkpt lat="47.551948" lon="7.798607">
        <ele>292.692987</ele>
        <time>2021-11-21T11:32:58.000Z</time>
      </trkpt>
      <trkpt lat="47.551805" lon="7.799326">
        <ele>294.558229</ele>
        <time>2021-11-21T11:33:11.929Z</time>
      </trkpt>
      <trkpt lat="47.551793" lon="7.799434">
        <ele>294.830597</ele>
        <time>2021-11-21T11:33:14.151Z</time>
      </trkpt>
      <trkpt lat="47.551754" lon="7.799766">
        <ele>295.669174</ele>
        <time>2021-11-21T11:33:20.547Z</time>
      </trkpt>
      <trkpt lat="47.551712" lon="7.800249">
        <ele>296.360959</ele>
        <time>2021-11-21T11:33:29.457Z</time>
      </trkpt>
      <trkpt lat="47.551704" lon="7.800451">
        <ele>296.560572</ele>
        <time>2021-11-21T11:33:32.682Z</time>
      </trkpt>
      <trkpt lat="47.551701" lon="7.800510">
        <ele>296.618940</ele>
        <time>2021-11-21T11:33:33.428Z</time>
      </trkpt>
      <trkpt lat="47.551672" lon="7.801147">
        <ele>297.248762</ele>
        <time>2021-11-21T11:33:41.634Z</time>
      </trkpt>
      <trkpt lat="47.551669" lon="7.801438">
        <ele>297.535863</ele>
        <time>2021-11-21T11:33:46.269Z</time>
      </trkpt>
      <trkpt lat="47.551666" lon="7.801632">
        <ele>297.727293</ele>
        <time>2021-11-21T11:33:48.208Z</time>
      </trkpt>
      <trkpt lat="47.551669" lon="7.801853">
        <ele>297.945351</ele>
        <time>2021-11-21T11:33:51.517Z</time>
      </trkpt>
      <trkpt lat="47.551671" lon="7.802077">
        <ele>298.166344</ele>
        <time>2021-11-21T11:33:53.817Z</time>
      </trkpt>
      <trkpt lat="47.551679" lon="7.802228">
        <ele>298.315762</ele>
        <time>2021-11-21T11:33:54.934Z</time>
      </trkpt>
      <trkpt lat="47.551688" lon="7.802394">
        <ele>298.480047</ele>
        <time>2021-11-21T11:33:57.923Z</time>
      </trkpt>
      <trkpt lat="47.551700" lon="7.802648">
        <ele>298.701787</ele>
        <time>2021-11-21T11:34:00.159Z</time>
      </trkpt>
      <trkpt lat="47.551732" lon="7.803125">
        <ele>299.006730</ele>
        <time>2021-11-21T11:34:06.420Z</time>
      </trkpt>
      <trkpt lat="47.551744" lon="7.803277">
        <ele>299.104085</ele>
        <time>2021-11-21T11:34:07.638Z</time>
      </trkpt>
      <trkpt lat="47.551751" lon="7.803369">
        <ele>299.162983</ele>
        <time>2021-11-21T11:34:09.312Z</time>
      </trkpt>
      <trkpt lat="47.551692" lon="7.803510">
        <ele>299.268521</ele>
        <time>2021-11-21T11:34:12.900Z</time>
      </trkpt>
      <trkpt lat="47.551741" lon="7.804294">
        <ele>299.769404</ele>
        <time>2021-11-21T11:34:25.497Z</time>
      </trkpt>
      <trkpt lat="47.551744" lon="7.804473">
        <ele>299.883311</ele>
        <time>2021-11-21T11:34:28.532Z</time>
      </trkpt>
      <trkpt lat="47.551731" lon="7.804667">
        <ele>300.007333</ele>
        <time>2021-11-21T11:34:32.633Z</time>
      </trkpt>
      <trkpt lat="47.551709" lon="7.805000">
        <ele>300.220186</ele>
        <time>2021-11-21T11:34:37.173Z</time>
      </trkpt>
      <trkpt lat="47.551681" lon="7.805477">
        <ele>300.412736</ele>
        <time>2021-11-21T11:34:44.920Z</time>
      </trkpt>
      <trkpt lat="47.551671" lon="7.806117">
        <ele>300.568055</ele>
        <time>2021-11-21T11:34:55.009Z</time>
      </trkpt>
      <trkpt lat="47.551651" lon="7.806246">
        <ele>300.600168</ele>
        <time>2021-11-21T11:34:57.912Z</time>
      </trkpt>
      <trkpt lat="47.551895" lon="7.806278">
        <ele>300.688224</ele>
        <time>2021-11-21T11:35:01.437Z</time>
      </trkpt>
      <trkpt lat="47.552015" lon="7.806307">
        <ele>300.731932</ele>
        <time>2021-11-21T11:35:04.307Z</time>
      </trkpt>
      <trkpt lat="47.552068" lon="7.806445">
        <ele>300.770455</ele>
        <time>2021-11-21T11:35:05.764Z</time>
      </trkpt>
      <trkpt lat="47.552398" lon="7.808880">
        <ele>300.369939</ele>
        <time>2021-11-21T11:35:27.907Z</time>
      </trkpt>
      <trkpt lat="47.552566" lon="7.810386">
        <ele>299.745891</ele>
        <time>2021-11-21T11:35:40.918Z</time>
      </trkpt>
      <trkpt lat="47.552711" lon="7.812955">
        <ele>298.598542</ele>
        <time>2021-11-21T11:36:03.527Z</time>
      </trkpt>
      <trkpt lat="47.552844" lon="7.816432">
        <ele>297.496363</ele>
        <time>2021-11-21T11:36:34.019Z</time>
      </trkpt>
      <trkpt lat="47.552948" lon="7.819358">
        <ele>297.832471</ele>
        <time>2021-11-21T11:37:05.250Z</time>
      </trkpt>
      <trkpt lat="47.552896" lon="7.820699">
        <ele>298.300544</ele>
        <time>2021-11-21T11:37:21.333Z</time>
      </trkpt>
      <trkpt lat="47.552567" lon="7.824508">
        <ele>300.222377</ele>
        <time>2021-11-21T11:38:07.818Z</time>
      </trkpt>
      <trkpt lat="47.552491" lon="7.827227">
        <ele>301.781399</ele>
        <time>2021-11-21T11:38:39.558Z</time>
      </trkpt>
      <trkpt lat="47.552515" lon="7.828094">
        <ele>302.378321</ele>
        <time>2021-11-21T11:38:51.268Z</time>
      </trkpt>
      <trkpt lat="47.552477" lon="7.828294">
        <ele>302.521252</ele>
        <time>2021-11-21T11:38:53.885Z</time>
      </trkpt>
      <trkpt lat="47.552421" lon="7.828481">
        <ele>302.661986</ele>
        <time>2021-11-21T11:38:56.816Z</time>
      </trkpt>
      <trkpt lat="47.552404" lon="7.828582">
        <ele>302.788670</ele>
        <time>2021-11-21T11:38:58.501Z</time>
      </trkpt>
      <trkpt lat="47.552416" lon="7.828822">
        <ele>303.162829</ele>
        <time>2021-11-21T11:39:01.735Z</time>
      </trkpt>
      <trkpt lat="47.552554" lon="7.829266">
        <ele>303.922814</ele>
        <time>2021-11-21T11:39:09.086Z</time>
      </trkpt>
      <trkpt lat="47.552645" lon="7.830686">
        <ele>306.140462</ele>
        <time>2021-11-21T11:39:32.392Z</time>
      </trkpt>
      <trkpt lat="47.552690" lon="7.832598">
        <ele>309.798217</ele>
        <time>2021-11-21T11:40:07.869Z</time>
      </trkpt>
      <trkpt lat="47.552616" lon="7.832891">
        <ele>310.430264</ele>
        <time>2021-11-21T11:40:13.233Z</time>
      </trkpt>
      <trkpt lat="47.552556" lon="7.832977">
        <ele>310.680160</ele>
        <time>2021-11-21T11:40:15.964Z</time>
      </trkpt>
      <trkpt lat="47.552511" lon="7.833072">
        <ele>310.914646</ele>
        <time>2021-11-21T11:40:17.990Z</time>
      </trkpt>
      <trkpt lat="47.552467" lon="7.833198">
        <ele>311.201265</ele>
        <time>2021-11-21T11:40:20.392Z</time>
      </trkpt>
      <trkpt lat="47.552452" lon="7.833284">
        <ele>311.380723</ele>
        <time>2021-11-21T11:40:22.003Z</time>
      </trkpt>
      <trkpt lat="47.552696" lon="7.833789">
        <ele>312.526964</ele>
        <time>2021-11-21T11:40:33.034Z</time>
      </trkpt>
      <trkpt lat="47.552700" lon="7.833938">
        <ele>312.750022</ele>
        <time>2021-11-21T11:40:35.979Z</time>
      </trkpt>
      <trkpt lat="47.552714" lon="7.835010">
        <ele>314.353869</ele>
        <time>2021-11-21T11:40:54.456Z</time>
      </trkpt>
      <trkpt lat="47.552719" lon="7.836790">
        <ele>316.745838</ele>
        <time>2021-11-21T11:41:19.739Z</time>
      </trkpt>
      <trkpt lat="47.552697" lon="7.838068">
        <ele>318.021216</ele>
        <time>2021-11-21T11:41:37.381Z</time>
      </trkpt>
      <trkpt lat="47.552736" lon="7.838578">
        <ele>318.533259</ele>
        <time>2021-11-21T11:41:44.508Z</time>
      </trkpt>
      <trkpt lat="47.552802" lon="7.839009">
        <ele>318.985154</ele>
        <time>2021-11-21T11:41:50.727Z</time>
      </trkpt>
      <trkpt lat="47.552939" lon="7.839526">
        <ele>319.593819</ele>
        <time>2021-11-21T11:41:58.517Z</time>
      </trkpt>
      <trkpt lat="47.553231" lon="7.841529">
        <ele>321.821831</ele>
        <time>2021-11-21T11:42:28.648Z</time>
      </trkpt>
      <trkpt lat="47.553216" lon="7.841849">
        <ele>322.063630</ele>
        <time>2021-11-21T11:42:33.171Z</time>
      </trkpt>
      <trkpt lat="47.553123" lon="7.842222">
        <ele>322.363374</ele>
        <time>2021-11-21T11:42:38.401Z</time>
      </trkpt>
      <trkpt lat="47.553133" lon="7.842431">
        <ele>322.521316</ele>
        <time>2021-11-21T11:42:41.530Z</time>
      </trkpt>
      <trkpt lat="47.552833" lon="7.842495">
        <ele>322.859844</ele>
        <time>2021-11-21T11:42:48.839Z</time>
      </trkpt>
      <trkpt lat="47.552661" lon="7.842532">
        <ele>323.053966</ele>
        <time>2021-11-21T11:42:53.019Z</time>
      </trkpt>
      <trkpt lat="47.552380" lon="7.842592">
        <ele>323.371060</ele>
        <time>2021-11-21T11:42:59.888Z</time>
      </trkpt>
      <trkpt lat="47.551922" lon="7.842704">
        <ele>323.855335</ele>
        <time>2021-11-21T11:43:10.454Z</time>
      </trkpt>
      <trkpt lat="47.551668" lon="7.842770">
        <ele>324.042436</ele>
        <time>2021-11-21T11:43:16.413Z</time>
      </trkpt>
      <trkpt lat="47.551454" lon="7.842815">
        <ele>324.199260</ele>
        <time>2021-11-21T11:43:20.988Z</time>
      </trkpt>
      <trkpt lat="47.551344" lon="7.844621">
        <ele>325.087239</ele>
        <time>2021-11-21T11:43:42.495Z</time>
      </trkpt>
      <trkpt lat="47.551219" lon="7.846478">
        <ele>326.706374</ele>
        <time>2021-11-21T11:44:07.106Z</time>
      </trkpt>
      <trkpt lat="47.551205" lon="7.846694">
        <ele>326.895519</ele>
        <time>2021-11-21T11:44:10.533Z</time>
      </trkpt>
      <trkpt lat="47.551184" lon="7.847206">
        <ele>327.342636</ele>
        <time>2021-11-21T11:44:17.879Z</time>
      </trkpt>
      <trkpt lat="47.551196" lon="7.847517">
        <ele>327.676017</ele>
        <time>2021-11-21T11:44:22.177Z</time>
      </trkpt>
      <trkpt lat="47.551669" lon="7.848083">
        <ele>328.711209</ele>
        <time>2021-11-21T11:44:36.049Z</time>
      </trkpt>
      <trkpt lat="47.551242" lon="7.848702">
        <ele>329.728333</ele>
        <time>2021-11-21T11:44:49.220Z</time>
      </trkpt>
      <trkpt lat="47.550975" lon="7.849066">
        <ele>330.346097</ele>
        <time>2021-11-21T11:44:56.535Z</time>
      </trkpt>
      <trkpt lat="47.550810" lon="7.849346">
        <ele>330.677901</ele>
        <time>2021-11-21T11:45:02.928Z</time>
      </trkpt>
      <trkpt lat="47.550488" lon="7.850081">
        <ele>331.354885</ele>
        <time>2021-11-21T11:45:18.413Z</time>
      </trkpt>
      <trkpt lat="47.550333" lon="7.850434">
        <ele>331.680242</ele>
        <time>2021-11-21T11:45:25.742Z</time>
      </trkpt>
      <trkpt lat="47.550009" lon="7.851173">
        <ele>332.361069</ele>
        <time>2021-11-21T11:45:40.334Z</time>
      </trkpt>
      <trkpt lat="47.549865" lon="7.851495">
        <ele>332.532546</ele>
        <time>2021-11-21T11:45:46.253Z</time>
      </trkpt>
      <trkpt lat="47.549652" lon="7.851969">
        <ele>332.500544</ele>
        <time>2021-11-21T11:45:54.214Z</time>
      </trkpt>
      <trkpt lat="47.549535" lon="7.852225">
        <ele>332.483169</ele>
        <time>2021-11-21T11:45:58.271Z</time>
      </trkpt>
      <trkpt lat="47.549285" lon="7.852784">
        <ele>332.445483</ele>
        <time>2021-11-21T11:46:06.906Z</time>
      </trkpt>
      <trkpt lat="47.549708" lon="7.853279">
        <ele>332.400602</ele>
        <time>2021-11-21T11:46:17.300Z</time>
      </trkpt>
      <trkpt lat="47.550221" lon="7.853833">
        <ele>332.099834</ele>
        <time>2021-11-21T11:46:29.213Z</time>
      </trkpt>
      <trkpt lat="47.549883" lon="7.854434">
        <ele>331.806166</ele>
        <time>2021-11-21T11:46:35.891Z</time>
      </trkpt>
      <trkpt lat="47.549566" lon="7.855225">
        <ele>331.460828</ele>
        <time>2021-11-21T11:46:47.035Z</time>
      </trkpt>
      <trkpt lat="47.549362" lon="7.855774">
        <ele>331.334736</ele>
        <time>2021-11-21T11:46:54.957Z</time>
      </trkpt>
      <trkpt lat="47.548887" lon="7.857308">
        <ele>331.119221</ele>
        <time>2021-11-21T11:47:17.065Z</time>
      </trkpt>
      <trkpt lat="47.548743" lon="7.857692">
        <ele>331.063125</ele>
        <time>2021-11-21T11:47:23.037Z</time>
      </trkpt>
      <trkpt lat="47.548701" lon="7.857893">
        <ele>331.107976</ele>
        <time>2021-11-21T11:47:26.008Z</time>
      </trkpt>
      <trkpt lat="47.548686" lon="7.857973">
        <ele>331.149919</ele>
        <time>2021-11-21T11:47:27.131Z</time>
      </trkpt>
      <trkpt lat="47.548611" lon="7.858381">
        <ele>331.363527</ele>
        <time>2021-11-21T11:47:33.345Z</time>
      </trkpt>
      <trkpt lat="47.548334" lon="7.859801">
        <ele>332.110200</ele>
        <time>2021-11-21T11:47:56.383Z</time>
      </trkpt>
      <trkpt lat="47.548049" lon="7.860929">
        <ele>333.121549</ele>
        <time>2021-11-21T11:48:17.401Z</time>
      </trkpt>
      <trkpt lat="47.547930" lon="7.861711">
        <ele>334.033565</ele>
        <time>2021-11-21T11:48:32.165Z</time>
      </trkpt>
      <trkpt lat="47.547568" lon="7.863151">
        <ele>335.578819</ele>
        <time>2021-11-21T11:49:01.293Z</time>
      </trkpt>
      <trkpt lat="47.547320" lon="7.863864">
        <ele>335.966974</ele>
        <time>2021-11-21T11:49:15.233Z</time>
      </trkpt>
      <trkpt lat="47.546974" lon="7.864423">
        <ele>336.334008</ele>
        <time>2021-11-21T11:49:26.056Z</time>
      </trkpt>
      <trkpt lat="47.546885" lon="7.864500">
        <ele>336.407900</ele>
        <time>2021-11-21T11:49:29.141Z</time>
      </trkpt>
      <trkpt lat="47.546894" lon="7.864837">
        <ele>336.571111</ele>
        <time>2021-11-21T11:49:33.025Z</time>
      </trkpt>
      <trkpt lat="47.546889" lon="7.865225">
        <ele>336.668659</ele>
        <time>2021-11-21T11:49:38.450Z</time>
      </trkpt>
      <trkpt lat="47.546819" lon="7.865489">
        <ele>336.502353</ele>
        <time>2021-11-21T11:49:42.394Z</time>
      </trkpt>
      <trkpt lat="47.546510" lon="7.865766">
        <ele>336.188628</ele>
        <time>2021-11-21T11:49:49.028Z</time>
      </trkpt>
      <trkpt lat="47.546327" lon="7.865959">
        <ele>335.993500</ele>
        <time>2021-11-21T11:49:52.544Z</time>
      </trkpt>
      <trkpt lat="47.546096" lon="7.866147">
        <ele>335.764557</ele>
        <time>2021-11-21T11:49:57.100Z</time>
      </trkpt>
      <trkpt lat="47.545240" lon="7.866887">
        <ele>335.155709</ele>
        <time>2021-11-21T11:50:13.773Z</time>
      </trkpt>
      <trkpt lat="47.545160" lon="7.866985">
        <ele>335.155709</ele>
        <time>2021-11-21T11:50:15.729Z</time>
      </trkpt>
      <trkpt lat="47.545003" lon="7.867278">
        <ele>335.155709</ele>
        <time>2021-11-21T11:50:21.397Z</time>
      </trkpt>
      <trkpt lat="47.544568" lon="7.867693">
        <ele>335.155709</ele>
        <time>2021-11-21T11:50:33.994Z</time>
      </trkpt>
      <trkpt lat="47.544469" lon="7.867776">
        <ele>335.155709</ele>
        <time>2021-11-21T11:50:36.627Z</time>
      </trkpt>
      <trkpt lat="47.544410" lon="7.867825">
        <ele>335.155709</ele>
        <time>2021-11-21T11:50:38.398Z</time>
      </trkpt>
      <trkpt lat="47.544246" lon="7.867967">
        <ele>335.155709</ele>
        <time>2021-11-21T11:50:43.018Z</time>
      </trkpt>
      <trkpt lat="47.544214" lon="7.867988">
        <ele>335.155709</ele>
        <time>2021-11-21T11:50:43.836Z</time>
      </trkpt>
      <trkpt lat="47.543801" lon="7.868269">
        <ele>335.155709</ele>
        <time>2021-11-21T11:50:54.913Z</time>
      </trkpt>
      <trkpt lat="47.543657" lon="7.868359">
        <ele>335.155709</ele>
        <time>2021-11-21T11:50:59.091Z</time>
      </trkpt>
      <trkpt lat="47.543466" lon="7.868484">
        <ele>335.155709</ele>
        <time>2021-11-21T11:51:03.338Z</time>
      </trkpt>
      <trkpt lat="47.543305" lon="7.868589">
        <ele>335.155709</ele>
        <time>2021-11-21T11:51:07.193Z</time>
      </trkpt>
    </trkseg>
  </trk>
</gpx>